[[{"header":{"parameterUnit":"m.s-1","parameterCategory":1,"la1":30.6,"la2":29.2853,"lo1":-89.7004,"lo2":-87.6739,"dy":0.0162,"dx":0.0183,"nx":112,"ny":82,"refTime":"2023-10-07T06:00:00:Z","depth":0,"parameterNumber":2,"parameterNumberName":"U-component_of_WINDS"},"data":[0.0,0.0,0.0,0.0,0.0,0.0,0.0,0.0,0.0,0.0,0.0,0.0,0.0,0.0,0.0,0.0,0.0,0.0,0.0,0.0,0.0,0.0,0.0,0.0,0.0,0.0,0.0,0.0,0.0,0.0,0.0,0.0,0.0,0.0,0.0,0.0,0.0,0.0,0.0,0.0,0.0,0.0,0.0,0.0,0.0,0.0,0.0,0.0,0.0,0.0,0.0,0.0,0.0,0.0,0.0,0.0,0.0,0.0,0.0,0.0,0.0,0.0,0.0,0.0,0.0,0.0,0.0,0.0,0.0,0.0,0.0,0.0,0.0,0.0,0.0,0.0,0.0,0.0,0.0,0.0,0.0,0.0,0.0,0.0,0.0,0.0,0.0,0.0,0.0,0.0,0.0,-2.0294,-2.0286,-2.0374,-2.0374,-2.0374,-1.9662,-1.8042,0.0,0.0,0.0,0.0,0.0,0.0,0.0,0.0,0.0,0.0,0.0,0.0,0.0,0.0,0.0,0.0,0.0,0.0,0.0,0.0,0.0,0.0,0.0,0.0,0.0,0.0,0.0,0.0,0.0,0.0,0.0,0.0,0.0,0.0,0.0,0.0,0.0,0.0,0.0,0.0,0.0,0.0,0.0,0.0,0.0,0.0,0.0,0.0,0.0,0.0,0.0,0.0,0.0,0.0,0.0,0.0,0.0,0.0,0.0,0.0,0.0,0.0,0.0,0.0,0.0,0.0,0.0,0.0,0.0,0.0,0.0,0.0,0.0,0.0,0.0,0.0,0.0,0.0,0.0,0.0,0.0,0.0,0.0,0.0,0.0,0.0,0.0,0.0,0.0,0.0,0.0,0.0,0.0,0.0,0.0,0.0,0.0,0.0,0.0,0.0,0.0,0.0,0.0,0.0,-2.0334,-2.0575,-2.0828,-2.0975,-2.0975,-2.0975,-2.0166,-1.8328,0.0,0.0,0.0,0.0,0.0,0.0,0.0,0.0,0.0,0.0,0.0,0.0,0.0,0.0,0.0,0.0,0.0,0.0,0.0,0.0,0.0,0.0,0.0,0.0,0.0,0.0,0.0,0.0,0.0,0.0,0.0,0.0,0.0,0.0,0.0,0.0,0.0,0.0,0.0,0.0,0.0,0.0,0.0,0.0,0.0,0.0,0.0,0.0,0.0,0.0,0.0,0.0,0.0,0.0,0.0,0.0,0.0,0.0,0.0,0.0,0.0,0.0,0.0,0.0,0.0,0.0,0.0,0.0,0.0,0.0,0.0,0.0,0.0,0.0,0.0,0.0,0.0,0.0,0.0,0.0,0.0,0.0,0.0,0.0,0.0,0.0,0.0,0.0,0.0,0.0,0.0,0.0,0.0,0.0,0.0,0.0,0.0,0.0,0.0,0.0,0.0,0.0,0.0,-2.0708,-2.0762,-2.0895,-2.1029,-2.1109,-2.1109,-2.1109,-2.0727,-1.9877,-1.9688,0.0,0.0,0.0,0.0,0.0,0.0,0.0,0.0,0.0,0.0,0.0,0.0,0.0,0.0,0.0,0.0,0.0,0.0,0.0,0.0,0.0,0.0,0.0,0.0,0.0,0.0,0.0,0.0,0.0,0.0,0.0,0.0,0.0,0.0,0.0,0.0,0.0,0.0,0.0,0.0,0.0,0.0,0.0,0.0,0.0,0.0,0.0,0.0,0.0,0.0,0.0,0.0,0.0,0.0,0.0,0.0,0.0,0.0,0.0,0.0,0.0,0.0,0.0,0.0,0.0,0.0,0.0,0.0,0.0,0.0,0.0,0.0,0.0,0.0,0.0,0.0,0.0,0.0,0.0,0.0,0.0,0.0,0.0,0.0,0.0,0.0,0.0,0.0,0.0,0.0,0.0,0.0,0.0,0.0,0.0,0.0,0.0,0.0,0.0,0.0,0.0,0.0,-2.1109,-2.1109,-2.1109,-2.1109,-2.1109,-2.1109,-2.1109,-2.1109,-2.1109,-2.0716,0.0,0.0,0.0,0.0,0.0,0.0,0.0,0.0,0.0,0.0,0.0,0.0,0.0,0.0,0.0,0.0,0.0,0.0,0.0,0.0,0.0,0.0,0.0,0.0,0.0,0.0,0.0,0.0,0.0,0.0,0.0,0.0,0.0,0.0,0.0,0.0,0.0,0.0,0.0,0.0,0.0,0.0,0.0,0.0,0.0,0.0,0.0,0.0,0.0,0.0,0.0,0.0,0.0,0.0,0.0,0.0,0.0,0.0,0.0,0.0,0.0,0.0,0.0,0.0,0.0,0.0,0.0,0.0,0.0,0.0,0.0,0.0,0.0,0.0,0.0,0.0,0.0,0.0,0.0,0.0,0.0,0.0,0.0,0.0,0.0,0.0,0.0,0.0,0.0,0.0,0.0,0.0,0.0,0.0,0.0,0.0,0.0,0.0,0.0,0.0,0.0,0.0,-2.1109,-2.1109,-2.1109,-2.1109,-2.1109,-2.1109,-2.1109,-2.1109,-2.1109,-1.961,0.0,0.0,0.0,0.0,0.0,0.0,0.0,0.0,0.0,0.0,0.0,0.0,0.0,0.0,0.0,0.0,0.0,0.0,0.0,0.0,0.0,0.0,0.0,0.0,0.0,0.0,0.0,0.0,0.0,0.0,0.0,0.0,0.0,0.0,0.0,0.0,0.0,0.0,0.0,0.0,0.0,0.0,0.0,0.0,0.0,0.0,0.0,0.0,0.0,0.0,0.0,0.0,0.0,0.0,0.0,0.0,0.0,0.0,0.0,0.0,0.0,0.0,0.0,0.0,0.0,0.0,0.0,0.0,0.0,0.0,0.0,0.0,0.0,0.0,0.0,0.0,0.0,0.0,0.0,0.0,0.0,0.0,0.0,0.0,0.0,0.0,0.0,0.0,0.0,0.0,0.0,0.0,0.0,0.0,0.0,0.0,0.0,0.0,0.0,0.0,0.0,0.0,-2.1657,-2.1657,0.0,-2.1657,-2.1657,-2.1657,-2.1657,-2.1657,-2.1657,0.0,0.0,0.0,0.0,0.0,0.0,0.0,0.0,0.0,0.0,0.0,0.0,0.0,0.0,0.0,0.0,0.0,0.0,0.0,0.0,0.0,0.0,0.0,0.0,0.0,0.0,0.0,0.0,0.0,0.0,0.0,0.0,0.0,0.0,0.0,0.0,0.0,0.0,0.0,0.0,0.0,0.0,0.0,0.0,0.0,0.0,0.0,0.0,0.0,0.0,0.0,0.0,0.0,0.0,0.0,0.0,0.0,0.0,0.0,0.0,0.0,0.0,0.0,0.0,0.0,0.0,0.0,0.0,0.0,0.0,0.0,0.0,0.0,0.0,0.0,0.0,0.0,0.0,0.0,0.0,0.0,0.0,0.0,0.0,0.0,0.0,0.0,0.0,0.0,0.0,0.0,0.0,0.0,0.0,0.0,0.0,0.0,0.0,0.0,0.0,0.0,0.0,-2.1964,-2.1991,-2.1991,0.0,-2.1991,-2.1991,-2.1991,-2.1991,-2.1991,-2.1991,0.0,0.0,0.0,0.0,0.0,0.0,0.0,0.0,0.0,0.0,0.0,0.0,0.0,0.0,0.0,0.0,0.0,0.0,0.0,0.0,0.0,0.0,0.0,0.0,0.0,0.0,0.0,0.0,0.0,0.0,0.0,0.0,0.0,0.0,0.0,0.0,0.0,0.0,0.0,0.0,0.0,0.0,0.0,0.0,0.0,0.0,0.0,0.0,0.0,0.0,0.0,0.0,0.0,0.0,0.0,0.0,0.0,0.0,0.0,0.0,0.0,0.0,0.0,0.0,0.0,0.0,0.0,0.0,0.0,0.0,0.0,0.0,0.0,0.0,0.0,0.0,0.0,0.0,0.0,0.0,0.0,0.0,0.0,0.0,0.0,0.0,0.0,0.0,0.0,0.0,0.0,0.0,0.0,0.0,0.0,0.0,0.0,0.0,0.0,0.0,0.0,0.0,-2.1991,-2.1991,-2.1991,-2.1991,-2.1991,-2.1991,-2.1991,-2.1991,-2.1991,0.0,0.0,0.0,0.0,0.0,0.0,0.0,0.0,0.0,0.0,0.0,0.0,0.0,0.0,0.0,0.0,0.0,0.0,0.0,0.0,0.0,0.0,0.0,0.0,0.0,0.0,0.0,0.0,0.0,0.0,0.0,0.0,0.0,0.0,0.0,0.0,0.0,0.0,0.0,0.0,0.0,0.0,0.0,0.0,0.0,0.0,0.0,0.0,0.0,0.0,0.0,0.0,0.0,0.0,0.0,0.0,0.0,0.0,0.0,0.0,0.0,0.0,0.0,0.0,0.0,0.0,0.0,0.0,0.0,0.0,0.0,0.0,0.0,0.0,0.0,0.0,0.0,0.0,0.0,0.0,0.0,0.0,0.0,0.0,0.0,0.0,0.0,0.0,0.0,0.0,0.0,0.0,0.0,0.0,0.0,0.0,0.0,0.0,0.0,0.0,0.0,0.0,0.0,-2.2579,-2.2605,-2.2605,-2.2605,-2.2605,-2.2605,-2.2605,-2.2605,-2.2605,-2.2605,0.0,0.0,0.0,0.0,0.0,0.0,0.0,0.0,0.0,0.0,0.0,0.0,0.0,0.0,0.0,0.0,0.0,0.0,0.0,0.0,0.0,0.0,0.0,0.0,0.0,0.0,0.0,0.0,0.0,0.0,0.0,0.0,0.0,0.0,0.0,0.0,0.0,0.0,0.0,0.0,0.0,0.0,0.0,0.0,0.0,0.0,0.0,0.0,0.0,0.0,0.0,0.0,0.0,0.0,0.0,0.0,0.0,0.0,0.0,0.0,0.0,0.0,0.0,0.0,0.0,0.0,0.0,0.0,0.0,0.0,0.0,0.0,0.0,0.0,0.0,0.0,0.0,0.0,0.0,0.0,0.0,0.0,0.0,0.0,0.0,0.0,0.0,0.0,0.0,0.0,0.0,0.0,0.0,0.0,0.0,0.0,0.0,0.0,0.0,0.0,0.0,0.0,-2.2846,-2.2966,-2.3046,-2.3046,-2.3153,-2.322,-2.322,-2.322,-2.322,-2.322,0.0,0.0,0.0,0.0,0.0,0.0,0.0,0.0,0.0,0.0,0.0,0.0,0.0,0.0,0.0,0.0,0.0,0.0,0.0,0.0,0.0,0.0,0.0,0.0,0.0,0.0,0.0,0.0,0.0,0.0,0.0,0.0,0.0,0.0,0.0,0.0,0.0,0.0,0.0,0.0,0.0,0.0,0.0,0.0,0.0,0.0,0.0,0.0,0.0,0.0,0.0,0.0,0.0,0.0,0.0,0.0,0.0,0.0,0.0,0.0,0.0,0.0,0.0,0.0,0.0,0.0,0.0,0.0,0.0,0.0,0.0,0.0,0.0,0.0,0.0,0.0,0.0,0.0,0.0,0.0,0.0,0.0,0.0,0.0,0.0,0.0,0.0,0.0,0.0,0.0,0.0,0.0,0.0,0.0,0.0,0.0,0.0,0.0,0.0,0.0,0.0,0.0,-2.3008,-2.3193,-2.3367,-2.3367,-2.3607,-2.3768,-2.3768,-2.3768,-2.3768,-2.3768,0.0,0.0,0.0,0.0,0.0,0.0,0.0,0.0,0.0,0.0,0.0,0.0,0.0,0.0,0.0,0.0,0.0,0.0,0.0,0.0,0.0,0.0,0.0,0.0,0.0,0.0,0.0,0.0,0.0,0.0,0.0,0.0,0.0,0.0,0.0,0.0,0.0,0.0,0.0,0.0,0.0,0.0,0.0,0.0,0.0,0.0,0.0,0.0,0.0,0.0,0.0,0.0,0.0,0.0,0.0,0.0,0.0,0.0,0.0,0.0,-1.493,-1.6344,0.0,0.0,0.0,0.0,0.0,0.0,0.0,0.0,0.0,0.0,0.0,0.0,0.0,0.0,0.0,0.0,0.0,0.0,0.0,0.0,0.0,0.0,0.0,0.0,0.0,0.0,0.0,0.0,0.0,0.0,0.0,0.0,0.0,0.0,0.0,0.0,0.0,0.0,0.0,0.0,-2.3581,-2.3634,-2.3674,-2.3674,-2.3728,-2.3768,-2.3768,-2.3768,-2.3768,-2.3768,-2.3768,0.0,0.0,0.0,0.0,0.0,0.0,0.0,0.0,0.0,0.0,0.0,0.0,0.0,0.0,0.0,0.0,0.0,0.0,0.0,0.0,0.0,0.0,0.0,0.0,0.0,0.0,0.0,0.0,0.0,0.0,0.0,0.0,0.0,0.0,0.0,0.0,0.0,0.0,0.0,0.0,0.0,0.0,0.0,0.0,0.0,0.0,0.0,0.0,0.0,0.0,0.0,0.0,0.0,0.0,0.0,0.0,0.0,0.0,0.0,-1.3006,-1.4796,0.0,0.0,0.0,0.0,0.0,0.0,0.0,0.0,0.0,0.0,0.0,0.0,0.0,0.0,0.0,0.0,0.0,0.0,0.0,0.0,0.0,0.0,0.0,0.0,0.0,0.0,0.0,0.0,0.0,0.0,0.0,0.0,0.0,0.0,0.0,0.0,0.0,0.0,0.0,0.0,-2.3768,-2.3888,-2.3981,-2.3981,-2.4102,-2.4182,-2.4182,-2.4182,-2.4182,-2.4182,-2.4182,0.0,0.0,0.0,0.0,0.0,0.0,0.0,0.0,0.0,0.0,0.0,0.0,0.0,0.0,0.0,0.0,0.0,0.0,0.0,0.0,0.0,0.0,0.0,0.0,0.0,0.0,0.0,0.0,0.0,0.0,0.0,0.0,0.0,0.0,0.0,0.0,0.0,0.0,0.0,0.0,0.0,0.0,0.0,0.0,0.0,0.0,0.0,0.0,0.0,0.0,0.0,0.0,0.0,-1.1927,-1.124,-1.124,-1.124,-1.1314,-1.1423,-1.1321,-1.2981,-1.5611,-1.4379,0.0,0.0,0.0,0.0,0.0,0.0,0.0,0.0,0.0,0.0,0.0,0.0,0.0,0.0,0.0,0.0,0.0,0.0,0.0,0.0,0.0,0.0,-2.3474,-2.3714,-2.3768,-2.3634,-2.3126,0.0,0.0,0.0,0.0,0.0,0.0,0.0,0.0,0.0,0.0,0.0,-2.3928,-2.4128,-2.4275,-2.4275,-2.4489,-2.4636,-2.4636,-2.4636,-2.4636,-2.4636,-2.4636,-2.4529,0.0,0.0,0.0,0.0,0.0,0.0,0.0,0.0,0.0,0.0,0.0,0.0,0.0,0.0,0.0,0.0,0.0,0.0,0.0,0.0,0.0,0.0,0.0,0.0,0.0,0.0,0.0,0.0,0.0,0.0,0.0,0.0,-1.1104,-1.1104,0.0,0.0,0.0,0.0,0.0,0.0,0.0,0.0,0.0,0.0,0.0,0.0,0.0,-1.1913,-1.205,-1.1846,-1.1776,-1.1909,-1.163,-1.1558,-1.1558,-1.1558,-1.1572,-1.1592,-1.1701,0.0,-1.2401,-1.3728,0.0,0.0,0.0,0.0,0.0,0.0,0.0,0.0,0.0,0.0,0.0,0.0,0.0,0.0,0.0,0.0,0.0,0.0,0.0,0.0,0.0,0.0,-2.3728,-2.3754,-2.3768,-2.3754,-2.3674,-2.3688,-2.3714,-2.3714,-2.3741,0.0,0.0,0.0,0.0,0.0,0.0,0.0,-2.4516,-2.4556,-2.4583,-2.4583,-2.4609,-2.4636,-2.4636,-2.4636,-2.4636,-2.4636,-2.4636,-2.4549,-2.4583,-2.4583,0.0,0.0,0.0,0.0,0.0,0.0,0.0,0.0,0.0,0.0,0.0,0.0,0.0,0.0,0.0,0.0,0.0,0.0,0.0,0.0,0.0,0.0,0.0,0.0,0.0,0.0,0.0,0.0,0.0,-1.1124,-1.1234,-1.1234,-1.1234,-1.1234,0.0,0.0,0.0,0.0,0.0,0.0,0.0,0.0,0.0,-1.1416,-1.1497,-1.1572,-1.164,-1.1721,-1.1803,-1.187,-1.187,-1.187,-1.187,-1.187,-1.187,-1.187,-1.1932,-1.1925,-1.1944,-1.2802,-1.547,-1.9135,0.0,0.0,0.0,0.0,-2.338,-2.338,-2.338,-2.338,-2.3394,-2.3527,0.0,0.0,0.0,0.0,0.0,0.0,0.0,-2.3808,-2.3968,-2.4008,-2.4062,-2.4222,-2.4262,-2.4262,-2.4262,-2.4262,-2.4209,0.0,-2.4142,-2.4262,-2.4262,0.0,0.0,0.0,0.0,-2.4943,-2.5104,-2.513,-2.513,-2.513,-2.513,-2.513,-2.513,-2.513,-2.513,-2.513,-2.513,-2.513,-2.513,-2.513,-2.513,0.0,0.0,0.0,0.0,0.0,0.0,0.0,0.0,0.0,0.0,0.0,0.0,0.0,0.0,0.0,0.0,0.0,0.0,0.0,0.0,0.0,0.0,0.0,0.0,0.0,0.0,0.0,0.0,-1.1253,-1.128,-1.128,-1.128,-1.128,0.0,0.0,0.0,0.0,0.0,0.0,-1.1721,-1.1735,-1.1735,-1.1735,-1.187,-1.1952,-1.1952,-1.2101,-1.2176,-1.2176,-1.2176,-1.2176,-1.2176,-1.2176,-1.2176,-1.2176,-1.2216,-1.223,-1.2299,-1.27,-1.5653,-1.9876,-1.8996,-2.0754,-2.3768,-2.3768,-2.3768,-2.3768,-2.3768,-2.3768,-2.3781,-2.3861,-2.3928,-2.3995,-2.3995,0.0,0.0,0.0,0.0,-2.4035,-2.4262,-2.4369,-2.4489,-2.4703,-2.481,-2.4863,-2.4863,-2.4863,-2.477,0.0,-2.4596,-2.477,-2.485,0.0,0.0,0.0,0.0,-2.5264,-2.5478,-2.5518,-2.5518,-2.5518,-2.5518,-2.5518,-2.5518,-2.5518,-2.5518,-2.5518,-2.5518,-2.5518,-2.5518,-2.5518,-2.5518,-2.5518,0.0,0.0,0.0,0.0,0.0,0.0,0.0,0.0,0.0,0.0,0.0,0.0,0.0,0.0,0.0,0.0,0.0,0.0,0.0,0.0,0.0,0.0,0.0,0.0,0.0,0.0,0.0,0.0,0.0,-1.1599,-1.1599,0.0,0.0,0.0,0.0,-1.1796,-1.1809,-1.1877,-1.2033,-1.204,-1.204,-1.204,-1.2189,-1.2264,-1.2264,-1.2406,-1.2481,-1.2481,-1.2481,-1.2481,-1.2481,-1.2481,-1.2481,-1.2488,-1.263,-1.2698,-1.2821,-1.4319,-1.6159,-1.8196,-2.001,-2.2001,-2.3768,-2.3768,-2.3768,-2.3768,-2.3768,-2.3768,-2.3821,-2.4088,-2.4369,-2.4596,-2.4596,-2.4596,0.0,0.0,-2.4596,-2.4596,-2.4609,-2.4823,-2.5037,-2.505,-2.5264,-2.5464,-2.5464,-2.5464,-2.5384,0.0,-2.505,-2.5144,-2.5424,0.0,-2.5478,-2.5491,-2.5491,-2.5491,-2.5504,-2.5518,-2.5518,-2.5518,-2.5518,-2.5518,-2.5518,-2.5518,-2.5518,-2.5518,-2.5518,-2.5518,-2.5518,-2.5518,-2.5518,-2.5518,-2.5518,0.0,0.0,0.0,0.0,0.0,0.0,0.0,0.0,0.0,0.0,0.0,0.0,0.0,0.0,0.0,0.0,0.0,0.0,0.0,0.0,0.0,0.0,0.0,0.0,0.0,0.0,0.0,0.0,-1.1742,-1.1755,0.0,-1.1891,-1.1904,-1.1925,-1.1979,-1.1979,-1.2047,-1.2203,-1.221,-1.225,-1.2338,-1.2494,-1.2576,-1.2576,-1.2725,-1.3497,-1.4892,-1.4892,-1.5668,-1.6979,-1.5512,-1.4892,-1.4892,-1.4956,-1.4987,-1.5208,-1.8471,-1.9451,-1.8917,-2.1121,-2.3117,-2.4877,-2.469,-2.4609,-2.4609,-2.4609,-2.4609,-2.4663,-2.4957,-2.5117,-2.5197,-2.5197,-2.5197,-2.5197,-2.5197,-2.5197,-2.5197,-2.5197,-2.5277,-2.5358,-2.5358,-2.5438,-2.5518,-2.5518,-2.5518,-2.5545,-2.5625,-2.5491,-2.5384,-2.5491,-2.5518,-2.5585,-2.5772,-2.5798,-2.5865,-2.6052,-2.6079,-2.6079,-2.6079,-2.6079,-2.6079,-2.6079,-2.6079,-2.6079,-2.6079,-2.6079,-2.6079,-2.6079,-2.6079,-2.6079,-2.6079,-2.6079,-2.5985,0.0,0.0,0.0,0.0,0.0,0.0,0.0,0.0,0.0,0.0,0.0,0.0,0.0,0.0,0.0,0.0,0.0,0.0,0.0,0.0,0.0,0.0,0.0,0.0,0.0,-1.1735,-1.1803,-1.1898,-1.1911,-1.1952,-1.2128,-1.2108,-1.2155,-1.2203,-1.2257,-1.2352,-1.2508,-1.2515,-1.2562,-1.2651,-1.28,-1.2881,-1.2881,-1.3748,-1.4942,-1.6364,-1.6364,-1.7474,-1.9541,-1.7315,-1.6764,-1.7483,-1.7483,-1.7483,-1.7723,-2.1278,-2.1839,-2.0716,-2.2746,-2.4329,-2.5491,-2.5291,-2.5224,-2.5224,-2.5224,-2.5224,-2.5251,-2.5451,-2.5518,-2.5518,-2.5518,-2.5518,-2.5518,-2.5518,-2.5518,-2.5518,-2.5518,-2.5585,-2.5665,-2.5665,-2.5732,-2.5812,-2.5812,-2.5812,-2.5865,-2.6066,-2.5865,-2.5692,-2.5785,-2.5812,-2.5879,-2.6066,-2.6106,-2.6172,-2.636,-2.6386,-2.6386,-2.6386,-2.6386,-2.6386,-2.6386,-2.6386,-2.6386,-2.6386,-2.6386,-2.6386,-2.6386,-2.6386,-2.6386,-2.6386,-2.6386,-2.6293,-2.6106,0.0,0.0,0.0,0.0,0.0,0.0,0.0,0.0,0.0,0.0,0.0,0.0,0.0,0.0,0.0,0.0,0.0,0.0,0.0,0.0,0.0,0.0,0.0,-1.1857,-1.1965,-1.206,-1.2142,-1.2149,-1.2081,-1.2081,-1.2223,-1.2366,-1.2508,-1.2651,-1.2807,-1.3043,-1.305,-1.2969,-1.2983,-1.3112,-1.3186,-1.3193,-1.5443,-1.6664,-1.6746,-1.6828,-1.7964,-2.0089,-1.781,-1.7973,-2.0008,-2.0008,-2.0008,-2.017,-2.2361,-2.3244,-2.3357,-2.4894,-2.5545,-2.5545,-2.5531,-2.5531,-2.5531,-2.5531,-2.5531,-2.5545,-2.5545,-2.5545,-2.5545,-2.5545,-2.5545,-2.5545,-2.5545,-2.5545,-2.5545,-2.5545,-2.5758,-2.605,-2.605,-2.6186,-2.6386,-2.6386,-2.6386,-2.6386,-2.64,-2.6172,-2.6066,-2.6346,-2.6386,-2.6386,-2.6386,-2.6386,0.0,-2.6386,-2.6386,-2.6386,-2.6386,-2.6386,-2.6386,-2.6386,-2.6386,-2.6386,-2.6386,-2.6386,-2.6386,-2.6386,-2.6386,-2.6386,-2.6386,-2.6386,-2.6386,-2.6386,0.0,0.0,0.0,0.0,0.0,0.0,0.0,0.0,0.0,0.0,0.0,0.0,0.0,0.0,0.0,0.0,0.0,0.0,0.0,0.0,0.0,-1.2155,-1.2176,-1.202,-1.2033,-1.2176,-1.2216,-1.2318,-1.2427,-1.2535,-1.2684,-1.2793,-1.2834,-1.2874,-1.2963,-1.3105,-1.3112,-1.3214,-1.3437,-1.3485,-1.3553,-1.3654,-1.5945,-1.7882,-1.9541,-2.12,-2.3106,-2.5188,-2.2942,-2.2284,-2.2871,-2.2871,-2.2871,-2.3036,-2.5282,-2.619,-2.6138,-2.6136,-2.6146,-2.6119,-2.5919,-2.5838,-2.5838,-2.5838,-2.5972,-2.6146,-2.6146,-2.6146,-2.6146,-2.6146,-2.6146,-2.6146,-2.6146,-2.6146,-2.6146,-2.6146,-2.6213,-2.6266,-2.6266,-2.6333,-2.6386,-2.6386,-2.6386,-2.6453,-2.6667,-2.664,-2.6547,-2.6413,-2.6386,-2.6386,-2.6386,-2.6386,-2.6386,-2.6386,-2.6386,-2.6386,-2.6386,-2.6386,-2.6386,-2.6386,-2.6386,-2.6386,-2.6386,-2.6386,-2.6386,-2.6386,-2.6386,-2.6386,-2.6386,-2.6386,-2.6386,0.0,0.0,0.0,0.0,0.0,0.0,0.0,0.0,0.0,0.0,0.0,0.0,0.0,0.0,0.0,0.0,0.0,0.0,0.0,0.0,0.0,0.0,-1.2318,-1.2372,-1.2345,-1.2338,-1.2372,-1.2467,-1.2603,-1.2732,-1.282,-1.2963,-1.3051,-1.3051,-1.3166,-1.3275,-1.3356,-1.3417,-1.3532,-1.3709,-1.3715,-1.4174,-1.5275,-1.7544,-1.98,-2.2067,-2.3407,-2.5166,-2.7186,-2.5001,-2.4494,-2.5413,-2.5413,-2.5413,-2.5495,-2.6764,-2.7268,-2.7215,0.0,0.0,0.0,0.0,-2.6132,-2.6132,-2.6132,-2.6253,-2.6386,-2.6386,-2.6386,-2.6386,-2.6386,-2.648,-2.6573,-2.6573,-2.6667,-2.676,-2.676,-2.676,-2.676,-2.676,-2.676,-2.676,-2.676,-2.676,-2.68,-2.6974,-2.7001,0.0,-2.6787,-2.676,-2.676,-2.676,-2.676,-2.676,-2.676,-2.676,-2.676,-2.676,-2.676,-2.676,-2.676,-2.676,0.0,0.0,0.0,-2.652,-2.6386,-2.6386,0.0,0.0,0.0,-2.6386,-2.6386,-2.6386,0.0,0.0,-2.6226,-2.6213,0.0,0.0,0.0,0.0,0.0,0.0,0.0,0.0,0.0,0.0,0.0,0.0,0.0,0.0,0.0,0.0,-1.2528,-1.2583,-1.2732,-1.2766,-1.2773,-1.2759,-1.2895,-1.2983,-1.2983,-1.3112,-1.3207,-1.322,-1.3478,-1.3634,-1.3654,-1.377,0.0,0.0,0.0,-1.5149,-1.7809,-1.9738,-2.1862,-2.4163,-2.4425,-2.56,-2.7468,-2.5434,-2.56,-2.7468,-2.7468,-2.7442,-2.7415,-2.7415,-2.7375,-2.7281,-2.6987,-2.6867,-2.6841,-2.6587,-2.6493,-2.6493,-2.6493,0.0,0.0,-2.6493,-2.6493,-2.6493,-2.6493,-2.6667,-2.6867,-2.6867,-2.7068,-2.7268,-2.7268,-2.7268,-2.7268,-2.7268,-2.7268,-2.7268,-2.7268,-2.7268,-2.7281,-2.7308,-2.7321,-2.7321,-2.7362,-2.7308,-2.7268,-2.7268,-2.7268,-2.7268,-2.7268,-2.7268,-2.7268,-2.7268,-2.7268,0.0,-2.7268,-2.7268,-2.7148,-2.6894,-2.6867,-2.676,-2.6493,-2.6453,-2.644,-2.644,-2.6413,-2.6386,-2.6386,-2.6386,-2.6386,-2.6386,-2.6386,-2.6386,0.0,0.0,0.0,0.0,0.0,0.0,0.0,0.0,0.0,0.0,0.0,0.0,0.0,0.0,0.0,-1.2664,-1.2684,-1.2739,-1.2895,-1.3017,-1.3044,-1.2929,-1.3044,-1.3132,-1.3132,-1.3268,-1.341,-1.3532,-1.3593,-1.3682,-1.379,-1.3824,-1.4743,-1.6755,-1.4967,-1.6206,-2.084,-2.1276,-2.2761,-2.5335,-2.7193,0.0,-2.8698,-2.8254,-2.8254,-2.8698,-2.8698,-2.8564,-2.835,-2.835,-2.8056,-2.7589,-2.7295,-2.7175,-2.7175,-2.7121,-2.7094,-2.7094,-2.7094,-2.7094,-2.7094,-2.7094,-2.7094,-2.7094,-2.7094,-2.7134,0.0,-2.7175,-2.7228,-2.7268,-2.7268,-2.7268,-2.7268,-2.7268,-2.7268,-2.7268,-2.7268,-2.7268,-2.7335,-2.7562,-2.7615,-2.7696,-2.802,-2.7575,-2.7268,-2.7268,-2.7268,-2.7268,-2.7268,-2.7268,-2.7268,-2.7268,-2.7268,-2.7268,-2.7268,-2.7268,-2.7241,-2.7188,-2.7175,-2.7161,-2.7094,-2.6867,-2.6734,-2.6734,-2.6507,-2.6386,-2.6386,-2.6386,-2.6386,-2.6386,-2.6386,-2.6386,0.0,0.0,0.0,0.0,0.0,0.0,0.0,0.0,0.0,0.0,0.0,-1.2501,-1.2501,0.0,-1.2637,-1.2718,-1.2793,-1.2895,-1.3044,-1.3125,-1.3146,-1.3078,-1.32,-1.3315,-1.3397,-1.3471,-1.358,-1.3722,-1.3804,-1.3885,-1.3953,-1.4095,-1.525,-1.7763,-1.6808,-1.8602,-2.3578,-2.3666,-2.4887,-2.7334,-2.8496,-2.9045,-2.9045,-2.9045,-2.9045,-2.9045,-2.9045,-2.8951,-2.8818,-2.8818,-2.8644,-2.835,-2.8217,-2.7789,-2.7268,-2.7268,-2.7268,-2.7268,-2.7268,-2.7268,-2.7268,-2.7268,-2.7268,-2.7268,-2.7268,-2.7362,-2.7482,-2.7482,-2.7589,-2.7792,-2.7792,-2.7792,-2.7749,-2.7896,-2.7936,-2.7976,-2.8123,-2.815,-2.819,-2.8337,-2.8364,-2.8417,-2.8564,-2.835,-2.8056,-2.7749,-2.7792,-2.7792,-2.7792,-2.7792,-2.7792,-2.7792,-2.7792,-2.7792,-2.7792,-2.7562,-2.7482,-2.7482,-2.7348,-2.7268,-2.7268,-2.7121,-2.7041,-2.7041,-2.6907,-2.6827,-2.6827,-2.6827,-2.6827,-2.6827,-2.6827,-2.6667,0.0,0.0,0.0,0.0,0.0,0.0,0.0,-1.2501,-1.2501,-1.2501,-1.2522,-1.2549,-1.2549,-1.2671,-1.2786,-1.2813,-1.2922,-1.3051,-1.32,-1.3214,-1.3227,-1.3261,-1.337,-1.3492,-1.3614,-1.3654,-1.3729,-1.3871,-1.4027,-1.4384,-1.4842,-1.5113,-1.6592,-1.9496,-1.9303,-2.1462,-2.6342,-2.589,-2.682,-2.9205,-2.9205,-2.9205,-2.9205,-2.9205,-2.9205,-2.9205,-2.9152,-2.9125,-2.9125,-2.9058,-2.9045,-2.9045,-2.9045,-2.8457,-2.7615,-2.7615,-2.7615,-2.7615,-2.7615,-2.7615,-2.7615,-2.7615,-2.7615,-2.7615,-2.7615,-2.7776,-2.7963,-2.7963,-2.8136,-2.8323,-2.8323,-2.8323,-2.8377,-2.8631,-2.8684,-2.8751,-2.8991,-2.9045,-2.9045,-2.9045,-2.9045,-2.9045,-2.9045,-2.9045,-2.8871,-2.839,-2.8323,-2.8323,-2.8323,-2.8323,-2.8323,-2.8323,-2.8323,-2.8323,-2.8323,-2.8096,-2.7963,-2.7963,-2.7682,-2.7522,-2.7522,-2.7415,-2.7348,-2.7348,-2.7295,-2.7268,-2.7268,-2.7268,-2.7268,-2.7268,-2.7268,-2.7014,-1.1775,-1.2006,-1.2223,-1.2257,-1.2372,-1.2481,0.0,-1.2501,-1.2501,-1.2501,-1.261,-1.2705,-1.2705,-1.2834,-1.2976,-1.3105,-1.3139,-1.32,-1.3356,-1.3376,-1.3424,-1.3559,-1.3593,-1.3607,-1.3627,-1.3743,-1.3878,-1.4034,-1.419,-1.5285,-1.7612,-1.7909,-2.0064,-2.4615,-2.2757,-2.4041,-2.8978,-2.6977,-2.7278,-2.982,-2.982,-2.982,-2.982,-2.982,-2.982,-2.9806,-2.9553,-2.9432,-2.9419,-2.9152,-2.9045,-2.9045,-2.9045,-2.8965,-2.8845,-2.8845,-2.8845,-2.8845,-2.8845,-2.8845,-2.8845,-2.8845,-2.8845,-2.8845,-2.8845,-2.8858,-2.8885,-2.8885,-2.8911,-2.8938,-2.8938,-2.8938,-2.8951,-2.8978,-2.8991,-2.9005,-2.9032,-2.9045,-2.9045,-2.9045,-2.9045,-2.9045,-2.9045,-2.9045,-2.9018,-2.8951,-2.8938,-2.8938,-2.8938,-2.8938,-2.8938,-2.8938,-2.8938,-2.8938,-2.8938,-2.8911,-2.8885,-2.8885,-2.8617,-2.8457,-2.8457,-2.7936,-2.7655,-2.7655,-2.7402,-2.7268,-2.7268,-2.7268,-2.7268,-2.7268,-2.7268,-2.7228,-1.1925,-1.2121,-1.2291,-1.2291,-1.2393,-1.2501,-1.2501,-1.2569,-1.2637,-1.2637,-1.2759,-1.2868,-1.2868,-1.2983,-1.3105,-1.3166,-1.3247,-1.3329,-1.339,-1.3478,-1.3559,-1.362,-1.3783,-1.3885,-1.3885,-1.513,-1.6129,-1.6481,-1.7794,-1.9149,-2.0406,-2.0615,-2.226,-2.5677,-2.4924,-2.6139,-2.9726,-2.8718,-2.8783,-2.9913,-2.9913,-2.9913,-2.9913,-2.9913,-2.9913,-2.9913,-2.978,-2.974,-2.9726,-2.9606,-2.9553,-2.9553,-2.9553,-2.9553,-2.9513,-2.9165,-2.9045,-2.9045,-2.9045,-2.9045,-2.9045,-2.9045,-2.9045,-2.9045,-2.9045,-2.9045,-2.9045,-2.9045,-2.9045,-2.9045,-2.9045,-2.9045,-2.9085,-2.9259,-2.9299,-2.9339,-2.9513,-2.9553,-2.9553,-2.9553,-2.9553,-2.9553,-2.9553,-2.9553,-2.9553,-2.9553,-2.9259,-2.9045,-2.9045,-2.9045,-2.9045,-2.9045,-2.9045,-2.9045,-2.9045,-2.9045,-2.9045,-2.9045,-2.8925,-2.8858,-2.8858,-2.8617,-2.8404,-2.823,-2.811,-2.7949,-2.7859,-2.7859,-2.7859,-2.7859,-2.7859,-2.7859,-1.2081,-1.2237,-1.2345,-1.2345,-1.2909,-1.3479,-1.3479,-1.361,-1.3648,-1.3648,-1.3307,-1.3097,-1.3097,-1.3619,-1.4119,-1.4119,-1.4257,-1.4365,-1.4365,-1.4503,-1.4619,-1.467,-1.5466,-1.6073,-1.6166,-1.6522,-1.7405,-1.907,-2.0163,-2.1541,-2.313,-2.3274,-2.4496,-2.7035,-2.714,-2.8076,-2.9913,-2.9993,-3.0034,-3.0034,-3.0127,-3.0154,-3.0154,-3.0154,-3.0154,-3.0154,-3.0154,-3.0154,-3.0154,-3.0154,-3.0154,-3.0154,-3.0154,-3.0154,-3.01,-2.9673,-2.9419,-2.9285,-2.9285,-2.9285,-2.9285,-2.9285,-2.9285,-2.9285,-2.9285,-2.9285,-2.9285,-2.9285,-2.9285,-2.9285,-2.9285,-2.9285,-2.9339,-2.9553,-2.9606,-2.9659,-2.9873,-2.9913,-2.9913,-2.9913,-2.998,-3.0034,-3.0034,-3.01,-3.0154,-3.0154,-2.9793,-2.9459,-2.9299,-2.9285,-2.9285,-2.9285,-2.9285,-2.9285,-2.9285,-2.9285,-2.9285,-2.9285,-2.9205,-2.9165,-2.9165,-2.9085,-2.8938,-2.8724,-2.8724,-2.8617,-2.839,-2.839,-2.839,-2.839,-2.839,-2.839,-1.2244,-1.2386,-1.2494,-1.2494,-1.4222,-1.5888,-1.5888,-1.6032,-1.6089,-1.6089,-1.4574,-1.3166,-1.3166,-1.4988,-1.6475,-1.6475,-1.6634,-1.676,-1.676,-1.7003,-1.7264,-1.7365,-1.9438,-2.0974,-2.1407,-1.7315,-1.653,-2.1204,-1.9806,-2.0752,-2.564,-2.5987,-2.7226,-2.9721,-2.9824,-2.9824,-2.9913,-3.0207,-3.0341,-3.0354,-3.0635,-3.0768,-3.0768,-3.0768,-3.0768,-3.0768,-3.0768,-3.0768,-3.0768,-3.0768,-3.0768,-3.0768,-3.0768,-3.0768,-3.0768,-3.0742,-3.0381,-2.9887,-2.9887,-2.9887,-2.9887,-2.9887,-2.9887,-2.9887,-2.9887,-2.9887,-2.9887,-2.9887,-2.9887,-2.9887,-2.9887,-2.9887,-2.9887,-2.99,-2.99,-2.99,-2.9913,-2.9913,-2.9913,-2.9913,-3.0154,-3.0341,-3.0341,-3.0581,-3.0768,-3.0768,-3.0755,-3.0528,-2.9967,-2.9887,-2.9887,-2.9887,-2.9887,-2.9887,-2.9887,-2.9887,-2.9887,-2.9887,-2.9633,-2.9472,-2.9472,-2.9192,-2.9032,-2.9032,-2.9032,-2.9018,-2.9005,-2.9005,-2.9005,-2.9005,-2.9005,-2.9005,-1.4425,-1.4436,-1.4883,-1.6454,-1.6311,-1.632,-1.792,-1.725,-1.6364,-1.6364,-1.5869,-1.5428,-1.5428,-1.4908,-1.5471,-1.854,-1.7962,-1.7636,-1.9266,-1.9635,-1.9788,-1.9856,-2.0806,-2.2078,-2.3816,-2.2518,-2.2381,-2.4385,-2.538,-2.6641,-2.8463,-2.8668,-2.9079,-2.9824,-3.0114,-3.0207,-3.0207,-3.0501,-3.0648,-3.0648,-3.0742,-3.0795,-3.0795,-3.0795,-3.0795,-3.0795,-3.0795,-3.0795,-3.0795,-3.0795,-3.0795,-3.0795,-3.0795,-3.0795,-3.0795,-3.0795,-3.0675,-3.0501,-3.0501,-3.0368,-3.0207,-3.0207,-3.0074,-2.9913,-2.9913,-2.9913,-2.9913,-2.9913,-3.006,-3.0207,-3.0207,-3.0354,-3.0501,-3.0501,-3.0501,-3.0501,-3.0501,-3.0501,-3.0501,-3.0501,-3.0581,-3.0648,-3.0648,-3.0728,-3.0795,-3.0795,-3.0795,-3.0715,-3.0528,-3.0501,-3.0501,-3.0501,-3.0327,-3.0207,-3.0207,-3.0034,-2.9913,-2.9913,-2.982,-2.9766,-2.9766,-2.9673,-2.9526,-2.9339,-2.9339,-2.9232,-2.9045,-2.9045,-2.9045,-2.9045,-2.9045,-2.9045,-1.6703,-1.6784,-1.7137,-1.8725,-1.8767,-1.871,-2.033,-1.9125,-1.7844,-1.865,-1.762,-1.6811,-1.7629,-1.7363,-1.8019,-2.1032,-2.0445,-2.0179,-2.1757,-2.2234,-2.2321,-2.2492,-2.3464,-2.4789,-2.6486,-2.6685,-2.6821,-2.7179,-2.794,-2.8808,-2.981,-2.9913,-2.9967,-3.0074,-3.0261,-3.0408,-3.0515,-3.0808,-3.0996,-3.1102,-3.1102,-3.1102,-3.1102,-3.1102,-3.1102,-3.1102,-3.1102,-3.1102,-3.1102,-3.1102,-3.1102,-3.1102,-3.1102,-3.1102,-3.1102,-3.1102,-3.1102,-3.1076,-3.0862,-3.0675,-3.0515,-3.0515,-3.0381,-3.0234,-3.0234,-3.0234,-3.0234,-3.0234,-3.0368,-3.0515,-3.0515,-3.0648,-3.0795,-3.0795,-3.0795,-3.0795,-3.0795,-3.0795,-3.0795,-3.0795,-3.0875,-3.0942,-3.0942,-3.1036,-3.1102,-3.1102,-3.1102,-3.1036,-3.0822,-3.0795,-3.0795,-3.0795,-3.0621,-3.0515,-3.0515,-3.0341,-3.0181,-3.0087,-3.0074,-3.002,-2.9913,-2.9913,-2.9833,-2.9646,-2.9633,-2.9539,-2.9352,-2.9352,-2.9352,-2.9352,-2.9352,-2.9352,-1.9014,-1.9137,-1.9275,-1.9657,-2.1301,-2.291,-2.3079,-2.1519,-2.0635,-2.2659,-1.9816,-1.7538,-1.9664,-2.1882,-2.3528,-2.3714,-2.4057,-2.4219,-2.4399,-2.472,-2.4968,-2.5216,-2.7302,-2.8871,-2.9432,-2.9499,-2.9499,-2.9499,-2.7553,-2.7431,-2.985,-2.994,-3.0074,-3.0381,-3.0394,-3.0541,-3.0808,-3.1102,-3.1383,-3.1664,-3.1664,-3.1664,-3.1664,-3.1664,-3.1664,-3.1664,-3.1664,-3.1664,-3.1664,-3.1664,-3.1664,-3.1664,-3.1664,-3.1664,-3.1664,-3.1664,-3.1664,-3.1583,-3.1036,-3.0822,-3.0808,-3.0808,-3.0808,-3.0795,-3.0795,-3.0795,-3.0795,-3.0795,-3.0808,-3.0808,-3.0808,-3.0822,-3.0835,-3.0835,-3.0835,-3.0835,-3.0835,-3.0835,-3.0835,-3.0835,-3.1062,-3.1249,-3.1249,-3.1476,-3.1664,-3.1664,-3.1664,-3.1463,-3.0915,-3.0835,-3.0835,-3.0835,-3.0822,-3.0808,-3.0808,-3.0795,-3.0675,-3.0394,-3.0381,-3.0261,-2.9967,-2.994,-2.994,-2.994,-2.9927,-2.9913,-2.9913,-2.9913,-2.9913,-2.9913,-2.9913,-2.9824,-2.117,-2.1417,-2.202,-2.386,-2.3502,-2.3206,-2.5097,-2.3823,-2.2419,-2.298,-2.2247,-2.1592,-2.2166,-2.1638,-2.2266,-2.5778,-2.5268,-2.5047,-2.6883,-2.7421,-2.7641,-2.7719,-2.863,-2.9325,-2.9472,-2.9673,-2.9806,-2.9806,-2.9322,-2.9363,-3.0234,-3.0247,-3.0381,-3.0675,-3.0889,-3.1036,-3.1116,-3.141,-3.1597,-3.1664,-3.1664,-3.1664,-3.1664,-3.1664,-3.1664,-3.1664,-3.1664,-3.1664,-3.1664,-3.1664,-3.1664,-3.1664,-3.1664,-3.1664,-3.1664,-3.1664,-3.1664,-3.165,-3.1503,-3.1303,-3.1116,-3.1116,-3.0969,-3.0795,-3.0795,-3.0795,-3.0795,-3.0795,-3.0942,-3.1116,-3.1116,-3.1276,-3.145,-3.145,-3.145,-3.145,-3.145,-3.145,-3.145,-3.145,-3.1503,-3.1557,-3.1557,-3.1623,-3.1664,-3.1664,-3.1664,-3.161,-3.1463,-3.145,-3.145,-3.145,-3.1249,-3.1116,-3.1116,-3.0915,-3.0755,-3.0688,-3.0675,-3.0648,-3.0568,-3.0368,-3.0247,-3.0247,-3.0034,-2.9913,-2.9913,-2.9913,-2.9913,-2.9913,-2.9913,-2.8899,-2.3516,-2.3753,-2.4351,-2.5831,-2.5256,-2.4651,-2.6109,-2.4681,-2.338,-2.435,-2.3792,-2.3416,-2.4511,-2.4016,-2.4279,-2.7073,-2.6684,-2.6618,-2.8127,-2.8497,-2.8698,-2.8965,-2.9285,-2.9539,-2.9659,-2.982,-2.9967,-3.01,-3.0114,-3.0181,-3.0354,-3.0474,-3.0688,-3.0969,-3.1142,-3.1289,-3.1423,-3.1583,-3.1664,-3.1664,-3.1664,-3.1664,-3.1664,-3.1664,-3.1664,-3.1664,-3.1664,-3.1664,-3.1664,-3.1664,-3.1664,-3.1664,-3.1664,-3.1664,-3.1664,-3.1664,-3.1664,-3.1664,-3.1664,-3.1557,-3.1423,-3.1423,-3.1316,-3.1169,-3.1169,-3.1169,-3.1169,-3.1169,-3.1289,-3.1423,-3.1423,-3.1543,-3.1664,-3.1664,-3.1664,-3.1664,-3.1664,-3.1664,-3.1664,-3.1664,-3.1664,-3.1664,-3.1664,-3.1664,-3.1664,-3.1664,-3.1664,-3.1664,-3.1664,-3.1664,-3.1664,-3.1664,-3.1517,-3.1423,-3.1423,-3.1276,-3.1116,-3.0996,-3.0982,-3.0929,-3.0795,-3.0635,-3.0555,-3.0555,-3.0381,-3.0301,-3.0301,-3.0301,-3.0301,-3.0301,-3.0301,-2.8896,-2.5491,-2.5785,-2.6079,-2.6333,-2.6386,-2.6386,-2.6386,-2.492,-2.4111,-2.5977,-2.484,-2.4197,-2.6439,-2.7068,-2.7362,-2.7655,-2.7976,-2.8297,-2.8564,-2.8671,-2.8911,-2.9419,-2.9513,-2.9659,-2.994,-2.998,-3.01,-3.0394,-3.0448,-3.0474,-3.0474,-3.0715,-3.0982,-3.1276,-3.1289,-3.141,-3.1664,-3.1664,-3.1664,-3.1664,-3.1664,-3.1664,-3.1664,-3.1664,-3.1664,-3.1664,-3.1664,-3.1664,-3.1664,-3.1664,-3.1664,-3.1664,-3.1664,-3.1664,-3.1664,-3.1664,-3.1664,-3.1664,-3.1664,-3.1664,-3.1664,-3.1664,-3.1664,-3.1664,-3.1664,-3.1664,-3.1664,-3.1664,-3.1664,-3.1664,-3.1664,-3.1664,-3.1664,-3.1664,-3.1664,-3.1664,-3.1664,-3.1664,-3.1664,-3.1664,-3.1664,-3.1664,-3.1664,-3.1664,-3.1664,-3.1664,-3.1664,-3.1664,-3.1664,-3.1664,-3.1664,-3.1664,-3.1664,-3.1664,-3.1664,-3.1664,-3.1557,-3.1303,-3.1289,-3.1169,-3.0915,-3.0875,-3.0849,-3.0849,-3.0808,-3.0795,-3.0795,-3.0795,-3.0597,-3.0307,-3.0307,-2.8694,-2.5798,-2.6092,-2.6333,-2.6373,-2.6386,-2.6386,-2.6386,-2.607,-2.5898,-2.6307,-2.6056,-2.6069,-2.668,-2.7068,-2.7362,-2.7655,-2.8163,-2.8551,-2.8604,-2.9032,-2.9366,-2.9472,-2.97,-2.9953,-3.0247,-3.0287,-3.0408,-3.0702,-3.0942,-3.1076,-3.1076,-3.1129,-3.1289,-3.1583,-3.1597,-3.1623,-3.1664,-3.1664,-3.1664,-3.1664,-3.1664,-3.1664,-3.1664,-3.1664,-3.1664,-3.1664,-3.1664,-3.1664,-3.1664,-3.1664,-3.1664,-3.1664,-3.1664,-3.1664,-3.1664,-3.1664,-3.1664,-3.1664,-3.1664,-3.1664,-3.1664,-3.1664,-3.1664,-3.1664,-3.1664,-3.1664,-3.1664,-3.1664,-3.1664,-3.1664,-3.1664,-3.1664,-3.1664,-3.1664,-3.1664,-3.1664,-3.1664,-3.1664,-3.1664,-3.1664,-3.1664,-3.1664,-3.1664,-3.1664,-3.1664,-3.1664,-3.1664,-3.1664,-3.1664,-3.1664,-3.1664,-3.1664,-3.1664,-3.1664,-3.1664,-3.1664,-3.165,-3.1597,-3.1597,-3.157,-3.1517,-3.1289,-3.1156,-3.1156,-3.0915,-3.0795,-3.0795,-3.0795,-2.9646,-2.7553,-2.7553,-2.5097,-2.5879,-2.6172,-2.6386,-2.6386,-2.6386,-2.6386,-2.6386,-2.6386,-2.6386,-2.6386,-2.6507,-2.6707,-2.7001,-2.7295,-2.7589,-2.7883,-2.831,-2.8657,-2.8818,-2.9205,-2.9539,-2.9686,-2.9967,-3.0207,-3.0341,-3.0501,-3.0702,-3.0996,-3.1142,-3.1223,-3.1223,-3.137,-3.1517,-3.1664,-3.1664,-3.1664,-3.1664,-3.1664,-3.1664,-3.1664,-3.1664,-3.1664,-3.1664,-3.1664,-3.1664,-3.1664,-3.1664,-3.1664,-3.1664,-3.1664,-3.1664,-3.1664,-3.1664,-3.1664,-3.1664,-3.1664,-3.1664,-3.1664,-3.1664,-3.1664,-3.1664,-3.1664,-3.1664,-3.1664,-3.1664,-3.1664,-3.1664,-3.1664,-3.1664,-3.1664,-3.1664,-3.1664,-3.1664,-3.1664,-3.1664,-3.1664,-3.1664,-3.1664,-3.1664,-3.1664,-3.1664,-3.1664,-3.1664,-3.1664,-3.1664,-3.1664,-3.1664,-3.1664,-3.1664,-3.1664,-3.1664,-3.1664,-3.1664,-3.1664,-3.1664,-3.1664,-3.1664,-3.1664,-3.0401,-2.9625,-2.9625,-2.8236,-2.8069,-2.9425,-2.93,-2.9909,-3.1249,-2.9896,-2.8552,-2.7298,-2.5956,-2.3269,-2.5879,-2.6172,-2.6386,-2.6386,-2.6386,-2.6386,-2.6386,-2.6386,-2.6386,-2.6386,-2.6613,-2.6907,-2.7215,-2.7509,-2.7816,-2.819,-2.8497,-2.8804,-2.9098,-2.9392,-2.9659,-2.9887,-3.0181,-3.0381,-3.0448,-3.0715,-3.1009,-3.1303,-3.1316,-3.1316,-3.1316,-3.1543,-3.1664,-3.1664,-3.1664,-3.1664,-3.1664,-3.1664,-3.1664,-3.1664,-3.1664,-3.1664,-3.1664,-3.1664,-3.1664,-3.1664,-3.1664,-3.1664,-3.1664,-3.1664,-3.1664,-3.1664,-3.1664,-3.1664,-3.1664,-3.1664,-3.1664,-3.1664,-3.1664,-3.1664,-3.1664,-3.1664,-3.1664,-3.1664,-3.1664,-3.1664,-3.1664,-3.1664,-3.1664,-3.1664,-3.1664,-3.1664,-3.1664,-3.1664,-3.1664,-3.1664,-3.1664,-3.1664,-3.1664,-3.1664,-3.1664,-3.1664,-3.1664,-3.1664,-3.1664,-3.1664,-3.1664,-3.1664,-3.1664,-3.1664,-3.1664,-3.1664,-3.1664,-3.1664,-3.1664,-3.1664,-3.1664,-3.1664,-2.923,-2.778,-2.778,-2.5335,-2.4851,-2.6902,-2.6999,-2.7972,-3.0007,-2.7972,-2.671,-2.6119,-2.3977,-2.1637,-2.5879,-2.6172,-2.6386,-2.6386,-2.6386,-2.6386,-2.6386,-2.6386,-2.6386,-2.6386,-2.6613,-2.6907,-2.7215,-2.7509,-2.7883,-2.847,-2.8804,-2.9098,-2.9406,-2.9686,-2.9887,-2.9913,-3.0181,-3.0461,-3.0728,-3.1022,-3.1303,-3.161,-3.1623,-3.1623,-3.1623,-3.165,-3.1664,-3.1664,-3.1664,-3.1664,-3.1664,-3.1664,-3.1664,-3.1664,-3.1664,-3.1664,-3.1664,-3.1664,-3.1664,-3.1664,-3.1664,-3.1664,-3.1664,-3.1664,-3.1664,-3.1664,-3.1664,-3.1664,-3.1664,-3.1664,-3.1664,-3.1664,-3.1664,-3.1664,-3.1664,-3.1664,-3.1664,-3.1664,-3.1664,-3.1664,-3.1664,-3.1664,-3.1664,-3.1664,-3.1664,-3.1664,-3.1664,-3.1664,-3.1664,-3.1664,-3.1664,-3.1664,-3.1664,-3.1664,-3.1664,-3.1664,-3.1664,-3.1664,-3.1664,-3.1664,-3.1664,-3.1664,-3.1664,-3.1664,-3.1664,-3.1664,-3.1664,-3.1664,-3.1664,-3.1664,-3.1664,-3.1664,-2.923,-2.778,-2.778,-2.5335,-2.3977,-2.4269,-2.4269,-2.4366,-2.4657,-2.4366,-2.2994,-2.0755,-2.0461,-1.901,-2.5555,-2.6172,-2.6386,-2.6386,-2.6386,-2.6386,-2.6386,-2.6386,-2.6386,-2.6386,-2.676,-2.7121,-2.7241,-2.7642,-2.811,-2.8537,-2.8858,-2.9138,-2.9446,-2.9726,-2.9913,-2.9913,-3.0327,-3.0662,-3.0782,-3.1223,-3.1543,-3.1664,-3.1664,-3.1664,-3.1664,-3.1664,-3.1664,-3.1664,-3.1664,-3.1664,-3.1664,-3.1664,-3.1664,-3.1664,-3.1664,-3.1664,-3.1664,-3.1664,-3.1664,-3.1664,-3.1664,-3.1664,-3.1664,-3.1664,-3.1664,-3.1664,-3.1664,-3.1664,-3.1664,-3.1664,-3.1664,-3.1664,-3.1664,-3.1664,-3.1664,-3.1664,-3.1664,-3.1664,-3.1664,-3.1664,-3.1664,-3.1664,-3.1664,-3.1664,-3.1664,-3.1664,-3.1664,-3.1664,-3.1664,-3.1664,-3.1664,-3.1664,-3.1664,-3.1664,-3.1664,-3.1664,-3.1664,-3.1664,-3.1664,-3.1664,-3.1664,-3.1664,-3.1664,-3.1664,-3.1664,-3.1664,-3.1664,-3.1664,-3.1664,-3.1664,-3.0985,-2.9434,-2.6902,-2.4754,-2.3199,-2.0568,-1.9987,-2.1539,-2.1539,-2.2312,-2.388,-2.2321,-2.1049,-1.9978,-1.8426,-1.7055,-2.4494,-2.5623,-2.6228,-2.5581,-2.5898,-2.6386,-2.6386,-2.6386,-2.6386,-2.6386,-2.6854,-2.7268,-2.7268,-2.7832,-2.827,-2.8671,-2.8911,-2.9165,-2.9553,-2.978,-2.9953,-3.0034,-3.0488,-3.0822,-3.0915,-3.137,-3.1664,-3.1664,-3.1664,-3.1664,-3.1664,-3.1664,-3.1664,-3.1664,-3.1664,-3.1664,-3.1664,-3.1664,-3.1664,-3.1664,-3.1664,-3.1664,-3.1664,-3.1664,-3.1664,-3.1664,-3.1664,-3.1664,-3.1664,-3.1664,-3.1664,-3.1664,-3.1664,-3.1664,-3.1664,-3.1664,-3.1664,-3.1664,-3.1664,-3.1664,-3.1664,-3.1664,-3.1664,-3.1664,-3.1664,-3.1664,-3.1664,-3.1664,-3.1664,-3.1664,-3.1664,-3.1664,-3.1664,-3.1664,-3.1664,-3.1664,-3.1664,-3.1664,-3.1664,-3.1664,-3.1664,-3.1664,-3.1664,-3.1664,-3.1664,-3.1664,-3.1664,-3.1664,-3.1664,-3.1664,-3.1664,-3.1664,-3.1664,-3.1664,-3.1664,-3.0985,-2.9721,-2.7876,-2.4657,-2.193,-2.0077,-1.7444,-1.6963,-1.8813,-1.8813,-1.979,-2.1539,-1.979,-1.8813,-1.8813,-1.6963,-1.6083,-2.2377,-2.4346,-2.5898,-2.3712,-2.4761,-2.6386,-2.6386,-2.6386,-2.6386,-2.6386,-2.6854,-2.7268,-2.7268,-2.7832,-2.8337,-2.8938,-2.9032,-2.9245,-2.9833,-2.9913,-3.002,-3.0314,-3.0621,-3.0902,-3.1196,-3.149,-3.1664,-3.1664,-3.1664,-3.1664,-3.1664,-3.1664,-3.1664,-3.1664,-3.1664,-3.1664,-3.1664,-3.1664,-3.1664,-3.1664,-3.1664,-3.1664,-3.1664,-3.1664,-3.1664,-3.1664,-3.1664,-3.1664,-3.1664,-3.1664,-3.1664,-3.1664,-3.1664,-3.1664,-3.1664,-3.1664,-3.1664,-3.1664,-3.1664,-3.1664,-3.1664,-3.1664,-3.1664,-3.1664,-3.1664,-3.1664,-3.1664,-3.1664,-3.1664,-3.1664,-3.1664,-3.1664,-3.1664,-3.1664,-3.1664,-3.1664,-3.1664,-3.1664,-3.1664,-3.1664,-3.1664,-3.1664,-3.1664,-3.1664,-3.1664,-3.1664,-3.1664,-3.1664,-3.1664,-3.1664,-3.1664,-3.1664,-3.1664,-3.1664,-3.1664,-2.9338,-2.7876,-2.778,-2.2897,-2.0077,-1.9978,-1.7444,-1.6083,-1.6182,-1.6182,-1.6182,-1.6182,-1.6182,-1.6182,-1.6182,-1.6083,-1.6083,-2.0135,-2.3092,-2.5662,-2.3584,-2.3632,-2.4522,-2.6056,-2.5251,-2.4602,-2.607,-2.6694,-2.7028,-2.7228,-2.7575,-2.8096,-2.8911,-2.9045,-2.9245,-2.9833,-2.9913,-3.002,-3.0327,-3.0795,-3.1209,-3.1503,-3.161,-3.1664,-3.1664,-3.1664,-3.1664,-3.1664,-3.1664,-3.1664,-3.1664,-3.1664,-3.1664,-3.1664,-3.1664,-3.1664,-3.1664,-3.1664,-3.1664,-3.1664,-3.1664,-3.1664,-3.1664,-3.1664,-3.1664,-3.1664,-3.1664,-3.1664,-3.1664,-3.1664,-3.1664,-3.1664,-3.1664,-3.0592,-2.9039,-2.9039,-2.7864,-2.6698,-2.8452,-2.9039,-2.9338,-3.1175,-3.1664,-3.1664,-3.1664,-3.1664,-3.1664,-3.1664,-3.1664,-3.1664,-3.1664,-3.1664,-3.1664,-3.1664,-3.1664,-3.1664,-3.1664,-3.1664,-3.1664,-3.1664,-3.1664,-3.1664,-3.1664,-3.1664,-3.1664,-3.1664,-3.1664,-3.1664,-3.1664,-3.1664,-3.1664,-3.1664,-2.9338,-2.6999,-2.5238,-2.193,-1.9199,-1.7452,-1.6573,-1.6083,-1.6083,-1.6083,-1.6083,-1.6083,-1.6083,-1.6083,-1.6083,-1.6083,-1.6083,-1.7977,-2.0741,-2.3139,-2.1136,-2.127,-2.2247,-2.3632,-2.354,-2.346,-2.484,-2.5388,-2.5924,-2.712,-2.6822,-2.7052,-2.8711,-2.9045,-2.9245,-2.9833,-2.9913,-3.006,-3.0474,-3.0184,-3.0398,-3.1555,-3.0795,-3.0604,-3.1664,-3.1664,-3.1664,-3.1664,-3.1664,-3.1664,-3.1664,-3.1664,-3.1664,-3.1664,-3.1664,-3.1664,-3.1664,-3.1664,-3.1664,-3.1664,-3.1664,-3.1664,-3.1664,-3.1664,-3.1664,0.0,-3.1664,-3.1664,-3.1664,-3.1664,-3.108,-3.021,-3.021,-2.8548,-2.6312,-2.6312,-2.5926,-2.5443,-2.6119,-2.6999,-2.826,-3.089,-3.1664,-3.1664,-3.1664,-3.1664,-3.1664,-3.1664,-3.1664,-3.1664,-3.1664,-3.1664,-3.1664,-3.1664,-3.1664,-3.1664,-3.1664,-3.1664,-3.1664,-3.1664,-3.1664,-3.1664,-3.1664,-3.1664,-3.1664,-3.1664,-3.1664,-3.1664,-3.1664,-3.0795,-3.021,-3.021,-2.7864,-2.5238,-2.2604,-1.9978,-1.784,-1.6182,-1.6083,-1.6083,-1.6083,-1.6083,-1.6083,-1.6083,-1.6083,-1.6083,-1.6083,-1.6083,-1.6083,0.0,-1.7649,-1.9194,-1.7069,-1.81,-1.9745,-1.9826,-2.1281,0.0,-2.306,-2.3259,-2.4181,-2.6793,-2.572,-2.541,-2.8265,-2.8857,-2.907,-2.9373,-2.9581,-3.0,-3.0728,-2.9004,-2.8847,-3.1474,-2.9338,-2.8847,-3.1474,-3.1664,-3.1664,-3.1664,-3.1664,-3.1664,-3.1664,-3.1664,-3.1664,-3.1664,-3.1664,-3.1664,-3.1664,-3.1664,-3.1664,-3.1664,-3.1664,-3.1664,-3.1664,-3.1664,-3.1664,-3.1664,-3.1664,-3.1664,-3.1664,-3.1664,-3.0115,-2.778,-2.778,-2.6023,-2.3578,-2.3578,-2.5045,-2.6613,-2.456,-2.5636,-2.826,-3.089,-3.1664,-3.1664,-3.1664,-3.1664,-3.1664,-3.1664,-3.1664,-3.1664,-3.1664,-3.1664,-3.1664,-3.1664,-3.1664,-3.1664,-3.1664,-3.1664,-3.1664,-3.1664,-3.1664,-3.1664,-3.1664,-3.1664,-3.1664,-3.1664,-3.1664,-3.1664,-3.1664,-2.9338,-2.7684,-2.7588,-2.5141,-2.2614,-2.0175,-1.7543,-1.6083,-1.6083,-1.6083,-1.6083,-1.6083,-1.6083,-1.6083,-1.6083,-1.6083,-1.6083,-1.6083,-1.6083,-1.6083,-1.3576,0.0,-1.8897,-1.6958,-1.6953,-1.7783,0.0,-1.9004,-1.9076,-2.2407,-2.1952,-2.2195,-2.6535,-2.565,-2.472,-2.6037,-2.7785,-2.7888,-2.4696,-2.6294,-2.8464,-3.0584,-2.9004,-2.8847,-3.1474,-2.9338,-2.8847,-3.1474,-3.1664,-3.1664,-3.1664,-3.1664,-3.1664,-3.1664,-3.1664,-3.1664,-3.1664,-3.1664,-3.1664,-3.1664,-3.1664,-3.1664,-3.1664,-3.1664,-3.1664,-3.1664,-3.1664,-3.1664,-3.1664,-3.1664,-3.1664,-3.1664,-3.1664,-3.0115,-2.778,-2.778,-2.4851,-2.0951,-2.0951,-1.9987,-1.9405,-2.2809,-2.5636,-2.826,-3.089,-3.1664,-3.1664,-3.1664,-3.1664,-3.1664,-3.1664,-3.1664,-3.1664,-3.1664,-3.1664,-3.1664,-3.1664,-3.1664,-3.1664,-3.1664,-3.1664,-3.1664,-3.1664,-3.1664,-3.1664,-3.1664,-3.1664,-3.1664,-3.1664,-3.1664,-3.1664,-3.1664,-2.9338,-2.6999,-2.4948,-2.2409,-2.0657,-2.0077,-1.7543,-1.6083,-1.6083,-1.6083,-1.6083,-1.6083,-1.6083,-1.6083,-1.6083,-1.6083,-1.6083,-1.6083,-1.6083,-1.6083,-1.2793,-1.4551,-1.6174,-1.5236,-1.5041,-1.5432,-1.6656,-1.6738,-1.7538,-2.0958,-1.9997,-2.0374,-2.6208,-2.3948,-2.2054,-2.4974,-2.6533,-2.6717,-2.4514,-2.686,-2.8892,-2.909,-2.7261,-2.6999,-2.9625,-2.7576,-2.7095,-2.9721,-3.0985,-3.1664,-3.1664,-3.1664,-3.1664,-3.1664,-3.1664,-3.1664,-3.1664,-3.1664,-3.1664,-3.1664,-3.1664,-3.1664,-3.1664,-3.1664,-3.1664,-3.1664,-3.1664,-3.1664,-3.1664,-3.1664,-3.1664,-3.1664,-3.1664,-3.0115,-2.7684,-2.6409,-2.3481,-1.9782,-1.8616,-1.7253,-1.6963,-2.2223,-2.4851,-2.6505,-2.9135,-3.0795,-3.1664,-3.1664,-3.1664,-3.1664,-3.1664,-3.1664,-3.1664,-3.1664,-3.1664,-3.1664,-3.1664,-3.1664,-3.1664,-3.1664,-3.1664,-3.1664,-3.1664,-3.1664,-3.1664,-3.1664,-3.1664,-3.1664,-3.1664,-3.1664,-3.1284,-3.002,-2.7576,-2.4948,-2.2312,-1.9692,-1.8228,-1.8228,-1.6864,-1.6083,-1.6083,-1.6083,-1.6083,-1.6083,-1.6083,-1.6083,-1.6083,-1.6083,-1.6083,-1.6083,-1.6083,-1.6083,-1.2718,-1.2861,-1.3024,-1.3302,-1.3383,-1.3403,-1.3403,-1.4781,-1.6811,-1.942,-1.8064,-1.8514,-2.5457,-2.2042,-1.9519,-2.4107,-2.4717,-2.5089,-2.6533,-2.8411,-2.9132,-2.7844,-2.5395,-2.4905,-2.7576,-2.5045,-2.456,-2.7588,-2.9816,-3.1284,-3.1677,-3.1664,-3.1664,-3.1664,-3.1664,-3.1664,-3.1664,-3.1664,-3.1664,-3.1664,-3.1664,-3.1664,-3.1664,-3.1664,-3.1664,-3.1664,-3.1664,-3.1664,-3.1664,-3.1664,-3.1664,-3.1664,-3.1664,-3.0115,-2.7492,-2.5335,-2.2614,-1.9585,-1.7055,-1.6374,-1.7452,-2.2321,-2.4172,-2.4948,-2.7576,-2.9924,-3.1664,-3.1664,-3.1664,-3.1664,-3.1664,-3.1664,-3.1664,-3.1664,-3.1664,-3.1664,-3.1664,-3.1664,-3.1664,-3.1664,-3.1664,-3.1664,-3.1664,-3.1664,-3.1664,-3.1664,-3.1664,-3.1664,-3.1664,-3.1664,-3.089,-2.8656,-2.5722,-2.2994,-2.0755,-1.784,-1.6083,-1.6083,-1.6083,-1.6083,-1.6083,-1.6083,-1.6083,-1.6083,-1.6083,-1.6083,-1.6083,-1.6083,-1.6083,-1.6083,-1.6083,-1.6083,-1.2847,-1.2942,-1.3003,-1.3166,-1.3302,-1.3403,-1.3403,-1.3645,-1.5028,-1.9095,-1.6926,-1.6334,-2.3075,-2.234,-2.1072,-2.2261,-2.1025,-2.2099,-2.8424,-2.6396,-2.5727,-2.9726,-2.6201,-2.464,-2.7564,-2.3384,-2.2604,-2.748,-2.8164,-2.9338,-3.1569,-3.1664,-3.1664,-3.1664,-3.1664,-3.1664,-3.1664,-3.1664,-3.1664,-3.1664,-3.1664,-3.1664,-3.1664,-3.1664,-3.1664,-3.1664,-3.1664,-3.1664,-3.1664,-3.1664,-3.1664,-3.1664,-3.1664,-3.0115,-2.778,-2.7384,-2.4172,-1.9585,-1.7055,-1.7543,-1.988,-2.2897,-2.5432,-2.7684,-3.0306,-3.1379,-3.1664,-3.1664,-3.1664,-3.1664,-3.1664,-3.1664,-3.1664,-3.1664,-3.1664,-3.1664,-3.1664,-3.1664,-3.1664,-3.1664,-3.1664,-3.1664,-3.1664,-3.1664,-3.1664,-3.1664,-3.1664,-3.1664,-3.1664,-3.1664,-3.1569,-3.1175,-2.6795,-2.3783,-2.3384,-1.8912,-1.6083,-1.6083,-1.6083,-1.6083,-1.6083,-1.6083,-1.6083,-1.6083,-1.6083,-1.6083,-1.6083,-1.6083,-1.6083,-1.6083,-1.6083,-1.6083,-1.2901,-1.3017,-1.3112,-1.3261,-1.3349,-1.3403,-1.3403,-1.3403,-1.43,-1.7465,-1.579,-1.5523,-2.1066,-2.0577,-2.0327,-2.3412,-2.3348,-2.4021,-2.7431,-2.7378,-2.7461,-2.8669,-2.6839,-2.6141,-2.766,-2.5636,-2.5238,-2.7588,-2.9135,-3.0401,-3.1664,-3.1664,-3.1664,-3.1664,-3.1664,-3.1664,-3.1664,-3.1664,-3.1664,-3.1664,-3.1664,-3.1664,-3.1664,-3.1664,-3.1664,-3.1664,-3.1664,-3.1664,-3.1664,-3.1664,-3.1664,-3.1664,-3.1664,-3.0985,-2.9721,-2.8356,-2.5335,-2.193,-2.0764,-2.1049,-2.2321,-2.3491,-2.5636,-2.7972,-2.9243,-3.0604,-3.1664,-3.1664,-3.1664,-3.1664,-3.1664,-3.1664,-3.1664,-3.1664,-3.1664,-3.1664,-3.1664,-3.1664,-3.1664,-3.1664,-3.1664,-3.1664,-3.1664,-3.1664,-3.1664,-3.1664,-3.1664,-3.1664,-3.1664,-3.1664,-3.1175,-2.9721,-2.6216,-2.3296,-2.193,-1.8327,-1.6083,-1.6083,-1.6083,-1.6083,-1.6083,-1.6083,-1.6083,-1.6083,-1.6083,-1.6083,-1.6083,-1.6083,-1.6083,-1.6083,-1.6083,-1.6083,-1.2922,-1.3064,-1.3207,-1.3363,-1.3403,-1.3403,-1.3403,-1.3403,-1.3969,-1.6164,-1.5539,-1.5864,-1.9884,-2.0066,-2.1144,-2.5659,-2.6259,-2.6411,-2.6966,-2.8446,-2.9052,-2.8013,-2.7521,-2.7309,-2.7663,-2.7157,-2.7095,-2.778,-2.9625,-3.108,-3.1664,-3.1664,-3.1664,-3.1664,-3.1664,-3.1664,-3.1664,-3.1664,-3.1664,-3.1664,-3.1664,-3.1664,-3.1664,-3.1664,-3.1664,-3.1664,-3.1664,-3.1664,-3.1664,-3.1664,-3.1664,-3.1664,-3.1664,-3.1664,-3.1379,-2.8752,-2.6505,-2.4754,-2.4074,-2.4269,-2.4851,-2.4851,-2.6602,-2.8752,-2.8752,-3.0115,-3.1664,-3.1664,-3.1664,-3.1664,-3.1664,-3.1664,-3.1664,-3.1664,-3.1664,-3.1664,-3.1664,-3.1664,-3.1664,-3.1664,-3.1664,-3.1664,-3.1664,-3.1664,-3.1664,-3.1664,-3.1664,-3.1664,-3.1664,-3.1664,-3.089,-2.8943,-2.6409,-2.3491,-2.0265,-1.7642,-1.6083,-1.6083,-1.6083,-1.6083,-1.6083,-1.6083,-1.6083,-1.6083,-1.6083,-1.6083,-1.6083,-1.6083,-1.6083,-1.6083,-1.6083,-1.6083,-1.2922,-1.3064,-1.3207,-1.3363,-1.3403,-1.3403,-1.3403,-1.3403,-1.3969,-1.6164,-1.6868,-1.7797,-2.0135,-2.2987,-2.5858,-2.8321,-2.7343,-2.6966,-2.9272,-2.7817,-2.7372,-2.9886,-2.8279,-2.7028,-2.7298,-2.5399,-2.5141,-2.7588,-2.7972,-2.9135,-3.1569,-3.1664,-3.1664,-3.1664,-3.1664,-3.1664,-3.1664,-3.1664,-3.1664,-3.1664,-3.1664,-3.1664,-3.1664,-3.1664,-3.1664,-3.1664,-3.1664,-3.1664,-3.1664,-3.1664,-3.1664,-3.1664,-3.1664,-3.1664,-3.1379,-2.8752,-2.7684,-2.7191,-2.4754,-2.5529,-2.7492,-2.7492,-2.9338,-3.1379,-3.1379,-3.1569,-3.1664,-3.1664,-3.1664,-3.1664,-3.1664,-3.1664,-3.1664,-3.1664,-3.1664,-3.1664,-3.1664,-3.1664,-3.1664,-3.1664,-3.1664,-3.1664,-3.1664,-3.1664,-3.1664,-3.1664,-3.1664,-3.1664,-3.1664,-3.1664,-3.1664,-3.1474,-2.9039,-2.5443,-2.0461,-1.7642,-1.6083,-1.6083,-1.6083,-1.6083,-1.6083,-1.6083,-1.6083,-1.6083,-1.6083,-1.6083,-1.6083,-1.6083,-1.6083,-1.6083,-1.6083,-1.6083,-1.3051,-1.32,-1.3329,-1.339,-1.3403,-1.3403,-1.3403,-1.3403,-1.3673,-1.459,-1.6121,-1.8461,-2.2457,-2.3183,-2.4467,-2.8382,-2.8559,-2.8616,-2.9707,-2.9092,-2.9003,-3.0223,-2.9612,-2.9279,-2.9644,-2.8909,-2.895,-3.0102,-3.021,-3.0687,-3.1664,-3.1664,-3.1664,-3.1664,-3.1664,-3.1664,-3.1664,-3.1664,-3.1664,-3.1664,-3.1664,-3.1664,-3.1664,-3.1664,-3.1664,-3.1664,-3.1664,-3.1664,-3.1664,-3.1664,-3.1664,-3.1664,-3.1664,-3.1664,-3.1569,-3.0592,-3.021,-3.0102,-2.9135,-2.9421,-3.021,-3.021,-3.089,-3.1664,-3.1664,-3.1664,-3.1664,-3.1664,-3.1664,-3.1664,-3.1664,-3.1664,-3.1664,-3.1664,-3.1664,-3.1664,-3.1664,-3.1664,-3.1664,-3.1664,-3.1664,-3.1664,-3.1664,-3.1664,-3.1664,-3.1664,-3.1664,-3.1664,-3.1664,-3.1664,-3.1664,-3.1664,-2.9338,-2.6312,-2.2702,-1.9978,-1.8517,-1.8517,-1.6963,-1.6083,-1.6083,-1.6083,-1.6083,-1.6083,-1.6083,-1.6083,-1.6083,-1.6083,-1.6083,-1.6083,-1.6083,-1.6083,-1.3132,-1.3288,-1.3562,-1.421,-1.4375,-1.4623,-1.5275,-1.4383,-1.3694,-1.4503,-1.7298,-2.0861,-2.5034,-2.4718,-2.4975,-2.8456,-2.9285,-2.9579,-2.9873,-2.9913,-2.9993,-3.0194,-3.0301,-3.0515,-3.0915,-3.1116,-3.1316,-3.1517,-3.1623,-3.1664,-3.1664,-3.1664,-3.1664,-3.1664,-3.1664,-3.1664,-3.1664,-3.1664,-3.1664,-3.1664,-3.1664,-3.1664,-3.1664,-3.1664,-3.1664,-3.1664,-3.1664,-3.1664,-3.1664,-3.1664,-3.1664,-3.1664,-3.1664,-3.1664,-3.1664,-3.1664,-3.1664,-3.1664,-3.1664,-3.1664,-3.1664,-3.1664,-3.1664,-3.1664,-3.1664,-3.1664,-3.1664,-3.1664,-3.1664,-3.1664,-3.1664,-3.1664,-3.1664,-3.1664,-3.1664,-3.1664,-3.1664,-3.1664,-3.1664,-3.1664,-3.1664,-3.1664,-3.1664,-3.1664,-3.1664,-3.1664,-3.1664,-3.1664,-3.1664,-3.1664,-3.1664,-3.1664,-2.9338,-2.7095,-2.5238,-2.2702,-2.0853,-2.0077,-1.8327,-1.6963,-1.6083,-1.6083,-1.6083,-1.6083,-1.6083,-1.6083,-1.6083,-1.6083,-1.6083,-1.6083,-1.6083,-1.6083,-1.3139,-1.3363,-1.3969,-1.6082,-1.6647,-1.722,-1.942,-1.6574,-1.4178,-1.6643,-2.1087,-2.5227,-2.7746,-2.839,-2.8698,-2.8991,-2.9285,-2.9579,-2.9873,-2.9913,-2.9913,-2.9913,-3.0181,-3.0354,-3.0354,-3.0875,-3.1223,-3.1223,-3.149,-3.1664,-3.1664,-3.1664,-3.1664,-3.1664,-3.1664,-3.1664,-3.1664,-3.1664,-3.1664,-3.1664,-3.1664,-3.1664,-3.1664,-3.1664,-3.1664,-3.1664,-3.1664,-3.1664,-3.1664,-3.1664,-3.1664,-3.1664,-3.1664,-3.1664,-3.1664,-3.1664,-3.1664,-3.1664,-3.1664,-3.1664,-3.1664,-3.1664,-3.1664,-3.1664,-3.1664,-3.1664,-3.1664,-3.1664,-3.1664,-3.1664,-3.1664,-3.1664,-3.1664,-3.1664,-3.1664,-3.1664,-3.1664,-3.1664,-3.1664,-3.1664,-3.1664,-3.1664,-3.1664,-3.1664,-3.1664,-3.1664,-3.1664,-3.1664,-3.1664,-3.1664,-3.1664,-3.1664,-2.9338,-2.7876,-2.7876,-2.5432,-2.2809,-2.0175,-1.9978,-1.8813,-1.6182,-1.6083,-1.6083,-1.6083,-1.6083,-1.6083,-1.6083,-1.6083,-1.6083,-1.6083,-1.6083,-1.6083,-1.3699,-1.5647,-1.771,-1.6811,-1.7792,-1.9095,-1.9745,-1.8933,-1.8702,-2.1376,-2.2085,-2.338,-2.7435,-2.6919,-2.646,-2.8426,-2.8978,-2.9272,-2.9566,-2.978,-2.9913,-2.9913,-2.9993,-3.0127,-3.0341,-3.0515,-3.0702,-3.0902,-3.1196,-3.1356,-3.1356,-3.1557,-3.1664,-3.1664,-3.1664,-3.1664,-3.1664,-3.1664,-3.1664,-3.1664,-3.1664,-3.1664,-3.1664,-3.1664,-3.1664,-3.1664,-3.1664,-3.1664,-3.1664,-3.1664,-3.1664,-3.1664,-3.1664,-3.1664,-3.1664,-3.1664,-3.1664,-3.1664,-3.1664,-3.1664,-3.1664,-3.1664,-3.1664,-3.1664,-3.1664,-3.1664,-3.1664,-3.1664,-3.1664,-3.1664,-3.1664,-3.1664,-3.1664,-3.1664,-3.1664,-3.1664,-3.1664,-3.1664,-3.1664,-3.1664,-3.1664,-3.1664,-3.1664,-3.1664,-3.1664,-3.1664,-3.1664,-3.1664,-3.1664,-3.1664,-3.1664,-3.1664,-3.0985,-3.0496,-3.0496,-2.8164,-2.5529,-2.2897,-2.1049,-1.8813,-1.6182,-1.6083,-1.6083,-1.6083,-1.6083,-1.6083,-1.6083,-1.6083,-1.6083,-1.6083,-1.6083,-1.6083,-1.4982,-1.7229,-1.9745,-1.9329,-2.014,-2.1362,-2.2258,-2.2,-2.1976,-2.368,-2.3978,-2.485,-2.7701,-2.7012,-2.6604,-2.8294,-2.8858,-2.9138,-2.9446,-2.9726,-2.9913,-2.9913,-2.9913,-2.998,-3.0167,-3.0287,-3.0434,-3.0608,-3.0889,-3.1049,-3.1049,-3.133,-3.149,-3.149,-3.161,-3.1664,-3.1664,-3.1664,-3.1664,-3.1664,-3.1664,-3.1664,-3.1664,-3.1664,-3.1664,-3.1664,-3.1664,-3.1664,-3.1664,-3.1664,-3.1664,-3.1664,-3.1664,-3.1664,-3.1664,-3.1664,-3.1664,-3.1664,-3.1664,-3.1664,-3.1664,-3.1664,-3.1664,-3.1664,-3.1664,-3.1664,-3.1664,-3.1664,-3.1664,-3.1664,-3.1664,-3.1664,-3.1664,-3.1664,-3.1664,-3.1664,-3.1664,-3.1664,-3.1664,-3.1664,-3.1664,-3.1664,-3.1664,-3.1664,-3.1664,-3.1664,-3.1664,-3.1664,-3.1664,-3.1664,-3.1664,-3.1664,-3.1664,-3.1664,-3.1664,-3.0306,-2.7768,-2.4172,-2.2409,-1.988,-1.6275,-1.6083,-1.6083,-1.6083,-1.6083,-1.6083,-1.6083,-1.6083,-1.6083,-1.6083,-1.6083,-1.6083,-1.685,-1.8679,-2.0878,-2.2648,-2.322,-2.3952,-2.5898,-2.5256,-2.4293,-2.4317,-2.6363,-2.8221,-2.8221,-2.8221,-2.8315,-2.8524,-2.8804,-2.9098,-2.9406,-2.9686,-2.9887,-2.9913,-2.9913,-2.9913,-2.9913,-3.0167,-3.0314,-3.0314,-3.0595,-3.0755,-3.0755,-3.1022,-3.1183,-3.1183,-3.145,-3.1597,-3.1623,-3.1623,-3.1637,-3.1664,-3.1664,-3.1664,-3.1664,-3.1664,-3.1664,-3.1664,-3.1664,-3.1664,-3.1664,-3.1664,-3.1664,-3.1664,-3.1664,-3.1664,-3.1664,-3.1664,-3.1664,-3.1664,-3.1664,-3.1664,-3.1664,-3.1664,-3.1664,-3.1664,-3.1664,-3.1664,-3.1664,-3.1664,-3.1664,-3.1664,-3.1664,-3.1664,-3.1664,-3.1664,-3.1664,-3.1664,-3.1664,-3.1664,-3.1664,-3.1664,-3.1664,-3.1664,-3.1664,-3.1664,-3.1664,-3.1664,-3.1664,-3.1664,-3.1664,-3.1664,-3.1664,-3.1664,-3.1664,-3.1664,-3.1664,-3.1474,-2.923,-2.4269,-2.3686,-2.1352,-1.6275,-1.6083,-1.6083,-1.6083,-1.6083,-1.6083,-1.6083,-1.6083,-1.6083,-1.6083,-1.6083,-1.6083,-1.9167,-2.2006,-2.4681,-2.338,-2.443,-2.5819,-2.6307,-2.6334,-2.6232,-2.6548,-2.7473,-2.8221,-2.8221,-2.8221,-2.8248,-2.8315,-2.8497,-2.8804,-2.9098,-2.9392,-2.9659,-2.9887,-2.9913,-2.9913,-2.9913,-2.998,-3.0007,-3.0007,-3.0287,-3.0448,-3.0448,-3.0728,-3.0889,-3.0889,-3.0955,-3.1089,-3.1316,-3.1316,-3.1436,-3.1664,-3.1664,-3.1664,-3.1664,-3.1664,-3.1664,-3.1664,-3.1664,-3.1664,-3.1664,-3.1664,-3.1664,-3.1664,-3.1664,-3.1664,-3.1664,-3.1664,-3.1664,-3.1664,-3.1664,-3.1664,-3.1664,-3.1664,-3.1664,-3.1664,-3.1664,-3.1664,-3.1664,-3.1664,-3.1664,-3.1664,-3.1664,-3.1664,-3.1664,-3.1664,-3.1664,-3.1664,-3.1664,-3.1664,-3.1664,-3.1664,-3.1664,-3.1664,-3.1664,-3.1664,-3.1664,-3.1664,-3.1664,-3.1664,-3.1664,-3.1664,-3.1664,-3.1664,-3.1664,-3.1664,-3.1664,-2.9816,-2.7287,-2.4074,-2.1921,-1.9396,-1.6275,-1.6083,-1.6083,-1.6083,-1.6083,-1.6083,-1.6083,-1.6083,-1.6083,-1.6083,-1.6083,-1.6083,-2.1442,-2.3872,-2.6149,-2.4999,-2.5568,-2.6386,-2.6386,-2.6613,-2.6907,-2.7201,-2.7615,-2.7976,-2.8207,-2.8221,-2.8221,-2.8221,-2.8404,-2.8657,-2.8818,-2.9205,-2.9539,-2.9686,-2.9833,-2.9913,-2.9913,-2.9913,-2.9913,-2.9913,-3.006,-3.0154,-3.0154,-3.0421,-3.0581,-3.0581,-3.0715,-3.0862,-3.1022,-3.1022,-3.1169,-3.1463,-3.1463,-3.153,-3.1664,-3.1664,-3.1664,-3.1664,-3.1664,-3.1664,-3.1664,-3.1664,-3.1664,-3.1664,-3.1664,-3.1664,-3.1664,-3.1664,-3.1664,-3.1664,-3.1664,-3.1664,-3.1664,-3.1664,-3.1664,-3.1664,-3.1664,-3.1664,-3.1664,-3.1664,-3.1664,-3.1664,-3.1664,-3.1664,-3.1664,-3.1664,-3.1664,-3.1664,-3.1664,-3.1664,-3.1664,-3.1664,-3.1664,-3.1664,-3.1664,-3.1664,-3.1664,-3.1664,-3.1664,-3.1664,-3.1664,-3.1664,-3.1664,-3.1664,-3.1664,-3.1664,-3.1664,-2.9338,-2.671,-2.4074,-2.1441,-1.8813,-1.6182,-1.6083,-1.6083,-1.6083,-1.6083,-1.6083,-1.6083,-1.6083,-1.6083,-1.6083,-1.6083,-1.6083,-2.346,-2.5012,-2.6386,-2.6386,-2.6386,-2.6386,-2.6386,-2.6573,-2.6827,-2.7134,-2.7455,-2.7789,-2.8167,-2.8221,-2.8221,-2.8221,-2.8364,-2.8551,-2.8604,-2.9072,-2.9419,-2.9472,-2.974,-2.9913,-2.9913,-2.9913,-2.9913,-2.9913,-2.9913,-2.9913,-2.9913,-3.0154,-3.0287,-3.0287,-3.0515,-3.0662,-3.0715,-3.0715,-3.0862,-3.1156,-3.1196,-3.1356,-3.1597,-3.165,-3.1664,-3.1664,-3.1664,-3.1664,-3.1664,-3.1664,-3.1664,-3.1664,-3.1664,-3.1664,-3.1664,-3.1664,-3.1664,-3.1664,-3.1664,-3.1664,-3.1664,-3.1664,-3.1664,-3.1664,-3.1664,-3.1664,-3.1664,-3.1664,-3.1664,-3.1664,-3.1664,-3.1664,-3.1664,-3.1664,-3.1664,-3.1664,-3.1664,-3.1664,-3.1664,-3.1664,-3.1664,-3.1664,-3.1664,-3.1664,-3.1664,-3.1664,-3.1664,-3.1664,-3.1664,-3.1664,-3.1664,-3.1664,-3.1664,-3.165,-3.1597,-2.887,-2.6138,-2.3952,-2.0951,-1.8234,-1.61,-1.6008,-1.6008,-1.6008,-1.6056,-1.6069,-1.6042,-1.6042,-1.6029,-1.6008,-1.6008,-1.6008,-2.492,-2.6149,-2.6386,-2.6386,-2.6386,-2.6386,-2.6386,-2.6413,-2.6533,-2.6814,-2.7321,-2.7789,-2.8167,-2.8221,-2.8221,-2.8221,-2.8261,-2.8297,-2.8564,-2.8898,-2.9192,-2.9459,-2.974,-2.9913,-2.9913,-2.9913,-2.9913,-2.9913,-2.9913,-2.9913,-2.9913,-2.9953,-2.998,-2.998,-3.0007,-3.0154,-3.0421,-3.0421,-3.0568,-3.0849,-3.1102,-3.1249,-3.1289,-3.1557,-3.1664,-3.1664,-3.1664,-3.1664,-3.1664,-3.1664,-3.1664,-3.1664,-3.1664,-3.1664,-3.1664,-3.1664,-3.1664,-3.1664,-3.1664,-3.1664,-3.1664,-3.1664,-3.1664,-3.1664,-3.1664,-3.1664,-3.1664,-3.1664,-3.1664,-3.1664,-3.1664,-3.1664,-3.1664,-3.1664,-3.1664,-3.1664,-3.1664,-3.1664,-3.1664,-3.1664,-3.1664,-3.1664,-3.1664,-3.1664,-3.1664,-3.1664,-3.1664,-3.1664,-3.1664,-3.1664,-3.1664,-3.1664,-3.1664,-3.157,-3.1303,-2.6953,-2.3984,-2.3304,-1.8841,-1.598,-1.5696,-1.5696,-1.5696,-1.5696,-1.5947,-1.6015,-1.5886,-1.5886,-1.5818,-1.5696,-1.5696,-1.5696,-2.5581,-2.6386,-2.6386,-2.6386,-2.6386,-2.6386,-2.6386,-2.6386,-2.6466,-2.676,-2.7028,-2.7348,-2.7816,-2.803,-2.8221,-2.8221,-2.8221,-2.8274,-2.8323,-2.8604,-2.8911,-2.9205,-2.9499,-2.974,-2.99,-2.9913,-2.9913,-2.9913,-2.9913,-2.9913,-2.9913,-2.9913,-2.9913,-2.9913,-2.9913,-2.998,-3.0114,-3.0114,-3.0261,-3.0555,-3.0849,-3.0982,-3.0996,-3.1289,-3.1517,-3.1664,-3.1664,-3.1664,-3.1664,-3.1664,-3.1664,-3.1664,-3.1664,-3.1664,-3.1664,-3.1664,-3.1664,-3.1664,-3.1664,-3.1664,-3.1664,-3.1664,-3.1664,-3.1664,-3.1664,-3.1664,-3.1664,-3.1664,-3.1664,-3.1664,-3.1664,-3.1664,-3.1664,-3.1664,-3.1664,-3.1664,-3.1664,-3.1664,-3.1664,-3.1664,-3.1664,-3.1664,-3.1664,-3.1664,-3.1664,-3.1664,-3.1664,-3.1664,-3.1664,-3.1664,-3.161,-3.1436,-3.1423,-3.1303,-3.1009,-2.7639,-2.4829,-2.3307,-1.9715,-1.7062,-1.5635,-1.5642,-1.5642,-1.5642,-1.5764,-1.5798,-1.5737,-1.5737,-1.5703,-1.5642,-1.5642,-1.5642,-2.5977,-2.6386,-2.6386,-2.6386,-2.6386,-2.6386,-2.6386,-2.6386,-2.6453,-2.6667,-2.6774,-2.6974,-2.7495,-2.7829,-2.814,-2.8221,-2.8221,-2.8221,-2.8221,-2.8417,-2.8684,-2.8898,-2.9259,-2.9566,-2.978,-2.9873,-2.9913,-2.9913,-2.9913,-2.9913,-2.9913,-2.9913,-2.9913,-2.9913,-2.9913,-2.9913,-2.9913,-2.9913,-3.0034,-3.0247,-3.0541,-3.0688,-3.0688,-3.0982,-3.1276,-3.1557,-3.1637,-3.1664,-3.1664,-3.1664,-3.1664,-3.1664,-3.1664,-3.1664,-3.1664,-3.1664,-3.1664,-3.1664,-3.1664,-3.1664,-3.1664,-3.1664,-3.1664,-3.1664,-3.1664,-3.1664,-3.1664,-3.1664,-3.1664,-3.1664,-3.1664,-3.1664,-3.1664,-3.1664,-3.1664,-3.1664,-3.1664,-3.1664,-3.1664,-3.1664,-3.1664,-3.1664,-3.1664,-3.1664,-3.1664,-3.1664,-3.1664,-3.1637,-3.157,-3.1557,-3.145,-3.1142,-3.1116,-3.0996,-3.0702,-2.8304,-2.5735,-2.3135,-2.0602,-1.8065,-1.5616,-1.552,-1.552,-1.552,-1.552,-1.554,-1.5581,-1.5581,-1.556,-1.552,-1.552,-1.552,-2.6386,-2.6386,-2.6386,-2.6386,-2.6386,-2.6386,-2.6386,-2.6386,-2.6386,-2.6413,-2.6627,-2.6921,-2.7228,-2.7522,-2.7816,-2.8181,-2.8221,-2.8221,-2.8221,-2.8417,-2.8617,-2.8631,-2.9138,-2.9486,-2.9499,-2.9753,-2.9913,-2.9913,-2.9913,-2.9913,-2.9913,-2.9913,-2.9913,-2.9913,-2.9913,-2.9913,-2.9913,-2.9913,-2.9927,-2.994,-3.0247,-3.0381,-3.0394,-3.0688,-3.0969,-3.1263,-3.1543,-3.1664,-3.1664,-3.1664,-3.1664,-3.1664,-3.1664,-3.1664,-3.1664,-3.1664,-3.1664,-3.1664,-3.1664,-3.1664,-3.1664,-3.1664,-3.1664,-3.1664,-3.1664,-3.1664,-3.1664,-3.1664,-3.1664,-3.1664,-3.1664,-3.1664,-3.1664,-3.1664,-3.1664,-3.1664,-3.1664,-3.1664,-3.1664,-3.1664,-3.1664,-3.1664,-3.1664,-3.1664,-3.1664,-3.1664,-3.1664,-3.157,-3.1289,-3.1249,-3.1129,-3.0849,-3.0808,-3.0702,-3.0408,-2.8136,-2.5512,-2.2698,-2.0279,-1.7795,-1.5302,-1.5208,-1.5208,-1.5208,-1.5208,-1.5276,-1.5425,-1.5425,-1.535,-1.5208,-1.5208,-1.5208,-2.6386,-2.6386,-2.6386,-2.6386,-2.6386,-2.6386,-2.6386,-2.6386,-2.6386,-2.6386,-2.6613,-2.6907,-2.7215,-2.7509,-2.7789,-2.8181,-2.8221,-2.8221,-2.8221,-2.8243,-2.8377,-2.8577,-2.8791,-2.8991,-2.9179,-2.9472,-2.9633,-2.9633,-2.9806,-2.9913,-2.9913,-2.9913,-2.9913,-2.9913,-2.9913,-2.9913,-2.9913,-2.9913,-2.9913,-2.9913,-3.002,-3.0074,-3.0087,-3.0381,-3.0568,-3.0702,-3.1183,-3.149,-3.1664,-3.1664,-3.1664,-3.1664,-3.1664,-3.1664,-3.1664,-3.1664,-3.1664,-3.1664,-3.1664,-3.1664,-3.1664,-3.1664,-3.1664,-3.1664,-3.1664,-3.1664,-3.1664,-3.1664,-3.1664,-3.1664,-3.1664,-3.1664,-3.1664,-3.1664,-3.1664,-3.1664,-3.1664,-3.1664,-3.1664,-3.1664,-3.1664,-3.1664,-3.1664,-3.1664,-3.1664,-3.1664,-3.1503,-3.1343,-3.1236,-3.1062,-3.0835,-3.0541,-3.0515,-3.0394,-3.01,-2.9235,-2.6972,-2.2749,-2.1728,-1.9427,-1.5368,-1.5181,-1.5181,-1.5181,-1.5181,-1.5208,-1.5262,-1.5262,-1.5235,-1.5181,-1.5181,-1.5181,-2.6386,-2.6386,-2.6386,-2.6386,-2.6386,-2.6386,-2.6386,-2.6386,-2.6413,-2.652,-2.6694,-2.6947,-2.7335,-2.7562,-2.7789,-2.8181,-2.8221,-2.8221,-2.8221,-2.8221,-2.8301,-2.843,-2.8537,-2.8684,-2.8871,-2.9165,-2.9379,-2.9472,-2.9659,-2.982,-2.9913,-2.9913,-2.9913,-2.9913,-2.9913,-2.9913,-2.9913,-2.9913,-2.9913,-2.9913,-2.9913,-2.9913,-2.9927,-3.0114,-3.0261,-3.0381,-3.0875,-3.1249,-3.153,-3.1623,-3.1664,-3.1664,-3.1664,-3.1664,-3.1664,-3.1664,-3.1664,-3.1664,-3.1664,-3.1664,-3.1664,-3.1664,-3.1664,-3.1664,-3.1664,-3.1664,-3.1664,-3.1664,-3.1664,-3.1664,-3.1664,-3.1664,-3.1664,-3.1664,-3.1664,-3.1664,-3.1664,-3.1664,-3.1664,-3.1664,-3.1664,-3.1664,-3.1664,-3.1583,-3.1517,-3.1517,-3.1263,-3.1049,-3.0942,-3.0768,-3.0541,-3.0247,-3.0207,-3.0127,-2.994,-2.9182,-2.6876,-2.2739,-2.1728,-1.9427,-1.5368,-1.5181,-1.5181,-1.5181,-1.5181,-1.5181,-1.5181,-1.5181,-1.5181,-1.5181,-1.5181,-1.5181,0.0,0.0,0.0,-2.6386,-2.6386,-2.6386,-2.6386,-2.64,-2.648,-2.676,-2.6841,-2.7028,-2.7589,-2.7709,-2.7802,-2.8181,-2.8221,-2.8221,-2.8221,-2.8221,-2.8221,-2.8221,-2.8417,-2.8591,-2.8591,-2.8858,-2.9152,-2.9432,-2.9472,-2.9606,-2.9887,-2.9913,-2.9913,-2.9913,-2.9913,-2.9913,-2.9913,-2.9913,-2.9913,-2.9913,-2.9913,-2.9913,-2.9913,-2.9913,-3.0074,-3.0368,-3.0662,-3.0942,-3.1236,-3.1543,-3.1664,-3.1664,-3.1664,-3.1664,-3.1664,-3.1664,-3.1664,-3.1664,-3.1664,-3.1664,-3.1664,-3.1664,-3.1664,-3.1664,-3.1664,-3.1664,-3.1664,-3.1664,-3.1664,-3.1664,-3.1664,-3.1664,-3.1664,-3.1664,-3.1664,-3.1664,-3.1664,-3.1664,-3.1664,-3.1664,-3.1664,-3.1664,-3.1664,-3.1423,-3.1223,-3.1209,-3.0969,-3.0675,-3.0394,-3.0354,-3.0234,-2.994,-2.9913,-2.9913,-2.9913,-2.7702,-2.5218,-2.2739,-2.0344,-1.7856,-1.5368,-1.5275,-1.5181,-1.5181,-1.5181,-1.5181,-1.5181,-1.5181,-1.5181,-1.5181,-1.5181,-1.5181,-2.6386,0.0,0.0,0.0,0.0,0.0,-2.6386,-2.6547,-2.672,-2.68,-2.7161,-2.7509,-2.7669,-2.7883,-2.8127,-2.8207,-2.8221,-2.8221,-2.8221,-2.8221,-2.8221,-2.8221,-2.8301,-2.827,-2.827,-2.8551,-2.8764,-2.8845,-2.9245,-2.9526,-2.9606,-2.9806,-2.9913,-2.9913,-2.9913,-2.9913,-2.9913,-2.9913,-2.9913,-2.9913,-2.9913,-2.9913,-2.9913,-2.9913,-2.9967,-3.006,-3.0354,-3.0648,-3.0955,-3.1463,-3.1664,-3.1664,-3.1664,-3.1664,-3.1664,-3.1664,-3.1664,-3.1664,-3.1664,-3.1664,-3.1664,-3.1664,-3.1664,-3.1664,-3.1664,-3.1664,-3.1664,-3.1664,-3.1664,-3.1664,-3.1664,-3.1664,-3.1664,-3.1664,-3.1664,-3.1664,-3.1664,-3.1664,-3.1664,-3.1664,-3.1664,-3.1597,-3.1383,-3.1276,-3.1156,-3.0942,-3.0662,-3.0448,-3.0368,-3.0167,-3.0007,-2.9927,-2.9913,-2.9913,-2.9913,-2.9272,-2.7792,-2.5309,-2.2831,-2.0437,-1.7949,-1.6104,-1.5181,-1.5181,-1.5181,-1.5181,-1.5181,-1.5181,-1.5181,-1.5181,-1.5181,-1.5181,0.0,0.0,-2.6386,-2.6386,0.0,0.0,-2.6547,-2.6694,-2.6894,-2.7134,-2.7455,-2.7736,-2.7856,-2.8114,-2.8221,-2.8221,-2.8221,-2.8221,-2.8221,-2.8221,-2.8221,-2.8221,-2.8221,-2.8221,-2.8221,-2.831,-2.847,-2.8591,-2.8925,-2.9219,-2.9472,-2.9753,-2.9913,-2.9913,-2.9913,-2.9913,-2.9913,-2.9913,-2.9913,-2.9913,-2.9913,-2.9913,-2.9913,-2.9913,-2.9913,-2.9927,-3.0234,-3.0461,-3.0662,-3.1249,-3.1557,-3.1664,-3.1664,-3.1664,-3.1664,-3.1664,-3.1664,-3.1664,-3.1664,-3.1664,-3.1664,-3.1664,-3.1664,-3.1664,-3.1664,-3.1664,-3.1664,-3.1664,-3.1664,-3.1664,-3.1664,-3.1664,-3.1664,-3.1664,-3.1664,-3.1637,-3.1517,-3.149,-3.149,-3.149,-3.149,-3.1383,-3.1102,-3.0942,-3.0808,-3.0635,-3.0368,-3.0181,-3.0181,-3.002,-2.9913,-2.9913,-2.9913,-2.9913,-2.9913,-2.8989,-2.7328,-2.4854,-2.2372,-1.9882,-1.7491,-1.6011,-1.5181,-1.5181,-1.5181,-1.5181,-1.5181,-1.5181,-1.5181,-1.5181,-1.5181,-1.5181,0.0,0.0,0.0,0.0,-2.644,0.0,-2.68,-2.6894,-2.7068,-2.7589,-2.7722,-2.7829,-2.8181,-2.8221,-2.8221,-2.8221,-2.8221,-2.8221,-2.8221,-2.8221,-2.8221,-2.8221,-2.8221,-2.8221,-2.8221,-2.8221,-2.8341,-2.8537,-2.8617,-2.8898,-2.9459,-2.9753,-2.9913,-2.9913,-2.9913,-2.9913,-2.9913,-2.9913,-2.9913,-2.9913,-2.9913,-2.9913,-2.9913,-2.9913,-2.9913,-2.9927,-3.0194,-3.0327,-3.0408,-3.0955,-3.1356,-3.1623,-3.1664,-3.1664,-3.1664,-3.1664,-3.1664,-3.1664,-3.1664,-3.1664,-3.1664,-3.1664,-3.1664,-3.1664,-3.1664,-3.1664,-3.1664,-3.1664,-3.1664,-3.1664,-3.1664,-3.1664,-3.1664,-3.1664,-3.1637,-3.1543,-3.1276,-3.1196,-3.1169,-3.1129,-3.1156,-3.1089,-3.0795,-3.0528,-3.0354,-3.0314,-3.0087,-2.9913,-2.9913,-2.9913,-2.9913,-2.9913,-2.9913,-2.9913,-2.9913,-2.7883,-2.5593,-2.3116,-2.0714,-1.8228,-1.5737,-1.5368,-1.5181,-1.5181,-1.5181,-1.5181,-1.5181,-1.5181,-1.5181,-1.5181,-1.5181,-1.5181,0.0,0.0,0.0,0.0,0.0,0.0,-2.7108,-2.7362,-2.7562,-2.7682,-2.7896,-2.8154,-2.8221,-2.8221,-2.8221,-2.8221,-2.8221,-2.8221,-2.8221,-2.8221,-2.8221,-2.8221,-2.8221,-2.8221,-2.8221,-2.8221,-2.8248,-2.823,-2.8684,-2.9112,-2.9459,-2.9753,-2.9913,-2.9913,-2.9913,-2.9913,-2.9913,-2.9913,-2.9913,-2.9913,-2.9913,-2.9913,-2.9913,-2.9913,-2.9913,-2.9913,-2.998,-3.014,-3.0381,-3.0742,-3.1049,-3.133,-3.157,-3.1664,-3.1664,-3.1664,-3.1664,-3.1664,-3.1664,-3.1664,-3.1664,-3.1664,-3.1664,-3.1664,-3.1664,-3.1664,-3.1664,-3.1664,-3.1664,-3.1664,-3.1664,-3.1664,-3.1664,-3.1664,-3.149,-3.1289,-3.1236,-3.1036,-3.0808,-3.0568,-3.0715,-3.0782,-3.0488,-3.0394,-3.0274,-3.0034,-2.9953,-2.9913,-2.9913,-2.9913,-2.9913,-2.9913,-2.9913,-2.9913,-2.9913,-2.9451,-2.8166,-2.5684,-2.3198,-2.0714,-1.8321,-1.6292,-1.5181,-1.5181,-1.5181,-1.5181,-1.5181,-1.5181,-1.5181,-1.5181,-1.5181,-1.5181,0.0,0.0,0.0,-2.6974,0.0,0.0,0.0,-2.7589,-2.7736,-2.7896,-2.8043,-2.8221,-2.8221,-2.8221,-2.8221,-2.8221,-2.8221,-2.8221,-2.8221,-2.8221,-2.8221,-2.8221,-2.8221,-2.8221,-2.8221,-2.8221,-2.8288,-2.8364,-2.8925,-2.9325,-2.9472,-2.9753,-2.9913,-2.9913,-2.9913,-2.9913,-2.9913,-2.9913,-2.9913,-2.9913,-2.9913,-2.9913,-2.9913,-2.9913,-2.9913,-2.9913,-2.9913,-3.0007,-3.0154,-3.0461,-3.0755,-3.1049,-3.1503,-3.1664,-3.1664,-3.1664,-3.1664,-3.1664,-3.1664,-3.1664,-3.1664,-3.1664,-3.1664,-3.1664,-3.1664,-3.1664,-3.1664,-3.1664,-3.1664,-3.1664,-3.1664,-3.1557,-3.145,-3.145,-3.1223,-3.0969,-3.0822,-3.0675,-3.0488,-3.0194,-3.0261,-3.0314,-3.0167,-3.014,-3.0087,-2.994,-2.9913,-2.9913,-2.9913,-2.9913,-2.9913,-2.9913,-2.9913,-2.9913,-2.9913,-2.9913,-2.8346,-2.458,-2.3198,-2.0899,-1.7211,-1.583,-1.5181,-1.5181,-1.5181,-1.5181,-1.5181,-1.5181,-1.5181,-1.5181,-1.5181,-1.5181,0.0,0.0,0.0,0.0,0.0,-2.7428,0.0,0.0,0.0,-2.8181,-2.8221,-2.8221,-2.8221,-2.8221,-2.8207,-2.8154,-2.8194,-2.8207,-2.8154,-2.8194,-2.8221,-2.8221,-2.8221,-2.8221,-2.8221,-2.8274,-2.8364,-2.8671,-2.9179,-2.9486,-2.9486,-2.9753,-2.9913,-2.9913,-2.9913,-2.9913,-2.9913,-2.9913,-2.9913,-2.9913,-2.9913,-2.9913,-2.9913,-2.9913,-2.9913,-2.9913,-2.9913,-2.9913,-2.994,-3.0234,-3.0501,-3.0768,-3.1356,-3.1623,-3.1664,-3.1664,-3.1664,-3.1664,-3.1664,-3.1664,-3.1664,-3.1664,-3.1664,-3.1664,-3.1664,-3.1664,-3.1664,-3.1664,-3.1664,-3.1664,-3.1664,-3.145,-3.1223,-3.1223,-3.0969,-3.0648,-3.0408,-3.0314,-3.0207,-2.9967,-2.9913,-2.9913,-2.9913,-2.9913,-2.9913,-2.9913,-2.9913,-2.9913,-2.9913,-2.9913,-2.9913,-2.9913,-2.9913,-2.9913,-2.9913,-2.9451,-2.7238,-2.2739,-2.2096,-1.9798,-1.5368,-1.5181,-1.5181,-1.5181,-1.5181,-1.5181,-1.5181,-1.5181,-1.5181,-1.5181,-1.5181,-1.5181,0.0,0.0,0.0,0.0,-2.7642,0.0,0.0,0.0,-2.8181,-2.8221,0.0,-2.8221,-2.8221,0.0,0.0,-2.7789,-2.7963,-2.814,-2.7789,-2.7976,-2.8221,-2.8221,-2.8221,-2.8221,-2.8221,-2.839,-2.8671,-2.8965,-2.9299,-2.9486,-2.9486,-2.9753,-2.9913,-2.9913,-2.9913,-2.9913,-2.9913,-2.9913,-2.9913,-2.9913,-2.9913,-2.9913,-2.9913,-2.9913,-2.9913,-2.9913,-2.9913,-2.9913,-2.994,-3.0234,-3.0381,-3.0474,-3.1049,-3.1436,-3.1664,-3.1664,-3.1664,-3.1664,-3.1664,-3.1664,-3.1664,-3.1664,-3.1664,-3.1664,-3.1664,-3.1664,-3.1664,-3.1664,-3.1664,-3.1664,-3.1664,-3.145,-3.1223,-3.1223,-3.0808,-3.0394,-3.0368,-3.0154,-2.9953,-2.9927,-2.9913,-2.9913,-2.9913,-2.9913,-2.9913,-2.9913,-2.9913,-2.9913,-2.9913,-2.9913,-2.9913,-2.9913,-2.9913,-2.9913,-2.9913,-2.7883,-2.54,-2.2647,-2.0529,-1.8042,-1.5275,-1.5181,-1.5181,-1.5181,-1.5181,-1.5181,-1.5181,-1.5181,-1.5181,-1.5181,-1.5181,-1.5181,0.0,0.0,0.0,0.0,0.0,0.0,-2.8194,0.0,-2.8221,0.0,0.0,0.0,0.0,0.0,0.0,0.0,-2.814,-2.8181,-2.7976,-2.8154,-2.8221,-2.8221,-2.8221,-2.8301,-2.839,-2.8845,-2.9165,-2.9285,-2.9566,-2.974,-2.974,-2.9847,-2.9913,-2.9913,-2.9913,-2.9913,-2.9913,-2.9913,-2.9913,-2.9913,-2.9913,-2.9913,-2.9913,-2.9913,-2.9913,-2.9913,-2.9913,-2.9913,-2.994,-3.0234,-3.0461,-3.0648,-3.1062,-3.1303,-3.1436,-3.161,-3.1664,-3.1664,-3.1664,-3.1664,-3.1664,-3.1664,-3.1664,-3.1664,-3.1664,-3.1664,-3.1664,-3.1664,-3.1664,-3.1664,-3.1664,-3.145,-3.1183,-3.1009,-3.0662,-3.0314,-3.014,-3.0007,-2.9913,-2.9913,-2.9913,-2.9913,-2.9913,-2.9913,-2.9913,-2.9913,-2.9913,-2.9913,-2.9913,-2.9913,-2.9913,-2.9913,-2.9913,-2.9913,-2.9913,-2.7612,-2.5127,-2.2647,-1.8871,-1.6292,-1.5275,-1.5181,-1.5181,-1.5181,-1.5181,-1.5181,-1.5181,-1.5181,-1.5181,-1.5181,-1.5181,-1.5181,-2.7736,0.0,0.0,0.0,0.0,0.0,0.0,0.0,0.0,0.0,0.0,0.0,0.0,0.0,-2.8207,0.0,0.0,-2.8194,-2.8114,-2.8181,-2.8221,-2.8221,-2.8301,-2.8417,-2.8804,-2.9232,-2.9513,-2.9593,-2.9793,-2.9913,-2.9913,-2.9913,-2.9913,-2.9913,-2.9913,-2.9913,-2.9913,-2.9913,-2.9913,-2.9913,-2.9913,-2.9913,-2.9913,-2.9913,-2.9913,-2.9927,-3.0007,-3.0034,-3.006,-3.0354,-3.0595,-3.0822,-3.1116,-3.1223,-3.1263,-3.1557,-3.1664,-3.1664,-3.1664,-3.1664,-3.1664,-3.1664,-3.1664,-3.1664,-3.1664,-3.1664,-3.1664,-3.1664,-3.1664,-3.1664,-3.1664,-3.145,-3.1156,-3.0862,-3.0568,-3.0274,-2.998,-2.9913,-2.9913,-2.9913,-2.9913,-2.9913,-2.9913,-2.9913,-2.9913,-2.9913,-2.9913,-2.9913,-2.9913,-2.9913,-2.9913,-2.9913,-2.9913,-2.9631,-2.8899,-2.6604,-2.3838,-2.0714,-1.7126,-1.5181,-1.5181,-1.5181,-1.5181,-1.5181,-1.5181,-1.5181,-1.5181,-1.5181,-1.5181,-1.5181,-1.5181,-1.5181,0.0,0.0,0.0,-2.8221,0.0,0.0,0.0,0.0,-2.8221,0.0,0.0,0.0,0.0,0.0,0.0,0.0,0.0,0.0,0.0,-2.7963,-2.8221,-2.8221,-2.8404,-2.8818,-2.9406,-2.9472,-2.9606,-2.9887,-2.9913,-2.9913,-2.9913,-2.9913,-2.9913,-2.9913,-2.9913,-2.9913,-2.9913,-2.9913,-2.9913,-2.9913,-2.9913,-2.9913,-2.9913,-2.9913,-2.9913,-2.9927,-3.0221,-3.0341,-3.0368,-3.0662,-3.0782,-3.0822,-3.1116,-3.1223,-3.1263,-3.1557,-3.1664,-3.1664,-3.1664,-3.1664,-3.1664,-3.1664,-3.1664,-3.1664,-3.1664,-3.1664,-3.1664,-3.1664,-3.1664,-3.1664,-3.1664,-3.145,-3.1156,-3.0862,-3.0568,-3.0274,-2.998,-2.9913,-2.9913,-2.9913,-2.9913,-2.9913,-2.9913,-2.9913,-2.9913,-2.9913,-2.9913,-2.9913,-2.9913,-2.9913,-2.9913,-2.9913,-2.9913,-2.8899,-2.6502,-2.4021,-2.0529,-1.5737,-1.5275,-1.5181,-1.5181,-1.5181,-1.5181,-1.5181,-1.5181,-1.5181,-1.5181,-1.5181,-1.5181,-1.5181,-1.5181,-1.5181,0.0,0.0,-2.8221,-2.8221,0.0,0.0,0.0,0.0,0.0,0.0,0.0,0.0,0.0,0.0,0.0,0.0,0.0,0.0,0.0,-2.8671,-2.8804,-2.9005,-2.9125,-2.9259,-2.9459,-2.9659,-2.9806,-2.9913,-2.9913,-2.9913,-2.9913,-2.9913,-2.9913,-2.9913,-2.9913,-2.9913,-2.9913,-2.9913,-2.9913,-2.9913,-2.9913,-2.9913,-2.9927,-3.0114,-3.0207,-3.0221,-3.0515,-3.0648,-3.0675,-3.0955,-3.1076,-3.1102,-3.141,-3.1517,-3.153,-3.1637,-3.1664,-3.1664,-3.1664,-3.1664,-3.1664,-3.1664,-3.1664,-3.1664,-3.1664,-3.1664,-3.1664,-3.1664,-3.1664,-3.1664,-3.1664,-3.1597,-3.1396,-3.0915,-3.0715,-3.0515,-3.002,-2.9913,-2.9913,-2.9913,-2.9913,-2.9913,-2.9913,-2.9913,-2.9913,-2.9913,-2.9913,-2.9913,-2.9913,-2.9913,-2.9913,-2.9913,-2.9913,-2.8899,-2.6411,-2.2454,-1.8685,-1.5368,-1.5181,-1.5181,-1.5181,-1.5181,-1.5181,-1.5181,-1.5181,-1.5181,-1.5181,-1.5181,-1.5181,-1.5181,-1.5181,-1.5181,-2.8221,-2.8221,0.0,-2.8221,-2.8221,0.0,-2.8283,0.0,-2.8337,0.0,0.0,0.0,0.0,0.0,0.0,0.0,0.0,0.0,0.0,-2.9125,-2.9272,-2.9459,-2.9486,-2.9526,-2.9633,-2.9806,-2.9913,-2.9913,-2.9913,-2.9913,-2.9913,-2.9913,-2.9913,-2.9913,-2.9913,-2.9913,-2.9913,-2.9913,-2.9913,-2.9913,-3.002,-3.0074,-3.0087,-3.0381,-3.0515,-3.0528,-3.0822,-3.0942,-3.0969,-3.1263,-3.1383,-3.1396,-3.1597,-3.1664,-3.1664,-3.1664,-3.1664,-3.1664,-3.1664,-3.1664,-3.1664,-3.1664,-3.1664,-3.1664,-3.1664,-3.1664,-3.1664,-3.1664,-3.1664,-3.1664,-3.1664,-3.1664,-3.1517,-3.0929,-3.0795,-3.0635,-3.0047,-2.9913,-2.9913,-2.9913,-2.9913,-2.9913,-2.9913,-2.9913,-2.9913,-2.9913,-2.9913,-2.9913,-2.9913,-2.9913,-2.9913,-2.9913,-2.9913,-2.8899,-2.6411,-2.1718,-1.822,-1.6658,-1.6471,-1.6104,-1.5275,-1.5181,-1.5208,-1.5262,-1.5208,-1.5208,-1.5262,-1.5208,-1.5181,-1.5181,-1.5181,-1.5181]},{"header":{"parameterUnit":"m.s-1","parameterCategory":1,"la1":30.6,"la2":29.2853,"lo1":-89.7004,"lo2":-87.6739,"dy":0.0162,"dx":0.0183,"nx":112,"ny":82,"refTime":"2023-10-07T06:00:00:Z","depth":0,"parameterNumber":3,"parameterNumberName":"V-component_of_WINDS"},"data":[0.0,0.0,0.0,0.0,0.0,0.0,0.0,0.0,0.0,0.0,0.0,0.0,0.0,0.0,0.0,0.0,0.0,0.0,0.0,0.0,0.0,0.0,0.0,0.0,0.0,0.0,0.0,0.0,0.0,0.0,0.0,0.0,0.0,0.0,0.0,0.0,0.0,0.0,0.0,0.0,0.0,0.0,0.0,0.0,0.0,0.0,0.0,0.0,0.0,0.0,0.0,0.0,0.0,0.0,0.0,0.0,0.0,0.0,0.0,0.0,0.0,0.0,0.0,0.0,0.0,0.0,0.0,0.0,0.0,0.0,0.0,0.0,0.0,0.0,0.0,0.0,0.0,0.0,0.0,0.0,0.0,0.0,0.0,0.0,0.0,0.0,0.0,0.0,0.0,0.0,0.0,5.5757,5.5926,5.5978,5.5978,5.5978,5.6107,5.6362,0.0,0.0,0.0,0.0,0.0,0.0,0.0,0.0,0.0,0.0,0.0,0.0,0.0,0.0,0.0,0.0,0.0,0.0,0.0,0.0,0.0,0.0,0.0,0.0,0.0,0.0,0.0,0.0,0.0,0.0,0.0,0.0,0.0,0.0,0.0,0.0,0.0,0.0,0.0,0.0,0.0,0.0,0.0,0.0,0.0,0.0,0.0,0.0,0.0,0.0,0.0,0.0,0.0,0.0,0.0,0.0,0.0,0.0,0.0,0.0,0.0,0.0,0.0,0.0,0.0,0.0,0.0,0.0,0.0,0.0,0.0,0.0,0.0,0.0,0.0,0.0,0.0,0.0,0.0,0.0,0.0,0.0,0.0,0.0,0.0,0.0,0.0,0.0,0.0,0.0,0.0,0.0,0.0,0.0,0.0,0.0,0.0,0.0,0.0,0.0,0.0,0.0,0.0,0.0,5.5868,5.6528,5.7226,5.7629,5.7629,5.7629,5.7545,5.7255,0.0,0.0,0.0,0.0,0.0,0.0,0.0,0.0,0.0,0.0,0.0,0.0,0.0,0.0,0.0,0.0,0.0,0.0,0.0,0.0,0.0,0.0,0.0,0.0,0.0,0.0,0.0,0.0,0.0,0.0,0.0,0.0,0.0,0.0,0.0,0.0,0.0,0.0,0.0,0.0,0.0,0.0,0.0,0.0,0.0,0.0,0.0,0.0,0.0,0.0,0.0,0.0,0.0,0.0,0.0,0.0,0.0,0.0,0.0,0.0,0.0,0.0,0.0,0.0,0.0,0.0,0.0,0.0,0.0,0.0,0.0,0.0,0.0,0.0,0.0,0.0,0.0,0.0,0.0,0.0,0.0,0.0,0.0,0.0,0.0,0.0,0.0,0.0,0.0,0.0,0.0,0.0,0.0,0.0,0.0,0.0,0.0,0.0,0.0,0.0,0.0,0.0,0.0,5.6895,5.7042,5.7409,5.7776,5.7997,5.7997,5.7997,5.7927,5.7728,5.738,0.0,0.0,0.0,0.0,0.0,0.0,0.0,0.0,0.0,0.0,0.0,0.0,0.0,0.0,0.0,0.0,0.0,0.0,0.0,0.0,0.0,0.0,0.0,0.0,0.0,0.0,0.0,0.0,0.0,0.0,0.0,0.0,0.0,0.0,0.0,0.0,0.0,0.0,0.0,0.0,0.0,0.0,0.0,0.0,0.0,0.0,0.0,0.0,0.0,0.0,0.0,0.0,0.0,0.0,0.0,0.0,0.0,0.0,0.0,0.0,0.0,0.0,0.0,0.0,0.0,0.0,0.0,0.0,0.0,0.0,0.0,0.0,0.0,0.0,0.0,0.0,0.0,0.0,0.0,0.0,0.0,0.0,0.0,0.0,0.0,0.0,0.0,0.0,0.0,0.0,0.0,0.0,0.0,0.0,0.0,0.0,0.0,0.0,0.0,0.0,0.0,0.0,5.7997,5.7997,5.7997,5.7997,5.7997,5.7997,5.7997,5.7997,5.7997,5.8097,0.0,0.0,0.0,0.0,0.0,0.0,0.0,0.0,0.0,0.0,0.0,0.0,0.0,0.0,0.0,0.0,0.0,0.0,0.0,0.0,0.0,0.0,0.0,0.0,0.0,0.0,0.0,0.0,0.0,0.0,0.0,0.0,0.0,0.0,0.0,0.0,0.0,0.0,0.0,0.0,0.0,0.0,0.0,0.0,0.0,0.0,0.0,0.0,0.0,0.0,0.0,0.0,0.0,0.0,0.0,0.0,0.0,0.0,0.0,0.0,0.0,0.0,0.0,0.0,0.0,0.0,0.0,0.0,0.0,0.0,0.0,0.0,0.0,0.0,0.0,0.0,0.0,0.0,0.0,0.0,0.0,0.0,0.0,0.0,0.0,0.0,0.0,0.0,0.0,0.0,0.0,0.0,0.0,0.0,0.0,0.0,0.0,0.0,0.0,0.0,0.0,0.0,5.7997,5.7997,5.7997,5.7997,5.7997,5.7997,5.7997,5.7997,5.7997,5.8397,0.0,0.0,0.0,0.0,0.0,0.0,0.0,0.0,0.0,0.0,0.0,0.0,0.0,0.0,0.0,0.0,0.0,0.0,0.0,0.0,0.0,0.0,0.0,0.0,0.0,0.0,0.0,0.0,0.0,0.0,0.0,0.0,0.0,0.0,0.0,0.0,0.0,0.0,0.0,0.0,0.0,0.0,0.0,0.0,0.0,0.0,0.0,0.0,0.0,0.0,0.0,0.0,0.0,0.0,0.0,0.0,0.0,0.0,0.0,0.0,0.0,0.0,0.0,0.0,0.0,0.0,0.0,0.0,0.0,0.0,0.0,0.0,0.0,0.0,0.0,0.0,0.0,0.0,0.0,0.0,0.0,0.0,0.0,0.0,0.0,0.0,0.0,0.0,0.0,0.0,0.0,0.0,0.0,0.0,0.0,0.0,0.0,0.0,0.0,0.0,0.0,0.0,5.9501,5.9501,0.0,5.9501,5.9501,5.9501,5.9501,5.9501,5.9501,0.0,0.0,0.0,0.0,0.0,0.0,0.0,0.0,0.0,0.0,0.0,0.0,0.0,0.0,0.0,0.0,0.0,0.0,0.0,0.0,0.0,0.0,0.0,0.0,0.0,0.0,0.0,0.0,0.0,0.0,0.0,0.0,0.0,0.0,0.0,0.0,0.0,0.0,0.0,0.0,0.0,0.0,0.0,0.0,0.0,0.0,0.0,0.0,0.0,0.0,0.0,0.0,0.0,0.0,0.0,0.0,0.0,0.0,0.0,0.0,0.0,0.0,0.0,0.0,0.0,0.0,0.0,0.0,0.0,0.0,0.0,0.0,0.0,0.0,0.0,0.0,0.0,0.0,0.0,0.0,0.0,0.0,0.0,0.0,0.0,0.0,0.0,0.0,0.0,0.0,0.0,0.0,0.0,0.0,0.0,0.0,0.0,0.0,0.0,0.0,0.0,0.0,6.0346,6.0419,6.0419,0.0,6.0419,6.0419,6.0419,6.0419,6.0419,6.0419,0.0,0.0,0.0,0.0,0.0,0.0,0.0,0.0,0.0,0.0,0.0,0.0,0.0,0.0,0.0,0.0,0.0,0.0,0.0,0.0,0.0,0.0,0.0,0.0,0.0,0.0,0.0,0.0,0.0,0.0,0.0,0.0,0.0,0.0,0.0,0.0,0.0,0.0,0.0,0.0,0.0,0.0,0.0,0.0,0.0,0.0,0.0,0.0,0.0,0.0,0.0,0.0,0.0,0.0,0.0,0.0,0.0,0.0,0.0,0.0,0.0,0.0,0.0,0.0,0.0,0.0,0.0,0.0,0.0,0.0,0.0,0.0,0.0,0.0,0.0,0.0,0.0,0.0,0.0,0.0,0.0,0.0,0.0,0.0,0.0,0.0,0.0,0.0,0.0,0.0,0.0,0.0,0.0,0.0,0.0,0.0,0.0,0.0,0.0,0.0,0.0,0.0,6.0419,6.0419,6.0419,6.0419,6.0419,6.0419,6.0419,6.0419,6.0419,0.0,0.0,0.0,0.0,0.0,0.0,0.0,0.0,0.0,0.0,0.0,0.0,0.0,0.0,0.0,0.0,0.0,0.0,0.0,0.0,0.0,0.0,0.0,0.0,0.0,0.0,0.0,0.0,0.0,0.0,0.0,0.0,0.0,0.0,0.0,0.0,0.0,0.0,0.0,0.0,0.0,0.0,0.0,0.0,0.0,0.0,0.0,0.0,0.0,0.0,0.0,0.0,0.0,0.0,0.0,0.0,0.0,0.0,0.0,0.0,0.0,0.0,0.0,0.0,0.0,0.0,0.0,0.0,0.0,0.0,0.0,0.0,0.0,0.0,0.0,0.0,0.0,0.0,0.0,0.0,0.0,0.0,0.0,0.0,0.0,0.0,0.0,0.0,0.0,0.0,0.0,0.0,0.0,0.0,0.0,0.0,0.0,0.0,0.0,0.0,0.0,0.0,0.0,6.2034,6.2108,6.2108,6.2108,6.2108,6.2108,6.2108,6.2108,6.2108,6.2108,0.0,0.0,0.0,0.0,0.0,0.0,0.0,0.0,0.0,0.0,0.0,0.0,0.0,0.0,0.0,0.0,0.0,0.0,0.0,0.0,0.0,0.0,0.0,0.0,0.0,0.0,0.0,0.0,0.0,0.0,0.0,0.0,0.0,0.0,0.0,0.0,0.0,0.0,0.0,0.0,0.0,0.0,0.0,0.0,0.0,0.0,0.0,0.0,0.0,0.0,0.0,0.0,0.0,0.0,0.0,0.0,0.0,0.0,0.0,0.0,0.0,0.0,0.0,0.0,0.0,0.0,0.0,0.0,0.0,0.0,0.0,0.0,0.0,0.0,0.0,0.0,0.0,0.0,0.0,0.0,0.0,0.0,0.0,0.0,0.0,0.0,0.0,0.0,0.0,0.0,0.0,0.0,0.0,0.0,0.0,0.0,0.0,0.0,0.0,0.0,0.0,0.0,6.2768,6.3099,6.3319,6.3319,6.3613,6.3796,6.3796,6.3796,6.3796,6.3796,0.0,0.0,0.0,0.0,0.0,0.0,0.0,0.0,0.0,0.0,0.0,0.0,0.0,0.0,0.0,0.0,0.0,0.0,0.0,0.0,0.0,0.0,0.0,0.0,0.0,0.0,0.0,0.0,0.0,0.0,0.0,0.0,0.0,0.0,0.0,0.0,0.0,0.0,0.0,0.0,0.0,0.0,0.0,0.0,0.0,0.0,0.0,0.0,0.0,0.0,0.0,0.0,0.0,0.0,0.0,0.0,0.0,0.0,0.0,0.0,0.0,0.0,0.0,0.0,0.0,0.0,0.0,0.0,0.0,0.0,0.0,0.0,0.0,0.0,0.0,0.0,0.0,0.0,0.0,0.0,0.0,0.0,0.0,0.0,0.0,0.0,0.0,0.0,0.0,0.0,0.0,0.0,0.0,0.0,0.0,0.0,0.0,0.0,0.0,0.0,0.0,0.0,6.3,6.3723,6.42,6.42,6.4861,6.5301,6.5301,6.5301,6.5301,6.5301,0.0,0.0,0.0,0.0,0.0,0.0,0.0,0.0,0.0,0.0,0.0,0.0,0.0,0.0,0.0,0.0,0.0,0.0,0.0,0.0,0.0,0.0,0.0,0.0,0.0,0.0,0.0,0.0,0.0,0.0,0.0,0.0,0.0,0.0,0.0,0.0,0.0,0.0,0.0,0.0,0.0,0.0,0.0,0.0,0.0,0.0,0.0,0.0,0.0,0.0,0.0,0.0,0.0,0.0,0.0,0.0,0.0,0.0,0.0,0.0,6.1012,6.073,0.0,0.0,0.0,0.0,0.0,0.0,0.0,0.0,0.0,0.0,0.0,0.0,0.0,0.0,0.0,0.0,0.0,0.0,0.0,0.0,0.0,0.0,0.0,0.0,0.0,0.0,0.0,0.0,0.0,0.0,0.0,0.0,0.0,0.0,0.0,0.0,0.0,0.0,0.0,0.0,6.4787,6.4934,6.5044,6.5044,6.5191,6.5301,6.5301,6.5301,6.5301,6.5301,6.5301,0.0,0.0,0.0,0.0,0.0,0.0,0.0,0.0,0.0,0.0,0.0,0.0,0.0,0.0,0.0,0.0,0.0,0.0,0.0,0.0,0.0,0.0,0.0,0.0,0.0,0.0,0.0,0.0,0.0,0.0,0.0,0.0,0.0,0.0,0.0,0.0,0.0,0.0,0.0,0.0,0.0,0.0,0.0,0.0,0.0,0.0,0.0,0.0,0.0,0.0,0.0,0.0,0.0,0.0,0.0,0.0,0.0,0.0,0.0,6.2529,6.1929,0.0,0.0,0.0,0.0,0.0,0.0,0.0,0.0,0.0,0.0,0.0,0.0,0.0,0.0,0.0,0.0,0.0,0.0,0.0,0.0,0.0,0.0,0.0,0.0,0.0,0.0,0.0,0.0,0.0,0.0,0.0,0.0,0.0,0.0,0.0,0.0,0.0,0.0,0.0,0.0,6.5301,6.5632,6.5888,6.5888,6.6219,6.6439,6.6439,6.6439,6.6439,6.6439,6.6439,0.0,0.0,0.0,0.0,0.0,0.0,0.0,0.0,0.0,0.0,0.0,0.0,0.0,0.0,0.0,0.0,0.0,0.0,0.0,0.0,0.0,0.0,0.0,0.0,0.0,0.0,0.0,0.0,0.0,0.0,0.0,0.0,0.0,0.0,0.0,0.0,0.0,0.0,0.0,0.0,0.0,0.0,0.0,0.0,0.0,0.0,0.0,0.0,0.0,0.0,0.0,0.0,0.0,6.3578,6.3743,6.3743,6.3743,6.4166,6.4782,6.4205,6.3451,6.2614,6.2909,0.0,0.0,0.0,0.0,0.0,0.0,0.0,0.0,0.0,0.0,0.0,0.0,0.0,0.0,0.0,0.0,0.0,0.0,0.0,0.0,0.0,0.0,6.4494,6.5154,6.5301,6.4934,6.3539,0.0,0.0,0.0,0.0,0.0,0.0,0.0,0.0,0.0,0.0,0.0,6.5742,6.6292,6.6696,6.6696,6.7283,6.7687,6.7687,6.7687,6.7687,6.7687,6.7687,6.7393,0.0,0.0,0.0,0.0,0.0,0.0,0.0,0.0,0.0,0.0,0.0,0.0,0.0,0.0,0.0,0.0,0.0,0.0,0.0,0.0,0.0,0.0,0.0,0.0,0.0,0.0,0.0,0.0,0.0,0.0,0.0,0.0,6.2974,6.2974,0.0,0.0,0.0,0.0,0.0,0.0,0.0,0.0,0.0,0.0,0.0,0.0,0.0,6.3501,6.4231,6.4308,6.4718,6.5449,6.5538,6.5551,6.5551,6.5551,6.5628,6.5743,6.6359,0.0,6.5317,6.4932,0.0,0.0,0.0,0.0,0.0,0.0,0.0,0.0,0.0,0.0,0.0,0.0,0.0,0.0,0.0,0.0,0.0,0.0,0.0,0.0,0.0,0.0,6.5191,6.5264,6.5301,6.5264,6.5044,6.5081,6.5154,6.5154,6.5228,0.0,0.0,0.0,0.0,0.0,0.0,0.0,6.7357,6.7467,6.754,6.754,6.7614,6.7687,6.7687,6.7687,6.7687,6.7687,6.7687,6.7677,6.754,6.754,0.0,0.0,0.0,0.0,0.0,0.0,0.0,0.0,0.0,0.0,0.0,0.0,0.0,0.0,0.0,0.0,0.0,0.0,0.0,0.0,0.0,0.0,0.0,0.0,0.0,0.0,0.0,0.0,0.0,6.3089,6.3308,6.3308,6.3308,6.3308,0.0,0.0,0.0,0.0,0.0,0.0,0.0,0.0,0.0,6.4743,6.5205,6.5628,6.6013,6.6474,6.6936,6.7321,6.7321,6.7321,6.7321,6.7321,6.7321,6.7321,6.7667,6.7628,6.7308,6.703,6.6345,6.5382,0.0,0.0,0.0,0.0,6.4237,6.4237,6.4237,6.4237,6.4273,6.464,0.0,0.0,0.0,0.0,0.0,0.0,0.0,6.5411,6.5852,6.5962,6.6109,6.6549,6.6659,6.6659,6.6659,6.6659,6.6512,0.0,6.6329,6.6659,6.6659,0.0,0.0,0.0,0.0,6.8531,6.8972,6.9045,6.9045,6.9045,6.9045,6.9045,6.9045,6.9045,6.9045,6.9045,6.9045,6.9045,6.9045,6.9045,6.9045,0.0,0.0,0.0,0.0,0.0,0.0,0.0,0.0,0.0,0.0,0.0,0.0,0.0,0.0,0.0,0.0,0.0,0.0,0.0,0.0,0.0,0.0,0.0,0.0,0.0,0.0,0.0,0.0,6.382,6.3974,6.3974,6.3974,6.3974,0.0,0.0,0.0,0.0,0.0,0.0,6.6474,6.6551,6.6551,6.6551,6.7321,6.7782,6.7782,6.8629,6.9052,6.9052,6.9052,6.9052,6.9052,6.9052,6.9052,6.9052,6.9283,6.936,6.9308,6.852,6.7466,6.6303,6.652,6.6075,6.5301,6.5301,6.5301,6.5301,6.5301,6.5301,6.5338,6.5558,6.5742,6.5925,6.5925,0.0,0.0,0.0,0.0,6.6035,6.6659,6.6953,6.7283,6.7871,6.8164,6.8311,6.8311,6.8311,6.8054,0.0,6.7577,6.8054,6.8274,0.0,0.0,0.0,0.0,6.9412,7.0,7.011,7.011,7.011,7.011,7.011,7.011,7.011,7.011,7.011,7.011,7.011,7.011,7.011,7.011,7.011,0.0,0.0,0.0,0.0,0.0,0.0,0.0,0.0,0.0,0.0,0.0,0.0,0.0,0.0,0.0,0.0,0.0,0.0,0.0,0.0,0.0,0.0,0.0,0.0,0.0,0.0,0.0,0.0,0.0,6.5782,6.5782,0.0,0.0,0.0,0.0,6.6898,6.6974,6.7359,6.8244,6.8282,6.8282,6.8282,6.9129,6.9552,6.9552,7.036,7.0783,7.0783,7.0783,7.0783,7.0783,7.0783,7.0783,7.0821,7.1629,7.2014,7.1794,6.8839,6.7306,6.6744,6.6223,6.5753,6.5301,6.5301,6.5301,6.5301,6.5301,6.5301,6.5448,6.6182,6.6953,6.7577,6.7577,6.7577,0.0,0.0,6.7577,6.7577,6.7614,6.8201,6.8788,6.8825,6.9412,6.9963,6.9963,6.9963,6.9743,0.0,6.8825,6.9082,6.9853,0.0,7.0,7.0036,7.0036,7.0036,7.0073,7.011,7.011,7.011,7.011,7.011,7.011,7.011,7.011,7.011,7.011,7.011,7.011,7.011,7.011,7.011,7.011,0.0,0.0,0.0,0.0,0.0,0.0,0.0,0.0,0.0,0.0,0.0,0.0,0.0,0.0,0.0,0.0,0.0,0.0,0.0,0.0,0.0,0.0,0.0,0.0,0.0,0.0,0.0,0.0,6.659,6.6667,0.0,6.7436,6.7513,6.7628,6.7936,6.7936,6.8321,6.9206,6.9244,6.9475,6.9975,7.086,7.1321,7.1321,7.2168,7.2385,7.1991,7.1991,7.1786,7.1407,7.182,7.1991,7.1991,7.2297,7.245,7.2324,7.0471,6.9842,6.9988,6.9355,6.8839,6.8348,6.7834,6.7614,6.7614,6.7614,6.7614,6.776,6.8568,6.9009,6.9229,6.9229,6.9229,6.9229,6.9229,6.9229,6.9229,6.9229,6.9449,6.9669,6.9669,6.9889,7.011,7.011,7.011,7.0183,7.0403,7.0036,6.9743,7.0036,7.011,7.0293,7.0807,7.0881,7.1064,7.1578,7.1651,7.1651,7.1651,7.1651,7.1651,7.1651,7.1651,7.1651,7.1651,7.1651,7.1651,7.1651,7.1651,7.1651,7.1651,7.1651,7.1394,0.0,0.0,0.0,0.0,0.0,0.0,0.0,0.0,0.0,0.0,0.0,0.0,0.0,0.0,0.0,0.0,0.0,0.0,0.0,0.0,0.0,0.0,0.0,0.0,0.0,6.6551,6.6936,6.7475,6.7552,6.7782,6.8346,6.8667,6.8936,6.9206,6.9513,7.0052,7.0937,7.0975,7.1245,7.1745,7.2591,7.3053,7.3053,7.3729,7.3855,7.3433,7.3433,7.3137,7.2612,7.3175,7.3343,7.3175,7.3175,7.3175,7.3117,7.2122,7.1995,7.2245,7.1057,7.0407,7.0036,6.9486,6.9302,6.9302,6.9302,6.9302,6.9376,6.9926,7.011,7.011,7.011,7.011,7.011,7.011,7.011,7.011,7.011,7.0293,7.0513,7.0513,7.0697,7.0917,7.0917,7.0917,7.1064,7.1615,7.1064,7.0587,7.0844,7.0917,7.1101,7.1615,7.1725,7.1908,7.2422,7.2496,7.2496,7.2496,7.2496,7.2496,7.2496,7.2496,7.2496,7.2496,7.2496,7.2496,7.2496,7.2496,7.2496,7.2496,7.2496,7.2239,7.1725,0.0,0.0,0.0,0.0,0.0,0.0,0.0,0.0,0.0,0.0,0.0,0.0,0.0,0.0,0.0,0.0,0.0,0.0,0.0,0.0,0.0,0.0,0.0,6.7244,6.7859,6.8398,6.8423,6.8462,6.8513,6.8513,6.9321,7.0129,7.0937,7.1745,7.2629,7.35,7.3538,7.3553,7.363,7.4361,7.4784,7.4822,7.5068,7.5167,7.5149,7.513,7.4827,7.4325,7.4904,7.4865,7.4347,7.4347,7.4347,7.4303,7.3714,7.3441,7.3241,7.1038,7.0183,7.0183,7.0146,7.0146,7.0146,7.0146,7.0146,7.0183,7.0183,7.0183,7.0183,7.0183,7.0183,7.0183,7.0183,7.0183,7.0183,7.0183,7.077,7.1329,7.1329,7.1945,7.2496,7.2496,7.2496,7.2496,7.2532,7.1908,7.1615,7.2386,7.2496,7.2496,7.2496,7.2496,0.0,7.2496,7.2496,7.2496,7.2496,7.2496,7.2496,7.2496,7.2496,7.2496,7.2496,7.2496,7.2496,7.2496,7.2496,7.2496,7.2496,7.2496,7.2496,7.2496,0.0,0.0,0.0,0.0,0.0,0.0,0.0,0.0,0.0,0.0,0.0,0.0,0.0,0.0,0.0,0.0,0.0,0.0,0.0,0.0,0.0,6.8936,6.9052,6.8167,6.8244,6.8615,6.9283,6.986,7.0475,7.1091,7.1937,7.2552,7.2783,7.3014,7.3514,7.4322,7.4361,7.4938,7.6207,7.6476,7.6861,7.7438,7.7079,7.6693,7.6246,7.5802,7.5284,7.4737,7.5334,7.5531,7.5396,7.5396,7.5396,7.5346,7.4746,7.4474,7.4327,7.2545,7.1835,7.1762,7.1211,7.0991,7.0991,7.0991,7.1358,7.1835,7.1835,7.1835,7.1835,7.1835,7.1835,7.1835,7.1835,7.1835,7.1835,7.1835,7.2018,7.2165,7.2165,7.2349,7.2496,7.2496,7.2496,7.2679,7.3266,7.3193,7.2936,7.2569,7.2496,7.2496,7.2496,7.2496,7.2496,7.2496,7.2496,7.2496,7.2496,7.2496,7.2496,7.2496,7.2496,7.2496,7.2496,7.2496,7.2496,7.2496,7.2496,7.2496,7.2496,7.2496,7.2496,0.0,0.0,0.0,0.0,0.0,0.0,0.0,0.0,0.0,0.0,0.0,0.0,0.0,0.0,0.0,0.0,0.0,0.0,0.0,0.0,0.0,0.0,6.986,7.0167,7.0014,6.9975,7.0167,7.0706,7.1475,7.2206,7.2706,7.3514,7.4014,7.4014,7.4668,7.5284,7.5745,7.6092,7.6746,7.7746,7.7784,7.79,7.813,7.7532,7.6906,7.6327,7.5968,7.5486,7.4948,7.554,7.5665,7.5403,7.5403,7.5403,7.5375,7.5058,7.4918,7.4771,0.0,0.0,0.0,0.0,7.1798,7.1798,7.1798,7.2129,7.2496,7.2496,7.2496,7.2496,7.2496,7.2753,7.301,7.301,7.3266,7.3523,7.3523,7.3523,7.3523,7.3523,7.3523,7.3523,7.3523,7.3523,7.3634,7.4111,7.4184,0.0,7.3597,7.3523,7.3523,7.3523,7.3523,7.3523,7.3523,7.3523,7.3523,7.3523,7.3523,7.3523,7.3523,7.3523,0.0,0.0,0.0,7.2863,7.2496,7.2496,0.0,0.0,0.0,7.2496,7.2496,7.2496,0.0,0.0,7.2055,7.2018,0.0,0.0,0.0,0.0,0.0,0.0,0.0,0.0,0.0,0.0,0.0,0.0,0.0,0.0,0.0,0.0,7.1052,7.136,7.2206,7.2399,7.2437,7.236,7.3129,7.363,7.363,7.4361,7.4899,7.4976,7.6438,7.7323,7.7438,7.8092,0.0,0.0,0.0,7.8393,7.7912,7.7365,7.6874,7.6345,7.6303,7.5958,7.5469,7.6014,7.5958,7.5469,7.5469,7.5395,7.5322,7.5322,7.5212,7.4955,7.4147,7.3817,7.3744,7.3046,7.2789,7.2789,7.2789,0.0,0.0,7.2789,7.2789,7.2789,7.2789,7.3266,7.3817,7.3817,7.4368,7.4918,7.4918,7.4918,7.4918,7.4918,7.4918,7.4918,7.4918,7.4918,7.4955,7.5028,7.5065,7.5065,7.5175,7.5028,7.4918,7.4918,7.4918,7.4918,7.4918,7.4918,7.4918,7.4918,7.4918,0.0,7.4918,7.4918,7.4588,7.3891,7.3817,7.3523,7.2789,7.2679,7.2642,7.2642,7.2569,7.2496,7.2496,7.2496,7.2496,7.2496,7.2496,7.2496,0.0,0.0,0.0,0.0,0.0,0.0,0.0,0.0,0.0,0.0,0.0,0.0,0.0,0.0,0.0,7.1822,7.1937,7.2245,7.3129,7.3822,7.3976,7.3322,7.3976,7.4476,7.4476,7.5245,7.6053,7.6746,7.7092,7.7592,7.8207,7.84,7.859,7.8825,7.9303,7.9657,7.9865,7.975,7.9704,7.9744,7.9254,0.0,7.8846,7.8964,7.8964,7.8846,7.8846,7.8479,7.7892,7.7892,7.7084,7.5799,7.4992,7.4661,7.4661,7.4515,7.4441,7.4441,7.4441,7.4441,7.4441,7.4441,7.4441,7.4441,7.4441,7.4551,0.0,7.4661,7.4808,7.4918,7.4918,7.4918,7.4918,7.4918,7.4918,7.4918,7.4918,7.4918,7.5102,7.5726,7.5873,7.6093,7.6723,7.5763,7.4918,7.4918,7.4918,7.4918,7.4918,7.4918,7.4918,7.4918,7.4918,7.4918,7.4918,7.4918,7.4845,7.4698,7.4661,7.4625,7.4441,7.3817,7.345,7.345,7.2826,7.2496,7.2496,7.2496,7.2496,7.2496,7.2496,7.2496,0.0,0.0,0.0,0.0,0.0,0.0,0.0,0.0,0.0,0.0,0.0,7.0898,7.0898,0.0,7.1668,7.2129,7.2552,7.3129,7.3976,7.4437,7.4553,7.4168,7.4861,7.5515,7.5976,7.6399,7.7015,7.7823,7.8284,7.8746,7.9131,7.9939,8.0323,8.0125,8.0809,8.0977,8.0566,8.054,8.0458,8.0237,7.9915,7.98,7.98,7.98,7.98,7.98,7.98,7.9543,7.9176,7.9176,7.8699,7.7892,7.7524,7.635,7.4918,7.4918,7.4918,7.4918,7.4918,7.4918,7.4918,7.4918,7.4918,7.4918,7.4918,7.5175,7.5506,7.5506,7.5799,7.6099,7.6099,7.6099,7.624,7.6644,7.6754,7.6864,7.7268,7.7341,7.7451,7.7855,7.7928,7.8075,7.8479,7.7892,7.7084,7.624,7.6099,7.6099,7.6099,7.6099,7.6099,7.6099,7.6099,7.6099,7.6099,7.5726,7.5506,7.5506,7.5139,7.4918,7.4918,7.4515,7.4294,7.4294,7.3927,7.3707,7.3707,7.3707,7.3707,7.3707,7.3707,7.3266,0.0,0.0,0.0,0.0,0.0,0.0,0.0,7.0898,7.0898,7.0898,7.1014,7.1168,7.1168,7.186,7.2514,7.2668,7.3283,7.4014,7.4861,7.4938,7.5014,7.5207,7.5822,7.6515,7.7207,7.7438,7.7861,7.8669,7.9554,8.0046,8.0081,8.1541,8.201,8.1208,8.1977,8.1882,8.0774,8.0879,8.074,8.0241,8.0241,8.0241,8.0241,8.0241,8.0241,8.0241,8.0094,8.0021,8.0021,7.9837,7.98,7.98,7.98,7.8185,7.5873,7.5873,7.5873,7.5873,7.5873,7.5873,7.5873,7.5873,7.5873,7.5873,7.5873,7.6313,7.6827,7.6827,7.7304,7.7818,7.7818,7.7818,7.7965,7.8662,7.8809,7.8993,7.9653,7.98,7.98,7.98,7.98,7.98,7.98,7.98,7.9323,7.8002,7.7818,7.7818,7.7818,7.7818,7.7818,7.7818,7.7818,7.7818,7.7818,7.7194,7.6827,7.6827,7.6056,7.5616,7.5616,7.5322,7.5139,7.5139,7.4992,7.4918,7.4918,7.4918,7.4918,7.4918,7.4918,7.4221,6.6782,6.809,6.9321,6.9513,7.0167,7.0783,0.0,7.0898,7.0898,7.0898,7.1514,7.2052,7.2052,7.2783,7.3591,7.4322,7.4514,7.4861,7.5745,7.5861,7.613,7.6899,7.7092,7.7169,7.7284,7.7938,7.8707,7.9592,8.0477,8.0992,8.1118,8.2052,8.1995,8.0827,8.137,8.1488,8.0987,8.1511,8.1823,8.1929,8.1929,8.1929,8.1929,8.1929,8.1929,8.1893,8.1195,8.0865,8.0828,8.0094,7.98,7.98,7.98,7.958,7.925,7.925,7.925,7.925,7.925,7.925,7.925,7.925,7.925,7.925,7.925,7.9286,7.936,7.936,7.9433,7.9507,7.9507,7.9507,7.9543,7.9617,7.9653,7.969,7.9764,7.98,7.98,7.98,7.98,7.98,7.98,7.98,7.9727,7.9543,7.9507,7.9507,7.9507,7.9507,7.9507,7.9507,7.9507,7.9507,7.9507,7.9433,7.936,7.936,7.8626,7.8185,7.8185,7.6754,7.5983,7.5983,7.5285,7.4918,7.4918,7.4918,7.4918,7.4918,7.4918,7.4808,6.7628,6.8744,6.9706,6.9706,7.0283,7.0898,7.0898,7.1283,7.1668,7.1668,7.236,7.2976,7.2976,7.363,7.4322,7.4668,7.513,7.5592,7.5938,7.6438,7.6899,7.7246,7.8169,7.8746,7.8746,7.8755,7.9274,8.0558,8.0678,8.0929,8.1467,8.2301,8.2357,8.1438,8.2162,8.2276,8.1672,8.1949,8.2134,8.2186,8.2186,8.2186,8.2186,8.2186,8.2186,8.2186,8.1819,8.1709,8.1672,8.1342,8.1195,8.1195,8.1195,8.1195,8.1085,8.0131,7.98,7.98,7.98,7.98,7.98,7.98,7.98,7.98,7.98,7.98,7.98,7.98,7.98,7.98,7.98,7.98,7.991,8.0388,8.0498,8.0608,8.1085,8.1195,8.1195,8.1195,8.1195,8.1195,8.1195,8.1195,8.1195,8.1195,8.0388,7.98,7.98,7.98,7.98,7.98,7.98,7.98,7.98,7.98,7.98,7.98,7.947,7.9286,7.9286,7.8626,7.8038,7.7561,7.7231,7.679,7.6283,7.6283,7.6283,7.6283,7.6283,7.6283,6.8513,6.9398,7.0014,7.0014,7.0508,7.0997,7.0997,7.1688,7.2317,7.2317,7.3135,7.3808,7.3808,7.4388,7.4812,7.4812,7.5541,7.6117,7.6117,7.6846,7.7461,7.7729,7.865,7.9445,7.9904,7.9871,8.0163,8.0988,8.1246,8.1458,8.1671,8.2523,8.2698,8.1986,8.2609,8.2708,8.2186,8.2406,8.2517,8.2517,8.2774,8.2847,8.2847,8.2847,8.2847,8.2847,8.2847,8.2847,8.2847,8.2847,8.2847,8.2847,8.2847,8.2847,8.27,8.1525,8.0828,8.0461,8.0461,8.0461,8.0461,8.0461,8.0461,8.0461,8.0461,8.0461,8.0461,8.0461,8.0461,8.0461,8.0461,8.0461,8.0608,8.1195,8.1342,8.1489,8.2076,8.2186,8.2186,8.2186,8.237,8.2517,8.2517,8.27,8.2847,8.2847,8.1856,8.0938,8.0498,8.0461,8.0461,8.0461,8.0461,8.0461,8.0461,8.0461,8.0461,8.0461,8.0241,8.0131,8.0131,7.991,7.9507,7.8919,7.8919,7.8626,7.8002,7.8002,7.8002,7.8002,7.8002,7.8002,6.9436,7.0244,7.086,7.086,7.1091,7.1298,7.1298,7.1946,7.2574,7.2574,7.369,7.4668,7.4668,7.4922,7.5089,7.5089,7.5814,7.6386,7.6386,7.7092,7.7875,7.8733,7.8327,7.8617,8.024,8.1461,8.1704,8.0537,8.2499,8.3233,8.1941,8.2733,8.2869,8.2215,8.2219,8.2219,8.2186,8.2994,8.3361,8.3398,8.4168,8.4535,8.4535,8.4535,8.4535,8.4535,8.4535,8.4535,8.4535,8.4535,8.4535,8.4535,8.4535,8.4535,8.4535,8.4462,8.3471,8.2113,8.2113,8.2113,8.2113,8.2113,8.2113,8.2113,8.2113,8.2113,8.2113,8.2113,8.2113,8.2113,8.2113,8.2113,8.2113,8.215,8.215,8.215,8.2186,8.2186,8.2186,8.2186,8.2847,8.3361,8.3361,8.4022,8.4535,8.4535,8.4499,8.3875,8.2333,8.2113,8.2113,8.2113,8.2113,8.2113,8.2113,8.2113,8.2113,8.2113,8.1415,8.0975,8.0975,8.0204,7.9764,7.9764,7.9764,7.9727,7.969,7.969,7.969,7.969,7.969,7.969,6.9734,7.0171,7.0397,7.0568,7.1002,7.1401,7.154,7.2548,7.3433,7.3433,7.4261,7.4992,7.4992,7.5376,7.5621,7.541,7.5911,7.6389,7.6558,7.7311,7.7917,7.8182,7.9026,7.9612,7.9762,8.0179,8.0704,8.1345,8.1736,8.1991,8.208,8.2381,8.2402,8.2219,8.2737,8.2994,8.2994,8.3801,8.4205,8.4205,8.4462,8.4609,8.4609,8.4609,8.4609,8.4609,8.4609,8.4609,8.4609,8.4609,8.4609,8.4609,8.4609,8.4609,8.4609,8.4609,8.4278,8.3801,8.3801,8.3434,8.2994,8.2994,8.2627,8.2186,8.2186,8.2186,8.2186,8.2186,8.259,8.2994,8.2994,8.3398,8.3801,8.3801,8.3801,8.3801,8.3801,8.3801,8.3801,8.3801,8.4022,8.4205,8.4205,8.4425,8.4609,8.4609,8.4609,8.4389,8.3875,8.3801,8.3801,8.3801,8.3324,8.2994,8.2994,8.2517,8.2186,8.2186,8.1929,8.1782,8.1782,8.1525,8.1122,8.0608,8.0608,8.0314,7.98,7.98,7.98,7.98,7.98,7.98,6.9907,7.0249,7.0365,7.0808,7.1282,7.17,7.1786,7.2965,7.3972,7.3773,7.4467,7.5054,7.4866,7.5209,7.5416,7.52,7.5969,7.6646,7.6822,7.7539,7.8164,7.844,7.9215,7.9834,8.0028,8.0044,8.0451,8.1526,8.1723,8.1918,8.2182,8.2186,8.2333,8.2627,8.3141,8.3544,8.3838,8.4646,8.5159,8.5453,8.5453,8.5453,8.5453,8.5453,8.5453,8.5453,8.5453,8.5453,8.5453,8.5453,8.5453,8.5453,8.5453,8.5453,8.5453,8.5453,8.5453,8.538,8.4792,8.4278,8.3838,8.3838,8.3471,8.3067,8.3067,8.3067,8.3067,8.3067,8.3434,8.3838,8.3838,8.4205,8.4609,8.4609,8.4609,8.4609,8.4609,8.4609,8.4609,8.4609,8.4829,8.5013,8.5013,8.527,8.5453,8.5453,8.5453,8.527,8.4682,8.4609,8.4609,8.4609,8.4132,8.3838,8.3838,8.3361,8.292,8.2663,8.2627,8.248,8.2186,8.2186,8.1966,8.1452,8.1415,8.1158,8.0645,8.0645,8.0645,8.0645,8.0645,8.0645,7.0043,7.0495,7.0701,7.1487,7.1911,7.2112,7.2099,7.3232,7.4094,7.3541,7.4277,7.4848,7.4358,7.4469,7.4621,7.4644,7.601,7.7106,7.709,7.7808,7.859,7.9372,7.901,7.9323,8.0865,8.1048,8.1048,8.1048,8.2348,8.2883,8.2292,8.226,8.2627,8.3471,8.3508,8.3911,8.4646,8.5453,8.6224,8.6995,8.6995,8.6995,8.6995,8.6995,8.6995,8.6995,8.6995,8.6995,8.6995,8.6995,8.6995,8.6995,8.6995,8.6995,8.6995,8.6995,8.6995,8.6775,8.527,8.4682,8.4646,8.4646,8.4646,8.4609,8.4609,8.4609,8.4609,8.4609,8.4646,8.4646,8.4646,8.4682,8.4719,8.4719,8.4719,8.4719,8.4719,8.4719,8.4719,8.4719,8.5343,8.5857,8.5857,8.6481,8.6995,8.6995,8.6995,8.6444,8.4939,8.4719,8.4719,8.4719,8.4682,8.4646,8.4646,8.4609,8.4278,8.3508,8.3471,8.3141,8.2333,8.226,8.226,8.226,8.2223,8.2186,8.2186,8.2186,8.2186,8.2186,8.2186,8.2219,6.9789,7.0327,7.0918,7.1309,7.1798,7.2223,7.2373,7.3049,7.3615,7.3442,7.3626,7.378,7.3651,7.454,7.517,7.4866,7.6069,7.7087,7.7253,7.7975,7.8601,7.8823,7.9742,8.0571,8.0975,8.1525,8.1893,8.1893,8.2233,8.2633,8.3067,8.3104,8.3471,8.4278,8.4866,8.527,8.549,8.6297,8.6811,8.6995,8.6995,8.6995,8.6995,8.6995,8.6995,8.6995,8.6995,8.6995,8.6995,8.6995,8.6995,8.6995,8.6995,8.6995,8.6995,8.6995,8.6995,8.6958,8.6554,8.6004,8.549,8.549,8.5086,8.4609,8.4609,8.4609,8.4609,8.4609,8.5013,8.549,8.549,8.593,8.6407,8.6407,8.6407,8.6407,8.6407,8.6407,8.6407,8.6407,8.6554,8.6701,8.6701,8.6885,8.6995,8.6995,8.6995,8.6848,8.6444,8.6407,8.6407,8.6407,8.5857,8.549,8.549,8.4939,8.4499,8.4315,8.4278,8.4205,8.3985,8.3434,8.3104,8.3104,8.2517,8.2186,8.2186,8.2186,8.2186,8.2186,8.2186,8.2465,6.9776,7.048,7.1226,7.17,7.207,7.2361,7.2471,7.297,7.3315,7.304,7.3224,7.3427,7.3522,7.4465,7.5283,7.5404,7.6412,7.7303,7.7806,7.8295,7.8846,7.958,8.0461,8.1158,8.1489,8.1929,8.2333,8.27,8.2737,8.292,8.3398,8.3728,8.4315,8.5086,8.5563,8.5967,8.6334,8.6775,8.6995,8.6995,8.6995,8.6995,8.6995,8.6995,8.6995,8.6995,8.6995,8.6995,8.6995,8.6995,8.6995,8.6995,8.6995,8.6995,8.6995,8.6995,8.6995,8.6995,8.6995,8.6701,8.6334,8.6334,8.604,8.5637,8.5637,8.5637,8.5637,8.5637,8.5967,8.6334,8.6334,8.6664,8.6995,8.6995,8.6995,8.6995,8.6995,8.6995,8.6995,8.6995,8.6995,8.6995,8.6995,8.6995,8.6995,8.6995,8.6995,8.6995,8.6995,8.6995,8.6995,8.6995,8.6591,8.6334,8.6334,8.593,8.549,8.5159,8.5123,8.4976,8.4609,8.4168,8.3948,8.3948,8.3471,8.3251,8.3251,8.3251,8.3251,8.3251,8.3251,8.3625,7.0036,7.0844,7.1651,7.2349,7.2496,7.2496,7.2496,7.2889,7.3119,7.2602,7.2916,7.3379,7.3639,7.4368,7.5175,7.5983,7.6864,7.7745,7.8479,7.8772,7.9433,8.0828,8.1085,8.1489,8.226,8.237,8.27,8.3508,8.3654,8.3728,8.3728,8.4389,8.5123,8.593,8.5967,8.6297,8.6995,8.6995,8.6995,8.6995,8.6995,8.6995,8.6995,8.6995,8.6995,8.6995,8.6995,8.6995,8.6995,8.6995,8.6995,8.6995,8.6995,8.6995,8.6995,8.6995,8.6995,8.6995,8.6995,8.6995,8.6995,8.6995,8.6995,8.6995,8.6995,8.6995,8.6995,8.6995,8.6995,8.6995,8.6995,8.6995,8.6995,8.6995,8.6995,8.6995,8.6995,8.6995,8.6995,8.6995,8.6995,8.6995,8.6995,8.6995,8.6995,8.6995,8.6995,8.6995,8.6995,8.6995,8.6995,8.6995,8.6995,8.6995,8.6995,8.6995,8.6701,8.6004,8.5967,8.5637,8.4939,8.4829,8.4756,8.4756,8.4646,8.4609,8.4609,8.4609,8.4639,8.4702,8.4702,8.5138,7.0881,7.1688,7.2349,7.2459,7.2496,7.2496,7.2496,7.261,7.263,7.2524,7.2573,7.2859,7.3553,7.4368,7.5175,7.5983,7.7378,7.8442,7.8589,7.9764,8.0681,8.0975,8.1599,8.2296,8.3104,8.3214,8.3544,8.4352,8.5013,8.538,8.538,8.5527,8.5967,8.6775,8.6811,8.6885,8.6995,8.6995,8.6995,8.6995,8.6995,8.6995,8.6995,8.6995,8.6995,8.6995,8.6995,8.6995,8.6995,8.6995,8.6995,8.6995,8.6995,8.6995,8.6995,8.6995,8.6995,8.6995,8.6995,8.6995,8.6995,8.6995,8.6995,8.6995,8.6995,8.6995,8.6995,8.6995,8.6995,8.6995,8.6995,8.6995,8.6995,8.6995,8.6995,8.6995,8.6995,8.6995,8.6995,8.6995,8.6995,8.6995,8.6995,8.6995,8.6995,8.6995,8.6995,8.6995,8.6995,8.6995,8.6995,8.6995,8.6995,8.6995,8.6995,8.6995,8.6958,8.6811,8.6811,8.6738,8.6591,8.5967,8.56,8.56,8.4939,8.4609,8.4609,8.4609,8.4894,8.5432,8.5432,8.6104,7.1101,7.1908,7.2496,7.2496,7.2496,7.2496,7.2496,7.2496,7.2496,7.2496,7.2826,7.3377,7.4184,7.4992,7.5799,7.6607,7.7781,7.8736,7.9176,8.0241,8.1158,8.1562,8.2333,8.2994,8.3361,8.3801,8.4352,8.5159,8.5563,8.5783,8.5783,8.6187,8.6591,8.6995,8.6995,8.6995,8.6995,8.6995,8.6995,8.6995,8.6995,8.6995,8.6995,8.6995,8.6995,8.6995,8.6995,8.6995,8.6995,8.6995,8.6995,8.6995,8.6995,8.6995,8.6995,8.6995,8.6995,8.6995,8.6995,8.6995,8.6995,8.6995,8.6995,8.6995,8.6995,8.6995,8.6995,8.6995,8.6995,8.6995,8.6995,8.6995,8.6995,8.6995,8.6995,8.6995,8.6995,8.6995,8.6995,8.6995,8.6995,8.6995,8.6995,8.6995,8.6995,8.6995,8.6995,8.6995,8.6995,8.6995,8.6995,8.6995,8.6995,8.6995,8.6995,8.6995,8.6995,8.6995,8.7361,8.7586,8.7586,8.7551,8.7359,8.6994,8.6624,8.625,8.5857,8.6213,8.6586,8.6907,8.7277,8.7991,7.1101,7.1908,7.2496,7.2496,7.2496,7.2496,7.2496,7.2496,7.2496,7.2496,7.312,7.3927,7.4771,7.5579,7.6423,7.7451,7.8295,7.914,7.9947,8.0755,8.1489,8.2113,8.292,8.3471,8.3654,8.4389,8.5196,8.6004,8.604,8.604,8.604,8.6664,8.6995,8.6995,8.6995,8.6995,8.6995,8.6995,8.6995,8.6995,8.6995,8.6995,8.6995,8.6995,8.6995,8.6995,8.6995,8.6995,8.6995,8.6995,8.6995,8.6995,8.6995,8.6995,8.6995,8.6995,8.6995,8.6995,8.6995,8.6995,8.6995,8.6995,8.6995,8.6995,8.6995,8.6995,8.6995,8.6995,8.6995,8.6995,8.6995,8.6995,8.6995,8.6995,8.6995,8.6995,8.6995,8.6995,8.6995,8.6995,8.6995,8.6995,8.6995,8.6995,8.6995,8.6995,8.6995,8.6995,8.6995,8.6995,8.6995,8.6995,8.6995,8.6995,8.6995,8.6995,8.6995,8.6995,8.7678,8.8107,8.8107,8.8719,8.8856,8.8338,8.8309,8.8046,8.7456,8.8046,8.8396,8.8532,8.9095,8.9693,7.1101,7.1908,7.2496,7.2496,7.2496,7.2496,7.2496,7.2496,7.2496,7.2496,7.312,7.3927,7.4771,7.5579,7.6607,7.8222,7.914,7.9947,8.0791,8.1562,8.2113,8.2186,8.292,8.3691,8.4425,8.5233,8.6004,8.6848,8.6885,8.6885,8.6885,8.6958,8.6995,8.6995,8.6995,8.6995,8.6995,8.6995,8.6995,8.6995,8.6995,8.6995,8.6995,8.6995,8.6995,8.6995,8.6995,8.6995,8.6995,8.6995,8.6995,8.6995,8.6995,8.6995,8.6995,8.6995,8.6995,8.6995,8.6995,8.6995,8.6995,8.6995,8.6995,8.6995,8.6995,8.6995,8.6995,8.6995,8.6995,8.6995,8.6995,8.6995,8.6995,8.6995,8.6995,8.6995,8.6995,8.6995,8.6995,8.6995,8.6995,8.6995,8.6995,8.6995,8.6995,8.6995,8.6995,8.6995,8.6995,8.6995,8.6995,8.6995,8.6995,8.6995,8.6995,8.6995,8.6995,8.6995,8.7678,8.8107,8.8107,8.8719,8.9095,8.9016,8.9016,8.899,8.891,8.899,8.9314,8.9901,8.9968,9.0406,7.1176,7.1908,7.2496,7.2496,7.2496,7.2496,7.2496,7.2496,7.2496,7.2496,7.3523,7.4515,7.4845,7.5946,7.7231,7.8405,7.9286,8.0057,8.0901,8.1672,8.2186,8.2186,8.3324,8.4242,8.4572,8.5783,8.6664,8.6995,8.6995,8.6995,8.6995,8.6995,8.6995,8.6995,8.6995,8.6995,8.6995,8.6995,8.6995,8.6995,8.6995,8.6995,8.6995,8.6995,8.6995,8.6995,8.6995,8.6995,8.6995,8.6995,8.6995,8.6995,8.6995,8.6995,8.6995,8.6995,8.6995,8.6995,8.6995,8.6995,8.6995,8.6995,8.6995,8.6995,8.6995,8.6995,8.6995,8.6995,8.6995,8.6995,8.6995,8.6995,8.6995,8.6995,8.6995,8.6995,8.6995,8.6995,8.6995,8.6995,8.6995,8.6995,8.6995,8.6995,8.6995,8.6995,8.6995,8.6995,8.6995,8.6995,8.6995,8.6995,8.6995,8.6995,8.6995,8.6995,8.7197,8.7651,8.8338,8.8883,8.9301,8.9984,9.0155,8.9716,8.9716,8.9487,8.9122,8.9525,8.9832,9.0116,9.0566,9.0914,7.1135,7.1857,7.2553,7.2742,7.263,7.2496,7.2496,7.2496,7.2496,7.2496,7.378,7.4918,7.4918,7.6209,7.7671,7.8772,7.9433,8.0131,8.1195,8.1819,8.2296,8.2517,8.3765,8.4682,8.4939,8.6187,8.6995,8.6995,8.6995,8.6995,8.6995,8.6995,8.6995,8.6995,8.6995,8.6995,8.6995,8.6995,8.6995,8.6995,8.6995,8.6995,8.6995,8.6995,8.6995,8.6995,8.6995,8.6995,8.6995,8.6995,8.6995,8.6995,8.6995,8.6995,8.6995,8.6995,8.6995,8.6995,8.6995,8.6995,8.6995,8.6995,8.6995,8.6995,8.6995,8.6995,8.6995,8.6995,8.6995,8.6995,8.6995,8.6995,8.6995,8.6995,8.6995,8.6995,8.6995,8.6995,8.6995,8.6995,8.6995,8.6995,8.6995,8.6995,8.6995,8.6995,8.6995,8.6995,8.6995,8.6995,8.6995,8.6995,8.6995,8.6995,8.6995,8.7197,8.7554,8.8076,8.891,8.9621,9.0095,9.08,9.0971,9.0447,9.0447,9.0198,8.9716,9.0198,9.0447,9.0447,9.0971,9.121,7.097,7.1722,7.263,7.325,7.2943,7.2496,7.2496,7.2496,7.2496,7.2496,7.378,7.4918,7.4918,7.6209,7.7855,7.9507,7.9764,8.0351,8.1966,8.2186,8.248,8.3287,8.4132,8.4903,8.571,8.6518,8.6995,8.6995,8.6995,8.6995,8.6995,8.6995,8.6995,8.6995,8.6995,8.6995,8.6995,8.6995,8.6995,8.6995,8.6995,8.6995,8.6995,8.6995,8.6995,8.6995,8.6995,8.6995,8.6995,8.6995,8.6995,8.6995,8.6995,8.6995,8.6995,8.6995,8.6995,8.6995,8.6995,8.6995,8.6995,8.6995,8.6995,8.6995,8.6995,8.6995,8.6995,8.6995,8.6995,8.6995,8.6995,8.6995,8.6995,8.6995,8.6995,8.6995,8.6995,8.6995,8.6995,8.6995,8.6995,8.6995,8.6995,8.6995,8.6995,8.6995,8.6995,8.6995,8.6995,8.6995,8.6995,8.6995,8.6995,8.6995,8.6995,8.7683,8.8076,8.8107,8.9339,9.0095,9.0116,9.08,9.121,9.1192,9.1192,9.1192,9.1192,9.1192,9.1192,9.1192,9.121,9.121,7.1394,7.1603,7.1968,7.3127,7.3275,7.3024,7.2573,7.2816,7.2997,7.261,7.334,7.4258,7.4808,7.5763,7.7194,7.9433,7.98,8.0351,8.1966,8.2186,8.248,8.3324,8.4609,8.5747,8.6554,8.6848,8.6995,8.6995,8.6995,8.6995,8.6995,8.6995,8.6995,8.6995,8.6995,8.6995,8.6995,8.6995,8.6995,8.6995,8.6995,8.6995,8.6995,8.6995,8.6995,8.6995,8.6995,8.6995,8.6995,8.6995,8.6995,8.6995,8.6995,8.6995,8.6995,8.6995,8.7295,8.7741,8.7741,8.8039,8.8359,8.7892,8.7741,8.7683,8.7129,8.6995,8.6995,8.6995,8.6995,8.6995,8.6995,8.6995,8.6995,8.6995,8.6995,8.6995,8.6995,8.6995,8.6995,8.6995,8.6995,8.6995,8.6995,8.6995,8.6995,8.6995,8.6995,8.6995,8.6995,8.6995,8.6995,8.6995,8.6995,8.6995,8.6995,8.7683,8.8309,8.8746,8.9621,9.0326,9.0839,9.1082,9.121,9.121,9.121,9.121,9.121,9.121,9.121,9.121,9.121,9.121,7.1767,7.2034,7.2285,7.3709,7.3874,7.3626,7.3275,7.3264,7.329,7.2916,7.3471,7.4236,7.4764,7.5743,7.7194,7.9423,7.98,8.0351,8.1966,8.2186,8.259,8.3728,8.5533,8.6742,8.6993,8.7265,8.7332,8.6995,8.6995,8.6995,8.6995,8.6995,8.6995,8.6995,8.6995,8.6995,8.6995,8.6995,8.6995,8.6995,8.6995,8.6995,8.6995,8.6995,8.6995,8.6995,8.6995,8.6995,0.0,8.6995,8.6995,8.6995,8.6995,8.7163,8.7427,8.7427,8.7861,8.8475,8.8475,8.8589,8.8729,8.8532,8.8309,8.7954,8.7231,8.6995,8.6995,8.6995,8.6995,8.6995,8.6995,8.6995,8.6995,8.6995,8.6995,8.6995,8.6995,8.6995,8.6995,8.6995,8.6995,8.6995,8.6995,8.6995,8.6995,8.6995,8.6995,8.6995,8.6995,8.6995,8.6995,8.6995,8.7265,8.7427,8.7427,8.8039,8.8746,8.9413,9.0116,9.0723,9.1192,9.121,9.121,9.121,9.121,9.121,9.121,9.121,9.121,9.121,9.121,9.121,0.0,7.2813,7.3229,7.4676,7.4673,7.4336,7.4315,7.3911,0.0,7.3417,7.405,7.4699,7.4882,7.6041,7.7627,7.9541,7.9827,8.0414,8.2091,8.2389,8.2986,8.4425,8.6683,8.7804,8.7064,8.7683,8.7804,8.7064,8.6995,8.6995,8.6995,8.6995,8.6995,8.6995,8.6995,8.6995,8.6995,8.6995,8.6995,8.6995,8.6995,8.6995,8.6995,8.6995,8.6995,8.6995,8.6995,8.6995,8.6995,8.6995,8.6995,8.6995,8.6995,8.746,8.8107,8.8107,8.856,8.9161,8.9161,8.8801,8.8426,8.8937,8.8673,8.7954,8.7231,8.6995,8.6995,8.6995,8.6995,8.6995,8.6995,8.6995,8.6995,8.6995,8.6995,8.6995,8.6995,8.6995,8.6995,8.6995,8.6995,8.6995,8.6995,8.6995,8.6995,8.6995,8.6995,8.6995,8.6995,8.6995,8.6995,8.6995,8.7683,8.8137,8.8167,8.8774,8.9451,9.0073,9.0781,9.121,9.121,9.121,9.121,9.121,9.121,9.121,9.121,9.121,9.121,9.121,9.121,9.121,7.2807,0.0,7.2419,7.3819,7.4542,7.479,0.0,7.4489,7.443,7.3578,7.4407,7.5232,7.4932,7.6106,7.7808,8.0134,8.0124,8.0708,8.3372,8.4356,8.4762,8.4602,8.6683,8.7804,8.7064,8.7683,8.7804,8.7064,8.6995,8.6995,8.6995,8.6995,8.6995,8.6995,8.6995,8.6995,8.6995,8.6995,8.6995,8.6995,8.6995,8.6995,8.6995,8.6995,8.6995,8.6995,8.6995,8.6995,8.6995,8.6995,8.6995,8.6995,8.6995,8.746,8.8107,8.8107,8.8856,8.9855,8.9855,9.0155,9.0322,8.9402,8.8673,8.7954,8.7231,8.6995,8.6995,8.6995,8.6995,8.6995,8.6995,8.6995,8.6995,8.6995,8.6995,8.6995,8.6995,8.6995,8.6995,8.6995,8.6995,8.6995,8.6995,8.6995,8.6995,8.6995,8.6995,8.6995,8.6995,8.6995,8.6995,8.6995,8.7683,8.8309,8.8829,8.9462,8.9923,9.0095,9.0781,9.121,9.121,9.121,9.121,9.121,9.121,9.121,9.121,9.121,9.121,9.121,9.121,9.121,7.2552,7.2738,7.2955,7.4473,7.519,7.543,7.5129,7.5111,7.4848,7.4003,7.4956,7.5705,7.5048,7.6536,7.8524,8.043,8.0465,8.1021,8.3426,8.4547,8.5113,8.5086,8.7123,8.8309,8.7586,8.813,8.8279,8.7554,8.7197,8.6995,8.6995,8.6995,8.6995,8.6995,8.6995,8.6995,8.6995,8.6995,8.6995,8.6995,8.6995,8.6995,8.6995,8.6995,8.6995,8.6995,8.6995,8.6995,8.6995,8.6995,8.6995,8.6995,8.6995,8.746,8.8137,8.8446,8.9187,9.016,9.0488,9.0876,9.0971,8.9549,8.8856,8.8417,8.7709,8.7265,8.6995,8.6995,8.6995,8.6995,8.6995,8.6995,8.6995,8.6995,8.6995,8.6995,8.6995,8.6995,8.6995,8.6995,8.6995,8.6995,8.6995,8.6995,8.6995,8.6995,8.6995,8.6995,8.6995,8.6995,8.7132,8.7493,8.813,8.8829,8.9487,9.022,9.0606,9.0606,9.0989,9.121,9.121,9.121,9.121,9.121,9.121,9.121,9.121,9.121,9.121,9.121,9.121,9.121,7.2129,7.2937,7.386,7.5438,7.5899,7.6015,7.6015,7.56,7.5054,7.4422,7.5606,7.6382,7.5264,7.7188,7.9393,8.0735,8.1163,8.1744,8.2888,8.3997,8.4907,8.5379,8.7482,8.8678,8.813,8.8801,8.8937,8.8167,8.7521,8.7132,8.7031,8.6995,8.6995,8.6995,8.6995,8.6995,8.6995,8.6995,8.6995,8.6995,8.6995,8.6995,8.6995,8.6995,8.6995,8.6995,8.6995,8.6995,8.6995,8.6995,8.6995,8.6995,8.6995,8.746,8.8197,8.8719,8.9451,9.0203,9.0914,9.1118,9.0839,8.9525,8.9043,8.8829,8.813,8.7526,8.6995,8.6995,8.6995,8.6995,8.6995,8.6995,8.6995,8.6995,8.6995,8.6995,8.6995,8.6995,8.6995,8.6995,8.6995,8.6995,8.6995,8.6995,8.6995,8.6995,8.6995,8.6995,8.6995,8.6995,8.7231,8.7867,8.8608,8.9314,8.9901,9.0723,9.121,9.121,9.121,9.121,9.121,9.121,9.121,9.121,9.121,9.121,9.121,9.121,9.121,9.121,9.121,9.121,7.286,7.3399,7.3745,7.4668,7.5438,7.6015,7.6015,7.5932,7.5551,7.4506,7.6349,7.7676,7.6069,7.759,7.9683,8.1304,8.3165,8.3936,8.2548,8.4038,8.5143,8.4825,8.6714,8.8103,8.8093,8.9213,8.9413,8.816,8.7985,8.7683,8.7029,8.6995,8.6995,8.6995,8.6995,8.6995,8.6995,8.6995,8.6995,8.6995,8.6995,8.6995,8.6995,8.6995,8.6995,8.6995,8.6995,8.6995,8.6995,8.6995,8.6995,8.6995,8.6995,8.746,8.8107,8.819,8.9043,9.0203,9.0914,9.0781,9.0138,8.9339,8.8691,8.8137,8.7394,8.7098,8.6995,8.6995,8.6995,8.6995,8.6995,8.6995,8.6995,8.6995,8.6995,8.6995,8.6995,8.6995,8.6995,8.6995,8.6995,8.6995,8.6995,8.6995,8.6995,8.6995,8.6995,8.6995,8.6995,8.6995,8.7029,8.7129,8.833,8.9148,8.9213,9.0426,9.121,9.121,9.121,9.121,9.121,9.121,9.121,9.121,9.121,9.121,9.121,9.121,9.121,9.121,9.121,9.121,7.3168,7.3822,7.4361,7.5207,7.5707,7.6015,7.6015,7.6015,7.5772,7.4905,7.6752,7.8041,7.6609,7.8157,8.0037,8.098,8.2786,8.3772,8.2883,8.3641,8.4518,8.5064,8.6437,8.7548,8.8063,8.8673,8.8746,8.8167,8.7709,8.7361,8.6995,8.6995,8.6995,8.6995,8.6995,8.6995,8.6995,8.6995,8.6995,8.6995,8.6995,8.6995,8.6995,8.6995,8.6995,8.6995,8.6995,8.6995,8.6995,8.6995,8.6995,8.6995,8.6995,8.7197,8.7554,8.7923,8.8719,8.9621,8.9939,8.9832,8.9525,8.9225,8.8673,8.8046,8.7715,8.7332,8.6995,8.6995,8.6995,8.6995,8.6995,8.6995,8.6995,8.6995,8.6995,8.6995,8.6995,8.6995,8.6995,8.6995,8.6995,8.6995,8.6995,8.6995,8.6995,8.6995,8.6995,8.6995,8.6995,8.6995,8.7129,8.7554,8.8503,8.9276,8.9621,9.0586,9.121,9.121,9.121,9.121,9.121,9.121,9.121,9.121,9.121,9.121,9.121,9.121,9.121,9.121,9.121,9.121,7.3283,7.4091,7.4899,7.5784,7.6015,7.6015,7.6015,7.6015,7.5833,7.5236,7.6803,7.7973,7.6884,7.8652,8.031,8.0461,8.2032,8.3132,8.2994,8.3201,8.3778,8.4953,8.5976,8.6945,8.7734,8.8137,8.8279,8.8107,8.7586,8.7163,8.6995,8.6995,8.6995,8.6995,8.6995,8.6995,8.6995,8.6995,8.6995,8.6995,8.6995,8.6995,8.6995,8.6995,8.6995,8.6995,8.6995,8.6995,8.6995,8.6995,8.6995,8.6995,8.6995,8.6995,8.7098,8.7836,8.8417,8.8883,8.9069,8.9016,8.8856,8.8856,8.8388,8.7836,8.7836,8.746,8.6995,8.6995,8.6995,8.6995,8.6995,8.6995,8.6995,8.6995,8.6995,8.6995,8.6995,8.6995,8.6995,8.6995,8.6995,8.6995,8.6995,8.6995,8.6995,8.6995,8.6995,8.6995,8.6995,8.6995,8.7231,8.7773,8.8446,8.9225,9.0013,9.0762,9.121,9.121,9.121,9.121,9.121,9.121,9.121,9.121,9.121,9.121,9.121,9.121,9.121,9.121,9.121,9.121,7.3283,7.4091,7.4899,7.5784,7.6015,7.6015,7.6015,7.6015,7.5833,7.5236,7.6482,7.7474,7.6819,7.8866,8.0479,7.9977,8.1719,8.2994,8.2375,8.2837,8.3314,8.3525,8.4824,8.605,8.6907,8.8213,8.8774,8.8167,8.8046,8.7709,8.7029,8.6995,8.6995,8.6995,8.6995,8.6995,8.6995,8.6995,8.6995,8.6995,8.6995,8.6995,8.6995,8.6995,8.6995,8.6995,8.6995,8.6995,8.6995,8.6995,8.6995,8.6995,8.6995,8.6995,8.7098,8.7836,8.8137,8.8249,8.8883,8.8663,8.8197,8.8197,8.7683,8.7098,8.7098,8.7029,8.6995,8.6995,8.6995,8.6995,8.6995,8.6995,8.6995,8.6995,8.6995,8.6995,8.6995,8.6995,8.6995,8.6995,8.6995,8.6995,8.6995,8.6995,8.6995,8.6995,8.6995,8.6995,8.6995,8.6995,8.6995,8.7064,8.7741,8.8729,8.9968,9.0762,9.121,9.121,9.121,9.121,9.121,9.121,9.121,9.121,9.121,9.121,9.121,9.121,9.121,9.121,9.121,9.121,7.4014,7.4861,7.5592,7.5938,7.6015,7.6015,7.6015,7.6015,7.6086,7.6392,7.7082,7.764,7.7678,7.9216,8.0341,7.9872,8.0929,8.1944,8.2178,8.2439,8.276,8.332,8.3913,8.4732,8.6094,8.6714,8.7153,8.7423,8.7427,8.7261,8.6995,8.6995,8.6995,8.6995,8.6995,8.6995,8.6995,8.6995,8.6995,8.6995,8.6995,8.6995,8.6995,8.6995,8.6995,8.6995,8.6995,8.6995,8.6995,8.6995,8.6995,8.6995,8.6995,8.6995,8.7029,8.7295,8.7427,8.7423,8.7709,8.7614,8.7427,8.7427,8.7231,8.6995,8.6995,8.6995,8.6995,8.6995,8.6995,8.6995,8.6995,8.6995,8.6995,8.6995,8.6995,8.6995,8.6995,8.6995,8.6995,8.6995,8.6995,8.6995,8.6995,8.6995,8.6995,8.6995,8.6995,8.6995,8.6995,8.6995,8.6995,8.6995,8.7683,8.8475,8.9389,9.0116,9.0508,9.0508,9.0971,9.121,9.121,9.121,9.121,9.121,9.121,9.121,9.121,9.121,9.121,9.121,9.121,9.121,7.4476,7.5361,7.5947,7.5749,7.5718,7.567,7.5501,7.5756,7.6201,7.6846,7.7227,7.7515,7.7913,7.8996,7.9817,7.9805,8.0461,8.1269,8.2076,8.2186,8.2406,8.2957,8.3251,8.3838,8.4939,8.549,8.604,8.6591,8.6885,8.6995,8.6995,8.6995,8.6995,8.6995,8.6995,8.6995,8.6995,8.6995,8.6995,8.6995,8.6995,8.6995,8.6995,8.6995,8.6995,8.6995,8.6995,8.6995,8.6995,8.6995,8.6995,8.6995,8.6995,8.6995,8.6995,8.6995,8.6995,8.6995,8.6995,8.6995,8.6995,8.6995,8.6995,8.6995,8.6995,8.6995,8.6995,8.6995,8.6995,8.6995,8.6995,8.6995,8.6995,8.6995,8.6995,8.6995,8.6995,8.6995,8.6995,8.6995,8.6995,8.6995,8.6995,8.6995,8.6995,8.6995,8.6995,8.6995,8.6995,8.6995,8.6995,8.6995,8.7683,8.8279,8.8746,8.9389,8.9878,9.0095,9.0586,9.0971,9.121,9.121,9.121,9.121,9.121,9.121,9.121,9.121,9.121,9.121,9.121,9.121,7.4514,7.5308,7.5833,7.5254,7.5091,7.4961,7.4422,7.5147,7.6033,7.6252,7.6685,7.707,7.7279,7.8002,7.8846,7.9653,8.0461,8.1269,8.2076,8.2186,8.2186,8.2186,8.292,8.3398,8.3398,8.4829,8.5783,8.5783,8.6518,8.6995,8.6995,8.6995,8.6995,8.6995,8.6995,8.6995,8.6995,8.6995,8.6995,8.6995,8.6995,8.6995,8.6995,8.6995,8.6995,8.6995,8.6995,8.6995,8.6995,8.6995,8.6995,8.6995,8.6995,8.6995,8.6995,8.6995,8.6995,8.6995,8.6995,8.6995,8.6995,8.6995,8.6995,8.6995,8.6995,8.6995,8.6995,8.6995,8.6995,8.6995,8.6995,8.6995,8.6995,8.6995,8.6995,8.6995,8.6995,8.6995,8.6995,8.6995,8.6995,8.6995,8.6995,8.6995,8.6995,8.6995,8.6995,8.6995,8.6995,8.6995,8.6995,8.6995,8.7683,8.8076,8.8076,8.8691,8.9402,9.0073,9.0116,9.0447,9.1192,9.121,9.121,9.121,9.121,9.121,9.121,9.121,9.121,9.121,9.121,9.121,7.5287,7.5226,7.4847,7.5054,7.4828,7.4506,7.4336,7.4547,7.5008,7.5793,7.7338,7.8303,7.7473,7.7902,7.8512,7.8903,7.9617,8.0424,8.1232,8.1819,8.2186,8.2186,8.2406,8.2774,8.3361,8.3838,8.4352,8.4903,8.571,8.6151,8.6151,8.6701,8.6995,8.6995,8.6995,8.6995,8.6995,8.6995,8.6995,8.6995,8.6995,8.6995,8.6995,8.6995,8.6995,8.6995,8.6995,8.6995,8.6995,8.6995,8.6995,8.6995,8.6995,8.6995,8.6995,8.6995,8.6995,8.6995,8.6995,8.6995,8.6995,8.6995,8.6995,8.6995,8.6995,8.6995,8.6995,8.6995,8.6995,8.6995,8.6995,8.6995,8.6995,8.6995,8.6995,8.6995,8.6995,8.6995,8.6995,8.6995,8.6995,8.6995,8.6995,8.6995,8.6995,8.6995,8.6995,8.6995,8.6995,8.6995,8.6995,8.6995,8.7197,8.7328,8.7328,8.7985,8.8663,8.9339,8.9832,9.0447,9.1192,9.121,9.121,9.121,9.121,9.121,9.121,9.121,9.121,9.121,9.121,9.121,7.5321,7.4999,7.4336,7.4405,7.419,7.3888,7.3664,7.4271,7.5092,7.5678,7.7222,7.8218,7.742,7.7622,7.8093,7.8535,7.9286,8.0057,8.0901,8.1672,8.2186,8.2186,8.2186,8.237,8.2884,8.3214,8.3618,8.4095,8.4866,8.5306,8.5306,8.6077,8.6518,8.6518,8.6848,8.6995,8.6995,8.6995,8.6995,8.6995,8.6995,8.6995,8.6995,8.6995,8.6995,8.6995,8.6995,8.6995,8.6995,8.6995,8.6995,8.6995,8.6995,8.6995,8.6995,8.6995,8.6995,8.6995,8.6995,8.6995,8.6995,8.6995,8.6995,8.6995,8.6995,8.6995,8.6995,8.6995,8.6995,8.6995,8.6995,8.6995,8.6995,8.6995,8.6995,8.6995,8.6995,8.6995,8.6995,8.6995,8.6995,8.6995,8.6995,8.6995,8.6995,8.6995,8.6995,8.6995,8.6995,8.6995,8.6995,8.6995,8.6995,8.6995,8.6995,8.7394,8.807,8.9043,8.9462,9.0138,9.1136,9.121,9.121,9.121,9.121,9.121,9.121,9.121,9.121,9.121,9.121,9.121,7.4845,7.4571,7.4026,7.3504,7.3366,7.3172,7.263,7.4136,7.5607,7.5681,7.6565,7.7273,7.7273,7.7273,7.753,7.8369,7.914,7.9947,8.0791,8.1562,8.2113,8.2186,8.2186,8.2186,8.2186,8.2884,8.3287,8.3287,8.4058,8.4499,8.4499,8.5233,8.5673,8.5673,8.6407,8.6811,8.6885,8.6885,8.6921,8.6995,8.6995,8.6995,8.6995,8.6995,8.6995,8.6995,8.6995,8.6995,8.6995,8.6995,8.6995,8.6995,8.6995,8.6995,8.6995,8.6995,8.6995,8.6995,8.6995,8.6995,8.6995,8.6995,8.6995,8.6995,8.6995,8.6995,8.6995,8.6995,8.6995,8.6995,8.6995,8.6995,8.6995,8.6995,8.6995,8.6995,8.6995,8.6995,8.6995,8.6995,8.6995,8.6995,8.6995,8.6995,8.6995,8.6995,8.6995,8.6995,8.6995,8.6995,8.6995,8.6995,8.6995,8.6995,8.6995,8.7064,8.7678,8.9016,8.9173,8.9801,9.1136,9.121,9.121,9.121,9.121,9.121,9.121,9.121,9.121,9.121,9.121,9.121,7.4447,7.3699,7.297,7.3315,7.3013,7.2658,7.2524,7.3345,7.4335,7.4969,7.6257,7.7273,7.7273,7.7273,7.7347,7.753,7.8295,7.914,7.9947,8.0755,8.1489,8.2113,8.2186,8.2186,8.2186,8.237,8.2443,8.2443,8.3214,8.3654,8.3654,8.4425,8.4866,8.4866,8.5049,8.5416,8.604,8.604,8.6371,8.6995,8.6995,8.6995,8.6995,8.6995,8.6995,8.6995,8.6995,8.6995,8.6995,8.6995,8.6995,8.6995,8.6995,8.6995,8.6995,8.6995,8.6995,8.6995,8.6995,8.6995,8.6995,8.6995,8.6995,8.6995,8.6995,8.6995,8.6995,8.6995,8.6995,8.6995,8.6995,8.6995,8.6995,8.6995,8.6995,8.6995,8.6995,8.6995,8.6995,8.6995,8.6995,8.6995,8.6995,8.6995,8.6995,8.6995,8.6995,8.6995,8.6995,8.6995,8.6995,8.6995,8.6995,8.6995,8.6995,8.7521,8.822,8.9069,8.9583,9.0284,9.1136,9.121,9.121,9.121,9.121,9.121,9.121,9.121,9.121,9.121,9.121,9.121,7.3865,7.3198,7.2582,7.2862,7.2705,7.2496,7.2496,7.312,7.3927,7.4735,7.5873,7.6864,7.7237,7.7273,7.7273,7.7273,7.8038,7.8736,7.9176,8.0241,8.1158,8.1562,8.1966,8.2186,8.2186,8.2186,8.2186,8.2186,8.259,8.2847,8.2847,8.3581,8.4022,8.4022,8.4389,8.4792,8.5233,8.5233,8.5637,8.6444,8.6444,8.6628,8.6995,8.6995,8.6995,8.6995,8.6995,8.6995,8.6995,8.6995,8.6995,8.6995,8.6995,8.6995,8.6995,8.6995,8.6995,8.6995,8.6995,8.6995,8.6995,8.6995,8.6995,8.6995,8.6995,8.6995,8.6995,8.6995,8.6995,8.6995,8.6995,8.6995,8.6995,8.6995,8.6995,8.6995,8.6995,8.6995,8.6995,8.6995,8.6995,8.6995,8.6995,8.6995,8.6995,8.6995,8.6995,8.6995,8.6995,8.6995,8.6995,8.6995,8.6995,8.6995,8.6995,8.7683,8.8396,8.9069,8.974,9.0447,9.1192,9.121,9.121,9.121,9.121,9.121,9.121,9.121,9.121,9.121,9.121,9.121,7.329,7.2899,7.2496,7.2496,7.2496,7.2496,7.2496,7.301,7.3707,7.4551,7.5432,7.635,7.7127,7.7273,7.7273,7.7273,7.7928,7.8442,7.8589,7.9874,8.0828,8.0975,8.1709,8.2186,8.2186,8.2186,8.2186,8.2186,8.2186,8.2186,8.2186,8.2847,8.3214,8.3214,8.3838,8.4242,8.4389,8.4389,8.4792,8.56,8.571,8.6151,8.6811,8.6958,8.6995,8.6995,8.6995,8.6995,8.6995,8.6995,8.6995,8.6995,8.6995,8.6995,8.6995,8.6995,8.6995,8.6995,8.6995,8.6995,8.6995,8.6995,8.6995,8.6995,8.6995,8.6995,8.6995,8.6995,8.6995,8.6995,8.6995,8.6995,8.6995,8.6995,8.6995,8.6995,8.6995,8.6995,8.6995,8.6995,8.6995,8.6995,8.6995,8.6995,8.6995,8.6995,8.6995,8.6995,8.6995,8.6995,8.6995,8.6995,8.6995,8.6958,8.6811,8.755,8.8241,8.8617,8.9414,9.0127,9.0731,9.0787,9.0787,9.0787,9.1056,9.1133,9.0979,9.0979,9.0902,9.0787,9.0787,9.0787,7.2889,7.2582,7.2496,7.2496,7.2496,7.2496,7.2496,7.2569,7.2899,7.367,7.5065,7.635,7.7127,7.7273,7.7273,7.7273,7.7384,7.7745,7.8479,7.9396,8.0204,8.0938,8.1709,8.2186,8.2186,8.2186,8.2186,8.2186,8.2186,8.2186,8.2186,8.2296,8.237,8.237,8.2443,8.2847,8.3581,8.3581,8.3985,8.4756,8.5453,8.5857,8.5967,8.6701,8.6995,8.6995,8.6995,8.6995,8.6995,8.6995,8.6995,8.6995,8.6995,8.6995,8.6995,8.6995,8.6995,8.6995,8.6995,8.6995,8.6995,8.6995,8.6995,8.6995,8.6995,8.6995,8.6995,8.6995,8.6995,8.6995,8.6995,8.6995,8.6995,8.6995,8.6995,8.6995,8.6995,8.6995,8.6995,8.6995,8.6995,8.6995,8.6995,8.6995,8.6995,8.6995,8.6995,8.6995,8.6995,8.6995,8.6995,8.6995,8.6995,8.6738,8.6004,8.7138,8.7596,8.6971,8.8165,8.8927,8.9017,8.9017,8.9017,8.9017,9.0441,9.0825,9.0094,9.0094,8.971,8.9017,8.9017,8.9017,7.2742,7.2496,7.2496,7.2496,7.2496,7.2496,7.2496,7.2496,7.2716,7.3523,7.4258,7.5139,7.6423,7.7011,7.7273,7.7273,7.7273,7.742,7.7818,7.8589,7.9433,8.0241,8.1048,8.1709,8.215,8.2186,8.2186,8.2186,8.2186,8.2186,8.2186,8.2186,8.2186,8.2186,8.2186,8.237,8.2737,8.2737,8.3141,8.3948,8.4756,8.5123,8.5159,8.5967,8.6591,8.6995,8.6995,8.6995,8.6995,8.6995,8.6995,8.6995,8.6995,8.6995,8.6995,8.6995,8.6995,8.6995,8.6995,8.6995,8.6995,8.6995,8.6995,8.6995,8.6995,8.6995,8.6995,8.6995,8.6995,8.6995,8.6995,8.6995,8.6995,8.6995,8.6995,8.6995,8.6995,8.6995,8.6995,8.6995,8.6995,8.6995,8.6995,8.6995,8.6995,8.6995,8.6995,8.6995,8.6995,8.6995,8.6848,8.6371,8.6334,8.6004,8.5196,8.602,8.6588,8.6606,8.7574,8.8288,8.8671,8.8709,8.8709,8.8709,8.9402,8.9594,8.9248,8.9248,8.9056,8.8709,8.8709,8.8709,7.2602,7.2496,7.2496,7.2496,7.2496,7.2496,7.2496,7.2496,7.2679,7.3266,7.356,7.4111,7.5542,7.646,7.7053,7.7273,7.7273,7.7273,7.7273,7.8075,7.8809,7.9396,8.0388,8.1232,8.1819,8.2076,8.2186,8.2186,8.2186,8.2186,8.2186,8.2186,8.2186,8.2186,8.2186,8.2186,8.2186,8.2186,8.2517,8.3104,8.3911,8.4315,8.4315,8.5123,8.593,8.6701,8.6921,8.6995,8.6995,8.6995,8.6995,8.6995,8.6995,8.6995,8.6995,8.6995,8.6995,8.6995,8.6995,8.6995,8.6995,8.6995,8.6995,8.6995,8.6995,8.6995,8.6995,8.6995,8.6995,8.6995,8.6995,8.6995,8.6995,8.6995,8.6995,8.6995,8.6995,8.6995,8.6995,8.6995,8.6995,8.6995,8.6995,8.6995,8.6995,8.6995,8.6995,8.6921,8.6738,8.6701,8.6407,8.5563,8.549,8.5159,8.4352,8.4898,8.5508,8.5965,8.6647,8.7331,8.8,8.8017,8.8017,8.8017,8.8017,8.8132,8.8363,8.8363,8.8248,8.8017,8.8017,8.8017,7.2496,7.2496,7.2496,7.2496,7.2496,7.2496,7.2496,7.2496,7.2496,7.2569,7.3156,7.3964,7.4808,7.5616,7.6423,7.7163,7.7273,7.7273,7.7273,7.8075,7.8626,7.8662,8.0057,8.1012,8.1048,8.1746,8.2186,8.2186,8.2186,8.2186,8.2186,8.2186,8.2186,8.2186,8.2186,8.2186,8.2186,8.2186,8.2223,8.226,8.3104,8.3471,8.3508,8.4315,8.5086,8.5894,8.6664,8.6995,8.6995,8.6995,8.6995,8.6995,8.6995,8.6995,8.6995,8.6995,8.6995,8.6995,8.6995,8.6995,8.6995,8.6995,8.6995,8.6995,8.6995,8.6995,8.6995,8.6995,8.6995,8.6995,8.6995,8.6995,8.6995,8.6995,8.6995,8.6995,8.6995,8.6995,8.6995,8.6995,8.6995,8.6995,8.6995,8.6995,8.6995,8.6995,8.6995,8.6738,8.5967,8.5857,8.5527,8.4756,8.4646,8.4352,8.3544,8.4089,8.4433,8.4343,8.4876,8.5552,8.6231,8.6247,8.6247,8.6247,8.6247,8.6632,8.7478,8.7478,8.7055,8.6247,8.6247,8.6247,7.2496,7.2496,7.2496,7.2496,7.2496,7.2496,7.2496,7.2496,7.2496,7.2496,7.312,7.3927,7.4771,7.5579,7.635,7.7163,7.7273,7.7273,7.7273,7.7598,7.7965,7.8516,7.9103,7.9653,8.0167,8.0975,8.1415,8.1415,8.1893,8.2186,8.2186,8.2186,8.2186,8.2186,8.2186,8.2186,8.2186,8.2186,8.2186,8.2186,8.248,8.2627,8.2663,8.3471,8.3985,8.4352,8.5673,8.6518,8.6995,8.6995,8.6995,8.6995,8.6995,8.6995,8.6995,8.6995,8.6995,8.6995,8.6995,8.6995,8.6995,8.6995,8.6995,8.6995,8.6995,8.6995,8.6995,8.6995,8.6995,8.6995,8.6995,8.6995,8.6995,8.6995,8.6995,8.6995,8.6995,8.6995,8.6995,8.6995,8.6995,8.6995,8.6995,8.6995,8.6995,8.6995,8.6554,8.6114,8.582,8.5343,8.4719,8.3911,8.3838,8.3508,8.27,8.2844,8.3321,8.4167,8.4396,8.4995,8.606,8.6094,8.6094,8.6094,8.6094,8.6247,8.6555,8.6555,8.6401,8.6094,8.6094,8.6094,7.2496,7.2496,7.2496,7.2496,7.2496,7.2496,7.2496,7.2496,7.2569,7.2863,7.334,7.4037,7.5102,7.5726,7.635,7.7163,7.7273,7.7273,7.7273,7.7273,7.7494,7.8112,7.8405,7.8809,7.9323,8.0131,8.0718,8.0975,8.1489,8.1929,8.2186,8.2186,8.2186,8.2186,8.2186,8.2186,8.2186,8.2186,8.2186,8.2186,8.2186,8.2186,8.2223,8.2737,8.3141,8.3471,8.4829,8.5857,8.6628,8.6885,8.6995,8.6995,8.6995,8.6995,8.6995,8.6995,8.6995,8.6995,8.6995,8.6995,8.6995,8.6995,8.6995,8.6995,8.6995,8.6995,8.6995,8.6995,8.6995,8.6995,8.6995,8.6995,8.6995,8.6995,8.6995,8.6995,8.6995,8.6995,8.6995,8.6995,8.6995,8.6995,8.6995,8.6775,8.6591,8.6591,8.5894,8.5306,8.5013,8.4535,8.3911,8.3104,8.2994,8.2774,8.226,8.2407,8.3024,8.4129,8.4396,8.4995,8.606,8.6094,8.6094,8.6094,8.6094,8.6094,8.6094,8.6094,8.6094,8.6094,8.6094,8.6094,0.0,0.0,0.0,7.2496,7.2496,7.2496,7.2496,7.2532,7.2753,7.3523,7.3744,7.4258,7.5799,7.613,7.6387,7.7163,7.7273,7.7273,7.7273,7.7273,7.7273,7.7273,7.8075,7.8552,7.8552,7.9286,8.0094,8.0865,8.0975,8.1342,8.2113,8.2186,8.2186,8.2186,8.2186,8.2186,8.2186,8.2186,8.2186,8.2186,8.2186,8.2186,8.2186,8.2186,8.2627,8.3434,8.4242,8.5013,8.582,8.6664,8.6995,8.6995,8.6995,8.6995,8.6995,8.6995,8.6995,8.6995,8.6995,8.6995,8.6995,8.6995,8.6995,8.6995,8.6995,8.6995,8.6995,8.6995,8.6995,8.6995,8.6995,8.6995,8.6995,8.6995,8.6995,8.6995,8.6995,8.6995,8.6995,8.6995,8.6995,8.6995,8.6995,8.6334,8.5783,8.5747,8.5086,8.4278,8.3508,8.3398,8.3067,8.226,8.2186,8.2186,8.2186,8.2793,8.3461,8.4129,8.474,8.5379,8.606,8.6077,8.6094,8.6094,8.6094,8.6094,8.6094,8.6094,8.6094,8.6094,8.6094,8.6094,7.2496,0.0,0.0,0.0,0.0,0.0,7.2496,7.2936,7.3413,7.3634,7.4625,7.5579,7.6019,7.6607,7.7017,7.7237,7.7273,7.7273,7.7273,7.7273,7.7273,7.7273,7.7494,7.7671,7.7671,7.8442,7.9029,7.925,8.0351,8.1122,8.1342,8.1893,8.2186,8.2186,8.2186,8.2186,8.2186,8.2186,8.2186,8.2186,8.2186,8.2186,8.2186,8.2186,8.2333,8.259,8.3398,8.4205,8.5049,8.6444,8.6995,8.6995,8.6995,8.6995,8.6995,8.6995,8.6995,8.6995,8.6995,8.6995,8.6995,8.6995,8.6995,8.6995,8.6995,8.6995,8.6995,8.6995,8.6995,8.6995,8.6995,8.6995,8.6995,8.6995,8.6995,8.6995,8.6995,8.6995,8.6995,8.6995,8.6995,8.6811,8.6224,8.593,8.56,8.5013,8.4242,8.3654,8.3434,8.2884,8.2443,8.2223,8.2186,8.2186,8.2186,8.2375,8.2763,8.3433,8.4104,8.4718,8.536,8.5846,8.6094,8.6094,8.6094,8.6094,8.6094,8.6094,8.6094,8.6094,8.6094,8.6094,0.0,0.0,7.2496,7.2496,0.0,0.0,7.2936,7.334,7.3891,7.4551,7.5432,7.6203,7.6533,7.698,7.7273,7.7273,7.7273,7.7273,7.7273,7.7273,7.7273,7.7273,7.7273,7.7273,7.7273,7.7781,7.8222,7.8552,7.947,8.0277,8.0975,8.1746,8.2186,8.2186,8.2186,8.2186,8.2186,8.2186,8.2186,8.2186,8.2186,8.2186,8.2186,8.2186,8.2186,8.2223,8.3067,8.3691,8.4242,8.5857,8.6701,8.6995,8.6995,8.6995,8.6995,8.6995,8.6995,8.6995,8.6995,8.6995,8.6995,8.6995,8.6995,8.6995,8.6995,8.6995,8.6995,8.6995,8.6995,8.6995,8.6995,8.6995,8.6995,8.6995,8.6995,8.6921,8.6591,8.6518,8.6518,8.6518,8.6518,8.6224,8.5453,8.5013,8.4646,8.4168,8.3434,8.292,8.292,8.248,8.2186,8.2186,8.2186,8.2186,8.2186,8.2434,8.2876,8.357,8.4228,8.485,8.5495,8.5864,8.6094,8.6094,8.6094,8.6094,8.6094,8.6094,8.6094,8.6094,8.6094,8.6094,0.0,0.0,0.0,0.0,7.2642,0.0,7.3634,7.3891,7.4368,7.5799,7.6166,7.646,7.7163,7.7273,7.7273,7.7273,7.7273,7.7273,7.7273,7.7273,7.7273,7.7273,7.7273,7.7273,7.7273,7.7273,7.7604,7.8405,7.8626,7.9396,8.0938,8.1746,8.2186,8.2186,8.2186,8.2186,8.2186,8.2186,8.2186,8.2186,8.2186,8.2186,8.2186,8.2186,8.2186,8.2223,8.2957,8.3324,8.3544,8.5049,8.6151,8.6885,8.6995,8.6995,8.6995,8.6995,8.6995,8.6995,8.6995,8.6995,8.6995,8.6995,8.6995,8.6995,8.6995,8.6995,8.6995,8.6995,8.6995,8.6995,8.6995,8.6995,8.6995,8.6995,8.6921,8.6664,8.593,8.571,8.5637,8.5527,8.56,8.5416,8.4609,8.3875,8.3398,8.3287,8.2663,8.2186,8.2186,8.2186,8.2186,8.2186,8.2186,8.2186,8.2186,8.2732,8.3387,8.4067,8.4651,8.53,8.5954,8.606,8.6094,8.6094,8.6094,8.6094,8.6094,8.6094,8.6094,8.6094,8.6094,8.6094,0.0,0.0,0.0,0.0,0.0,0.0,7.4478,7.5175,7.5726,7.6056,7.6644,7.709,7.7273,7.7273,7.7273,7.7273,7.7273,7.7273,7.7273,7.7273,7.7273,7.7273,7.7273,7.7273,7.7273,7.7273,7.7347,7.7561,7.8809,7.9984,8.0938,8.1746,8.2186,8.2186,8.2186,8.2186,8.2186,8.2186,8.2186,8.2186,8.2186,8.2186,8.2186,8.2186,8.2186,8.2186,8.237,8.281,8.3471,8.4462,8.5306,8.6077,8.6738,8.6995,8.6995,8.6995,8.6995,8.6995,8.6995,8.6995,8.6995,8.6995,8.6995,8.6995,8.6995,8.6995,8.6995,8.6995,8.6995,8.6995,8.6995,8.6995,8.6995,8.6995,8.6518,8.5967,8.582,8.527,8.4646,8.3985,8.4389,8.4572,8.3765,8.3508,8.3177,8.2517,8.2296,8.2186,8.2186,8.2186,8.2186,8.2186,8.2186,8.2186,8.2186,8.2311,8.2678,8.3359,8.4004,8.4651,8.528,8.5811,8.6094,8.6094,8.6094,8.6094,8.6094,8.6094,8.6094,8.6094,8.6094,8.6094,0.0,0.0,0.0,7.4111,0.0,0.0,0.0,7.5799,7.6203,7.6644,7.7047,7.7273,7.7273,7.7273,7.7273,7.7273,7.7273,7.7273,7.7273,7.7273,7.7273,7.7273,7.7273,7.7273,7.7273,7.7273,7.7457,7.7928,7.947,8.0571,8.0975,8.1746,8.2186,8.2186,8.2186,8.2186,8.2186,8.2186,8.2186,8.2186,8.2186,8.2186,8.2186,8.2186,8.2186,8.2186,8.2186,8.2443,8.2847,8.3691,8.4499,8.5306,8.6554,8.6995,8.6995,8.6995,8.6995,8.6995,8.6995,8.6995,8.6995,8.6995,8.6995,8.6995,8.6995,8.6995,8.6995,8.6995,8.6995,8.6995,8.6995,8.6701,8.6407,8.6407,8.5783,8.5086,8.4682,8.4278,8.3765,8.2957,8.3141,8.3287,8.2884,8.281,8.2663,8.226,8.2186,8.2186,8.2186,8.2186,8.2186,8.2186,8.2186,8.2186,8.2186,8.2186,8.2616,8.3651,8.4004,8.4605,8.5551,8.5937,8.6094,8.6094,8.6094,8.6094,8.6094,8.6094,8.6094,8.6094,8.6094,8.6094,0.0,0.0,0.0,0.0,0.0,7.5359,0.0,0.0,0.0,7.7163,7.7273,7.7273,7.7273,7.7273,7.7237,7.709,7.72,7.7237,7.709,7.72,7.7273,7.7273,7.7273,7.7273,7.7273,7.742,7.7928,7.8772,8.0167,8.1012,8.1012,8.1746,8.2186,8.2186,8.2186,8.2186,8.2186,8.2186,8.2186,8.2186,8.2186,8.2186,8.2186,8.2186,8.2186,8.2186,8.2186,8.2186,8.226,8.3067,8.3801,8.4535,8.6151,8.6885,8.6995,8.6995,8.6995,8.6995,8.6995,8.6995,8.6995,8.6995,8.6995,8.6995,8.6995,8.6995,8.6995,8.6995,8.6995,8.6995,8.6995,8.6407,8.5783,8.5783,8.5086,8.4205,8.3544,8.3287,8.2994,8.2333,8.2186,8.2186,8.2186,8.2186,8.2186,8.2186,8.2186,8.2186,8.2186,8.2186,8.2186,8.2186,8.2186,8.2186,8.2186,8.2311,8.2906,8.4129,8.43,8.491,8.606,8.6094,8.6094,8.6094,8.6094,8.6094,8.6094,8.6094,8.6094,8.6094,8.6094,8.6094,0.0,0.0,0.0,0.0,7.5946,0.0,0.0,0.0,7.7163,7.7273,0.0,7.7273,7.7273,0.0,0.0,7.635,7.6827,7.7053,7.635,7.6864,7.7273,7.7273,7.7273,7.7273,7.7273,7.8002,7.8772,7.958,8.0498,8.1012,8.1012,8.1746,8.2186,8.2186,8.2186,8.2186,8.2186,8.2186,8.2186,8.2186,8.2186,8.2186,8.2186,8.2186,8.2186,8.2186,8.2186,8.2186,8.226,8.3067,8.3471,8.3728,8.5306,8.6371,8.6995,8.6995,8.6995,8.6995,8.6995,8.6995,8.6995,8.6995,8.6995,8.6995,8.6995,8.6995,8.6995,8.6995,8.6995,8.6995,8.6995,8.6407,8.5783,8.5783,8.4646,8.3508,8.3434,8.2847,8.2296,8.2223,8.2186,8.2186,8.2186,8.2186,8.2186,8.2186,8.2186,8.2186,8.2186,8.2186,8.2186,8.2186,8.2186,8.2186,8.2186,8.2732,8.3405,8.4154,8.4696,8.534,8.6077,8.6094,8.6094,8.6094,8.6094,8.6094,8.6094,8.6094,8.6094,8.6094,8.6094,8.6094,0.0,0.0,0.0,0.0,0.0,0.0,7.72,0.0,7.7273,0.0,0.0,0.0,0.0,0.0,0.0,0.0,7.7053,7.7163,7.6864,7.709,7.7273,7.7273,7.7273,7.7494,7.8002,7.925,8.0131,8.0461,8.1232,8.1709,8.1709,8.2003,8.2186,8.2186,8.2186,8.2186,8.2186,8.2186,8.2186,8.2186,8.2186,8.2186,8.2186,8.2186,8.2186,8.2186,8.2186,8.2186,8.226,8.3067,8.3691,8.4205,8.5343,8.6004,8.6371,8.6848,8.6995,8.6995,8.6995,8.6995,8.6995,8.6995,8.6995,8.6995,8.6995,8.6995,8.6995,8.6995,8.6995,8.6995,8.6995,8.6407,8.5673,8.5196,8.4242,8.3287,8.281,8.2443,8.2186,8.2186,8.2186,8.2186,8.2186,8.2186,8.2186,8.2186,8.2186,8.2186,8.2186,8.2186,8.2186,8.2186,8.2186,8.2186,8.2186,8.2823,8.3488,8.4154,8.5121,8.5811,8.6077,8.6094,8.6094,8.6094,8.6094,8.6094,8.6094,8.6094,8.6094,8.6094,8.6094,8.6094,7.6203,0.0,0.0,0.0,0.0,0.0,0.0,0.0,0.0,0.0,0.0,0.0,0.0,0.0,7.7237,0.0,0.0,7.72,7.698,7.7163,7.7273,7.7273,7.7494,7.8075,7.914,8.0314,8.1085,8.1305,8.1856,8.2186,8.2186,8.2186,8.2186,8.2186,8.2186,8.2186,8.2186,8.2186,8.2186,8.2186,8.2186,8.2186,8.2186,8.2186,8.2186,8.2223,8.2443,8.2517,8.259,8.3398,8.4058,8.4682,8.549,8.5783,8.5894,8.6701,8.6995,8.6995,8.6995,8.6995,8.6995,8.6995,8.6995,8.6995,8.6995,8.6995,8.6995,8.6995,8.6995,8.6995,8.6995,8.6407,8.56,8.4792,8.3985,8.3177,8.237,8.2186,8.2186,8.2186,8.2186,8.2186,8.2186,8.2186,8.2186,8.2186,8.2186,8.2186,8.2186,8.2186,8.2186,8.2186,8.2186,8.2247,8.2465,8.3111,8.3824,8.4651,8.5608,8.6094,8.6094,8.6094,8.6094,8.6094,8.6094,8.6094,8.6094,8.6094,8.6094,8.6094,8.6094,8.6094,0.0,0.0,0.0,7.7273,0.0,0.0,0.0,0.0,7.7273,0.0,0.0,0.0,0.0,0.0,0.0,0.0,0.0,0.0,0.0,7.6827,7.7273,7.7273,7.8038,7.9176,8.0791,8.0975,8.1342,8.2113,8.2186,8.2186,8.2186,8.2186,8.2186,8.2186,8.2186,8.2186,8.2186,8.2186,8.2186,8.2186,8.2186,8.2186,8.2186,8.2186,8.2186,8.2223,8.303,8.3361,8.3434,8.4242,8.4572,8.4682,8.549,8.5783,8.5894,8.6701,8.6995,8.6995,8.6995,8.6995,8.6995,8.6995,8.6995,8.6995,8.6995,8.6995,8.6995,8.6995,8.6995,8.6995,8.6995,8.6407,8.56,8.4792,8.3985,8.3177,8.237,8.2186,8.2186,8.2186,8.2186,8.2186,8.2186,8.2186,8.2186,8.2186,8.2186,8.2186,8.2186,8.2186,8.2186,8.2186,8.2186,8.2465,8.3103,8.3772,8.4696,8.5954,8.6077,8.6094,8.6094,8.6094,8.6094,8.6094,8.6094,8.6094,8.6094,8.6094,8.6094,8.6094,8.6094,8.6094,0.0,0.0,7.7273,7.7273,0.0,0.0,0.0,0.0,0.0,0.0,0.0,0.0,0.0,0.0,0.0,0.0,0.0,0.0,0.0,7.8772,7.914,7.969,8.0021,8.0388,8.0938,8.1489,8.1893,8.2186,8.2186,8.2186,8.2186,8.2186,8.2186,8.2186,8.2186,8.2186,8.2186,8.2186,8.2186,8.2186,8.2186,8.2186,8.2223,8.2737,8.2994,8.303,8.3838,8.4205,8.4278,8.5049,8.538,8.5453,8.6297,8.6591,8.6628,8.6921,8.6995,8.6995,8.6995,8.6995,8.6995,8.6995,8.6995,8.6995,8.6995,8.6995,8.6995,8.6995,8.6995,8.6995,8.6995,8.6811,8.6261,8.4939,8.4389,8.3838,8.248,8.2186,8.2186,8.2186,8.2186,8.2186,8.2186,8.2186,8.2186,8.2186,8.2186,8.2186,8.2186,8.2186,8.2186,8.2186,8.2186,8.2465,8.3132,8.4166,8.5162,8.606,8.6094,8.6094,8.6094,8.6094,8.6094,8.6094,8.6094,8.6094,8.6094,8.6094,8.6094,8.6094,8.6094,8.6094,7.7273,7.7273,0.0,7.7273,7.7273,0.0,7.7708,0.0,7.7855,0.0,0.0,0.0,0.0,0.0,0.0,0.0,0.0,0.0,0.0,8.0021,8.0424,8.0938,8.1012,8.1122,8.1415,8.1893,8.2186,8.2186,8.2186,8.2186,8.2186,8.2186,8.2186,8.2186,8.2186,8.2186,8.2186,8.2186,8.2186,8.2186,8.248,8.2627,8.2663,8.3471,8.3838,8.3875,8.4682,8.5013,8.5086,8.5894,8.6224,8.6261,8.6811,8.6995,8.6995,8.6995,8.6995,8.6995,8.6995,8.6995,8.6995,8.6995,8.6995,8.6995,8.6995,8.6995,8.6995,8.6995,8.6995,8.6995,8.6995,8.6995,8.6591,8.4976,8.4609,8.4168,8.2553,8.2186,8.2186,8.2186,8.2186,8.2186,8.2186,8.2186,8.2186,8.2186,8.2186,8.2186,8.2186,8.2186,8.2186,8.2186,8.2186,8.2465,8.3132,8.4358,8.5262,8.57,8.5737,8.5846,8.6077,8.6094,8.6247,8.6555,8.6247,8.6247,8.6555,8.6247,8.6094,8.6094,8.6094,8.6094]}]]